<?xml version="1.0" encoding="UTF-8" standalone="no" ?>
<gpx xmlns="http://www.topografix.com/GPX/1/1" xmlns:xsi="http://www.w3.org/2001/XMLSchema-instance" xsi:schemaLocation="http://www.topografix.com/GPX/1/1 http://www.topografix.com/GPX/1/1/gpx.xsd" version="1.1" creator="VisuGPX - https://www.visugpx.com">
  <metadata>
    <name>LE MONT NOIR côté Prés d\'Haut et Cernois</name>
    <desc><![CDATA[Parcours permetant de découvrir une partie peu connue du massif du Mont-Noir depuis Foncine-le-Bas.

Monter à la grange à l\'Olive puis sur les Gits. Prendre la direction de la Thieulette et cheminer sur les pistes de ski et le GR5 jusque chez l\'officier (à quelques dizaines de mètres du refuge du Prés d\'Haut). 
Succession de chemins empierrés, de sentiers, de routes forestières et... de chemins de débardage.
Attention, après \"chez l\'officier\" le cheminement emprunte une sente peu parcourue et peu marquée. Bien suivre la trace GPS.
La descente emprunte la route goudronnée jusqu\'à la ferme de la Bégine. Une suite de chemins et de petites routes (en balcon) conduit ensuite vers le Voisinet (belle vue sur Foncine-le-Bas, le Bayard, les sources de la Saine). Il ne reste plus que la descente finale (assez pentue et un peu technique par temps humide) pour rejoindre Foncine-le-Bas et le lieu de départ. 

Réservé aux VTTistes entraînés (dénivellé et cheminement exigeants)]]></desc>
  </metadata>
  <trk>
    <name><![CDATA[Tracé 001]]></name>
    <trkseg>
      <trkpt lat="46.63666" lon="6.02953">
        <ele>797.33984375</ele>
      </trkpt>
      <trkpt lat="46.63666" lon="6.02948">
        <ele>797.546875</ele>
      </trkpt>
      <trkpt lat="46.63665" lon="6.02945">
        <ele>797.703125</ele>
      </trkpt>
      <trkpt lat="46.63664" lon="6.02941">
        <ele>797.875</ele>
      </trkpt>
      <trkpt lat="46.63663" lon="6.02938">
        <ele>797.98828125</ele>
      </trkpt>
      <trkpt lat="46.63662" lon="6.02935">
        <ele>798.109375</ele>
      </trkpt>
      <trkpt lat="46.63661" lon="6.02932">
        <ele>798.2265625</ele>
      </trkpt>
      <trkpt lat="46.6366" lon="6.02929">
        <ele>798.34375</ele>
      </trkpt>
      <trkpt lat="46.6366" lon="6.02925">
        <ele>798.484375</ele>
      </trkpt>
      <trkpt lat="46.6366" lon="6.02924">
        <ele>798.5078125</ele>
      </trkpt>
      <trkpt lat="46.6366" lon="6.02925">
        <ele>811.01</ele>
        <time>2011-10-16T09:40:15Z</time>
      </trkpt>
      <trkpt lat="46.63653" lon="6.02914">
        <ele>811.97</ele>
        <time>2011-10-16T09:40:21Z</time>
      </trkpt>
      <trkpt lat="46.63651" lon="6.02901">
        <ele>811.49</ele>
        <time>2011-10-16T09:40:25Z</time>
      </trkpt>
      <trkpt lat="46.6364" lon="6.02867">
        <ele>814.37</ele>
        <time>2011-10-16T09:40:35Z</time>
      </trkpt>
      <trkpt lat="46.63639" lon="6.02864">
        <ele>812.93</ele>
        <time>2011-10-16T09:40:36Z</time>
      </trkpt>
      <trkpt lat="46.63638" lon="6.02862">
        <ele>802.84</ele>
        <time>2011-10-16T09:40:37Z</time>
      </trkpt>
      <trkpt lat="46.63637" lon="6.02861">
        <ele>813.89</ele>
        <time>2011-10-16T09:40:38Z</time>
      </trkpt>
      <trkpt lat="46.63635" lon="6.02859">
        <ele>810.05</ele>
        <time>2011-10-16T09:40:39Z</time>
      </trkpt>
      <trkpt lat="46.63634" lon="6.02858">
        <ele>818.22</ele>
        <time>2011-10-16T09:40:40Z</time>
      </trkpt>
      <trkpt lat="46.63632" lon="6.02856">
        <ele>810.05</ele>
        <time>2011-10-16T09:40:41Z</time>
      </trkpt>
      <trkpt lat="46.6363" lon="6.02854">
        <ele>813.41</ele>
        <time>2011-10-16T09:40:42Z</time>
      </trkpt>
      <trkpt lat="46.63629" lon="6.02853">
        <ele>829.27</ele>
        <time>2011-10-16T09:40:43Z</time>
      </trkpt>
      <trkpt lat="46.63627" lon="6.02852">
        <ele>790.34</ele>
        <time>2011-10-16T09:40:44Z</time>
      </trkpt>
      <trkpt lat="46.63625" lon="6.02851">
        <ele>810.05</ele>
        <time>2011-10-16T09:40:45Z</time>
      </trkpt>
      <trkpt lat="46.63623" lon="6.02851">
        <ele>797.55</ele>
        <time>2011-10-16T09:40:46Z</time>
      </trkpt>
      <trkpt lat="46.6362" lon="6.02851">
        <ele>828.79</ele>
        <time>2011-10-16T09:40:47Z</time>
      </trkpt>
      <trkpt lat="46.63616" lon="6.02852">
        <ele>823.03</ele>
        <time>2011-10-16T09:40:49Z</time>
      </trkpt>
      <trkpt lat="46.63614" lon="6.02852">
        <ele>814.85</ele>
        <time>2011-10-16T09:40:50Z</time>
      </trkpt>
      <trkpt lat="46.63612" lon="6.02849">
        <ele>812.93</ele>
        <time>2011-10-16T09:40:52Z</time>
      </trkpt>
      <trkpt lat="46.63611" lon="6.02848">
        <ele>819.18</ele>
        <time>2011-10-16T09:40:54Z</time>
      </trkpt>
      <trkpt lat="46.63611" lon="6.02848">
        <ele>813.41</ele>
        <time>2011-10-16T09:40:57Z</time>
      </trkpt>
      <trkpt lat="46.63611" lon="6.02848">
        <ele>811.97</ele>
        <time>2011-10-16T09:40:59Z</time>
      </trkpt>
      <trkpt lat="46.63611" lon="6.02848">
        <ele>808.61</ele>
        <time>2011-10-16T09:41:00Z</time>
      </trkpt>
      <trkpt lat="46.63611" lon="6.02848">
        <ele>815.34</ele>
        <time>2011-10-16T09:41:01Z</time>
      </trkpt>
      <trkpt lat="46.63611" lon="6.02848">
        <ele>811.49</ele>
        <time>2011-10-16T09:41:03Z</time>
      </trkpt>
      <trkpt lat="46.63611" lon="6.02848">
        <ele>814.85</ele>
        <time>2011-10-16T09:41:12Z</time>
      </trkpt>
      <trkpt lat="46.63611" lon="6.02848">
        <ele>810.53</ele>
        <time>2011-10-16T09:41:13Z</time>
      </trkpt>
      <trkpt lat="46.63611" lon="6.02848">
        <ele>814.37</ele>
        <time>2011-10-16T09:41:14Z</time>
      </trkpt>
      <trkpt lat="46.63611" lon="6.02848">
        <ele>801.88</ele>
        <time>2011-10-16T09:41:16Z</time>
      </trkpt>
      <trkpt lat="46.63611" lon="6.02848">
        <ele>814.85</ele>
        <time>2011-10-16T09:41:17Z</time>
      </trkpt>
      <trkpt lat="46.63611" lon="6.02848">
        <ele>809.09</ele>
        <time>2011-10-16T09:41:20Z</time>
      </trkpt>
      <trkpt lat="46.63611" lon="6.02848">
        <ele>801.88</ele>
        <time>2011-10-16T09:41:21Z</time>
      </trkpt>
      <trkpt lat="46.63611" lon="6.02848">
        <ele>812.93</ele>
        <time>2011-10-16T09:41:22Z</time>
      </trkpt>
      <trkpt lat="46.63611" lon="6.02848">
        <ele>812.93</ele>
        <time>2011-10-16T09:41:23Z</time>
      </trkpt>
      <trkpt lat="46.63611" lon="6.02848">
        <ele>813.41</ele>
        <time>2011-10-16T09:41:43Z</time>
      </trkpt>
      <trkpt lat="46.63611" lon="6.02848">
        <ele>808.61</ele>
        <time>2011-10-16T09:41:53Z</time>
      </trkpt>
      <trkpt lat="46.63611" lon="6.02848">
        <ele>811.49</ele>
        <time>2011-10-16T09:41:54Z</time>
      </trkpt>
      <trkpt lat="46.63611" lon="6.02848">
        <ele>814.85</ele>
        <time>2011-10-16T09:41:56Z</time>
      </trkpt>
      <trkpt lat="46.63611" lon="6.02848">
        <ele>814.85</ele>
        <time>2011-10-16T09:41:57Z</time>
      </trkpt>
      <trkpt lat="46.63611" lon="6.02847">
        <ele>809.57</ele>
        <time>2011-10-16T09:42:01Z</time>
      </trkpt>
      <trkpt lat="46.63611" lon="6.02847">
        <ele>816.78</ele>
        <time>2011-10-16T09:42:04Z</time>
      </trkpt>
      <trkpt lat="46.63611" lon="6.02847">
        <ele>812.45</ele>
        <time>2011-10-16T09:42:06Z</time>
      </trkpt>
      <trkpt lat="46.63611" lon="6.02847">
        <ele>812.45</ele>
        <time>2011-10-16T09:42:07Z</time>
      </trkpt>
      <trkpt lat="46.63587" lon="6.02841">
        <ele>812.45</ele>
        <time>2011-10-16T09:42:23Z</time>
      </trkpt>
      <trkpt lat="46.63547" lon="6.02815">
        <ele>815.82</ele>
        <time>2011-10-16T09:42:36Z</time>
      </trkpt>
      <trkpt lat="46.63511" lon="6.02781">
        <ele>818.22</ele>
        <time>2011-10-16T09:42:50Z</time>
      </trkpt>
      <trkpt lat="46.63492" lon="6.02772">
        <ele>821.1</ele>
        <time>2011-10-16T09:42:56Z</time>
      </trkpt>
      <trkpt lat="46.63457" lon="6.02755">
        <ele>823.99</ele>
        <time>2011-10-16T09:43:06Z</time>
      </trkpt>
      <trkpt lat="46.63422" lon="6.02745">
        <ele>826.87</ele>
        <time>2011-10-16T09:43:17Z</time>
      </trkpt>
      <trkpt lat="46.634" lon="6.02735">
        <ele>828.79</ele>
        <time>2011-10-16T09:43:27Z</time>
      </trkpt>
      <trkpt lat="46.63373" lon="6.02719">
        <ele>830.24</ele>
        <time>2011-10-16T09:43:41Z</time>
      </trkpt>
      <trkpt lat="46.63351" lon="6.02699">
        <ele>833.6</ele>
        <time>2011-10-16T09:43:53Z</time>
      </trkpt>
      <trkpt lat="46.63347" lon="6.02697">
        <ele>833.6</ele>
        <time>2011-10-16T09:43:55Z</time>
      </trkpt>
      <trkpt lat="46.63329" lon="6.02685">
        <ele>836</ele>
        <time>2011-10-16T09:44:05Z</time>
      </trkpt>
      <trkpt lat="46.63311" lon="6.02677">
        <ele>837.45</ele>
        <time>2011-10-16T09:44:16Z</time>
      </trkpt>
      <trkpt lat="46.63288" lon="6.02647">
        <ele>838.41</ele>
        <time>2011-10-16T09:44:30Z</time>
      </trkpt>
      <trkpt lat="46.63264" lon="6.02605">
        <ele>839.37</ele>
        <time>2011-10-16T09:44:44Z</time>
      </trkpt>
      <trkpt lat="46.63241" lon="6.02576">
        <ele>840.81</ele>
        <time>2011-10-16T09:44:57Z</time>
      </trkpt>
      <trkpt lat="46.6322" lon="6.02548">
        <ele>842.73</ele>
        <time>2011-10-16T09:45:09Z</time>
      </trkpt>
      <trkpt lat="46.63217" lon="6.02536">
        <ele>843.69</ele>
        <time>2011-10-16T09:45:13Z</time>
      </trkpt>
      <trkpt lat="46.63213" lon="6.02504">
        <ele>845.14</ele>
        <time>2011-10-16T09:45:26Z</time>
      </trkpt>
      <trkpt lat="46.63209" lon="6.02475">
        <ele>848.02</ele>
        <time>2011-10-16T09:45:39Z</time>
      </trkpt>
      <trkpt lat="46.63206" lon="6.02446">
        <ele>849.94</ele>
        <time>2011-10-16T09:45:52Z</time>
      </trkpt>
      <trkpt lat="46.63192" lon="6.02444">
        <ele>851.38</ele>
        <time>2011-10-16T09:46:03Z</time>
      </trkpt>
      <trkpt lat="46.63168" lon="6.02453">
        <ele>850.42</ele>
        <time>2011-10-16T09:46:17Z</time>
      </trkpt>
      <trkpt lat="46.63151" lon="6.02458">
        <ele>852.83</ele>
        <time>2011-10-16T09:46:29Z</time>
      </trkpt>
      <trkpt lat="46.63149" lon="6.02459">
        <ele>852.83</ele>
        <time>2011-10-16T09:46:30Z</time>
      </trkpt>
      <trkpt lat="46.63124" lon="6.02469">
        <ele>851.87</ele>
        <time>2011-10-16T09:46:44Z</time>
      </trkpt>
      <trkpt lat="46.63122" lon="6.02469">
        <ele>854.27</ele>
        <time>2011-10-16T09:46:45Z</time>
      </trkpt>
      <trkpt lat="46.63112" lon="6.02474">
        <ele>853.31</ele>
        <time>2011-10-16T09:46:50Z</time>
      </trkpt>
      <trkpt lat="46.63088" lon="6.02497">
        <ele>855.23</ele>
        <time>2011-10-16T09:47:03Z</time>
      </trkpt>
      <trkpt lat="46.63086" lon="6.02499">
        <ele>855.71</ele>
        <time>2011-10-16T09:47:04Z</time>
      </trkpt>
      <trkpt lat="46.63079" lon="6.02512">
        <ele>855.71</ele>
        <time>2011-10-16T09:47:11Z</time>
      </trkpt>
      <trkpt lat="46.63067" lon="6.0253">
        <ele>857.15</ele>
        <time>2011-10-16T09:47:20Z</time>
      </trkpt>
      <trkpt lat="46.63066" lon="6.02532">
        <ele>856.67</ele>
        <time>2011-10-16T09:47:21Z</time>
      </trkpt>
      <trkpt lat="46.63056" lon="6.02553">
        <ele>857.15</ele>
        <time>2011-10-16T09:47:28Z</time>
      </trkpt>
      <trkpt lat="46.63041" lon="6.02582">
        <ele>858.59</ele>
        <time>2011-10-16T09:47:39Z</time>
      </trkpt>
      <trkpt lat="46.6304" lon="6.02584">
        <ele>860.04</ele>
        <time>2011-10-16T09:47:40Z</time>
      </trkpt>
      <trkpt lat="46.63033" lon="6.02592">
        <ele>858.59</ele>
        <time>2011-10-16T09:47:45Z</time>
      </trkpt>
      <trkpt lat="46.63031" lon="6.02597">
        <ele>860.04</ele>
        <time>2011-10-16T09:47:47Z</time>
      </trkpt>
      <trkpt lat="46.63023" lon="6.02631">
        <ele>861</ele>
        <time>2011-10-16T09:48:01Z</time>
      </trkpt>
      <trkpt lat="46.63015" lon="6.02653">
        <ele>861.48</ele>
        <time>2011-10-16T09:48:10Z</time>
      </trkpt>
      <trkpt lat="46.63007" lon="6.02694">
        <ele>861.96</ele>
        <time>2011-10-16T09:48:24Z</time>
      </trkpt>
      <trkpt lat="46.63002" lon="6.0271">
        <ele>862.92</ele>
        <time>2011-10-16T09:48:30Z</time>
      </trkpt>
      <trkpt lat="46.6299" lon="6.02728">
        <ele>862.92</ele>
        <time>2011-10-16T09:48:38Z</time>
      </trkpt>
      <trkpt lat="46.62984" lon="6.02758">
        <ele>862.92</ele>
        <time>2011-10-16T09:48:50Z</time>
      </trkpt>
      <trkpt lat="46.62978" lon="6.02802">
        <ele>863.88</ele>
        <time>2011-10-16T09:49:02Z</time>
      </trkpt>
      <trkpt lat="46.62975" lon="6.02816">
        <ele>863.88</ele>
        <time>2011-10-16T09:49:07Z</time>
      </trkpt>
      <trkpt lat="46.62975" lon="6.02818">
        <ele>865.32</ele>
        <time>2011-10-16T09:49:08Z</time>
      </trkpt>
      <trkpt lat="46.62967" lon="6.02837">
        <ele>866.29</ele>
        <time>2011-10-16T09:49:18Z</time>
      </trkpt>
      <trkpt lat="46.62957" lon="6.0286">
        <ele>866.77</ele>
        <time>2011-10-16T09:49:27Z</time>
      </trkpt>
      <trkpt lat="46.62944" lon="6.02892">
        <ele>867.25</ele>
        <time>2011-10-16T09:49:37Z</time>
      </trkpt>
      <trkpt lat="46.6294" lon="6.02901">
        <ele>868.21</ele>
        <time>2011-10-16T09:49:40Z</time>
      </trkpt>
      <trkpt lat="46.62924" lon="6.02934">
        <ele>869.17</ele>
        <time>2011-10-16T09:49:52Z</time>
      </trkpt>
      <trkpt lat="46.62918" lon="6.02947">
        <ele>870.13</ele>
        <time>2011-10-16T09:49:57Z</time>
      </trkpt>
      <trkpt lat="46.62914" lon="6.02956">
        <ele>870.61</ele>
        <time>2011-10-16T09:50:00Z</time>
      </trkpt>
      <trkpt lat="46.62902" lon="6.02979">
        <ele>872.05</ele>
        <time>2011-10-16T09:50:10Z</time>
      </trkpt>
      <trkpt lat="46.6287" lon="6.03">
        <ele>873.01</ele>
        <time>2011-10-16T09:50:20Z</time>
      </trkpt>
      <trkpt lat="46.6287" lon="6.03">
        <ele>858.234375</ele>
      </trkpt>
      <trkpt lat="46.62869" lon="6.03003">
        <ele>857.81640625</ele>
      </trkpt>
      <trkpt lat="46.62867" lon="6.03005">
        <ele>857.53125</ele>
      </trkpt>
      <trkpt lat="46.62865" lon="6.03007">
        <ele>857.24609375</ele>
      </trkpt>
      <trkpt lat="46.62864" lon="6.03009">
        <ele>856.95703125</ele>
      </trkpt>
      <trkpt lat="46.62863" lon="6.03009">
        <ele>856.85546875</ele>
      </trkpt>
      <trkpt lat="46.62862" lon="6.0301">
        <ele>873.5</ele>
        <time>2011-10-16T09:51:31Z</time>
      </trkpt>
      <trkpt lat="46.62858" lon="6.03007">
        <ele>874.94</ele>
        <time>2011-10-16T09:51:41Z</time>
      </trkpt>
      <trkpt lat="46.62802" lon="6.02994">
        <ele>874.94</ele>
        <time>2011-10-16T09:51:50Z</time>
      </trkpt>
      <trkpt lat="46.62777" lon="6.02972">
        <ele>876.38</ele>
        <time>2011-10-16T09:52:04Z</time>
      </trkpt>
      <trkpt lat="46.62754" lon="6.02953">
        <ele>877.82</ele>
        <time>2011-10-16T09:52:16Z</time>
      </trkpt>
      <trkpt lat="46.62726" lon="6.02935">
        <ele>879.74</ele>
        <time>2011-10-16T09:52:28Z</time>
      </trkpt>
      <trkpt lat="46.62701" lon="6.02906">
        <ele>880.22</ele>
        <time>2011-10-16T09:52:41Z</time>
      </trkpt>
      <trkpt lat="46.62685" lon="6.02869">
        <ele>882.15</ele>
        <time>2011-10-16T09:52:54Z</time>
      </trkpt>
      <trkpt lat="46.62681" lon="6.02864">
        <ele>880.22</ele>
        <time>2011-10-16T09:52:57Z</time>
      </trkpt>
      <trkpt lat="46.62663" lon="6.02844">
        <ele>877.82</ele>
        <time>2011-10-16T09:53:10Z</time>
      </trkpt>
      <trkpt lat="46.62649" lon="6.02828">
        <ele>875.9</ele>
        <time>2011-10-16T09:53:14Z</time>
      </trkpt>
      <trkpt lat="46.62642" lon="6.02822">
        <ele>874.94</ele>
        <time>2011-10-16T09:53:16Z</time>
      </trkpt>
      <trkpt lat="46.62627" lon="6.02809">
        <ele>872.53</ele>
        <time>2011-10-16T09:53:23Z</time>
      </trkpt>
      <trkpt lat="46.62626" lon="6.02808">
        <ele>873.5</ele>
        <time>2011-10-16T09:53:24Z</time>
      </trkpt>
      <trkpt lat="46.62625" lon="6.02808">
        <ele>873.5</ele>
        <time>2011-10-16T09:53:25Z</time>
      </trkpt>
      <trkpt lat="46.62623" lon="6.0281">
        <ele>873.5</ele>
        <time>2011-10-16T09:53:26Z</time>
      </trkpt>
      <trkpt lat="46.62622" lon="6.02814">
        <ele>873.01</ele>
        <time>2011-10-16T09:53:27Z</time>
      </trkpt>
      <trkpt lat="46.62623" lon="6.02819">
        <ele>873.01</ele>
        <time>2011-10-16T09:53:28Z</time>
      </trkpt>
      <trkpt lat="46.62623" lon="6.02824">
        <ele>873.01</ele>
        <time>2011-10-16T09:53:29Z</time>
      </trkpt>
      <trkpt lat="46.62624" lon="6.02828">
        <ele>872.53</ele>
        <time>2011-10-16T09:53:30Z</time>
      </trkpt>
      <trkpt lat="46.62627" lon="6.02839">
        <ele>872.53</ele>
        <time>2011-10-16T09:53:32Z</time>
      </trkpt>
      <trkpt lat="46.6263" lon="6.02844">
        <ele>872.05</ele>
        <time>2011-10-16T09:53:33Z</time>
      </trkpt>
      <trkpt lat="46.6264" lon="6.02862">
        <ele>871.09</ele>
        <time>2011-10-16T09:53:36Z</time>
      </trkpt>
      <trkpt lat="46.62655" lon="6.02893">
        <ele>869.17</ele>
        <time>2011-10-16T09:53:40Z</time>
      </trkpt>
      <trkpt lat="46.62683" lon="6.02957">
        <ele>865.8</ele>
        <time>2011-10-16T09:53:47Z</time>
      </trkpt>
      <trkpt lat="46.62686" lon="6.02965">
        <ele>865.32</ele>
        <time>2011-10-16T09:53:48Z</time>
      </trkpt>
      <trkpt lat="46.62688" lon="6.02972">
        <ele>865.8</ele>
        <time>2011-10-16T09:53:49Z</time>
      </trkpt>
      <trkpt lat="46.62687" lon="6.0298">
        <ele>865.32</ele>
        <time>2011-10-16T09:53:50Z</time>
      </trkpt>
      <trkpt lat="46.62685" lon="6.02986">
        <ele>864.84</ele>
        <time>2011-10-16T09:53:51Z</time>
      </trkpt>
      <trkpt lat="46.62681" lon="6.02989">
        <ele>864.84</ele>
        <time>2011-10-16T09:53:52Z</time>
      </trkpt>
      <trkpt lat="46.62676" lon="6.0299">
        <ele>864.36</ele>
        <time>2011-10-16T09:53:53Z</time>
      </trkpt>
      <trkpt lat="46.62671" lon="6.02991">
        <ele>864.36</ele>
        <time>2011-10-16T09:53:54Z</time>
      </trkpt>
      <trkpt lat="46.62666" lon="6.0299">
        <ele>863.88</ele>
        <time>2011-10-16T09:53:55Z</time>
      </trkpt>
      <trkpt lat="46.62636" lon="6.02979">
        <ele>866.29</ele>
        <time>2011-10-16T09:54:05Z</time>
      </trkpt>
      <trkpt lat="46.62617" lon="6.02984">
        <ele>867.73</ele>
        <time>2011-10-16T09:54:15Z</time>
      </trkpt>
      <trkpt lat="46.62601" lon="6.03018">
        <ele>869.65</ele>
        <time>2011-10-16T09:54:29Z</time>
      </trkpt>
      <trkpt lat="46.62583" lon="6.03062">
        <ele>872.53</ele>
        <time>2011-10-16T09:54:46Z</time>
      </trkpt>
      <trkpt lat="46.62568" lon="6.03107">
        <ele>874.46</ele>
        <time>2011-10-16T09:55:02Z</time>
      </trkpt>
      <trkpt lat="46.62559" lon="6.03153">
        <ele>876.38</ele>
        <time>2011-10-16T09:55:17Z</time>
      </trkpt>
      <trkpt lat="46.62546" lon="6.03205">
        <ele>878.3</ele>
        <time>2011-10-16T09:55:34Z</time>
      </trkpt>
      <trkpt lat="46.62542" lon="6.03214">
        <ele>879.26</ele>
        <time>2011-10-16T09:55:37Z</time>
      </trkpt>
      <trkpt lat="46.62522" lon="6.03254">
        <ele>881.67</ele>
        <time>2011-10-16T09:55:52Z</time>
      </trkpt>
      <trkpt lat="46.62508" lon="6.03289">
        <ele>883.59</ele>
        <time>2011-10-16T09:56:05Z</time>
      </trkpt>
      <trkpt lat="46.62494" lon="6.03327">
        <ele>884.07</ele>
        <time>2011-10-16T09:56:18Z</time>
      </trkpt>
      <trkpt lat="46.62483" lon="6.03365">
        <ele>885.99</ele>
        <time>2011-10-16T09:56:30Z</time>
      </trkpt>
      <trkpt lat="46.62478" lon="6.03384">
        <ele>887.43</ele>
        <time>2011-10-16T09:56:36Z</time>
      </trkpt>
      <trkpt lat="46.62478" lon="6.03387">
        <ele>886.95</ele>
        <time>2011-10-16T09:56:37Z</time>
      </trkpt>
      <trkpt lat="46.62473" lon="6.03401">
        <ele>887.91</ele>
        <time>2011-10-16T09:56:41Z</time>
      </trkpt>
      <trkpt lat="46.62471" lon="6.03403">
        <ele>888.4</ele>
        <time>2011-10-16T09:56:42Z</time>
      </trkpt>
      <trkpt lat="46.6247" lon="6.03406">
        <ele>887.91</ele>
        <time>2011-10-16T09:56:43Z</time>
      </trkpt>
      <trkpt lat="46.62469" lon="6.03409">
        <ele>888.4</ele>
        <time>2011-10-16T09:56:44Z</time>
      </trkpt>
      <trkpt lat="46.62468" lon="6.03412">
        <ele>888.4</ele>
        <time>2011-10-16T09:56:45Z</time>
      </trkpt>
      <trkpt lat="46.62467" lon="6.03415">
        <ele>888.4</ele>
        <time>2011-10-16T09:56:46Z</time>
      </trkpt>
      <trkpt lat="46.62465" lon="6.03417">
        <ele>889.36</ele>
        <time>2011-10-16T09:56:47Z</time>
      </trkpt>
      <trkpt lat="46.62459" lon="6.03431">
        <ele>889.84</ele>
        <time>2011-10-16T09:56:52Z</time>
      </trkpt>
      <trkpt lat="46.62459" lon="6.03434">
        <ele>889.36</ele>
        <time>2011-10-16T09:56:53Z</time>
      </trkpt>
      <trkpt lat="46.62458" lon="6.03437">
        <ele>889.84</ele>
        <time>2011-10-16T09:56:54Z</time>
      </trkpt>
      <trkpt lat="46.62458" lon="6.0344">
        <ele>889.84</ele>
        <time>2011-10-16T09:56:55Z</time>
      </trkpt>
      <trkpt lat="46.62458" lon="6.03444">
        <ele>889.84</ele>
        <time>2011-10-16T09:56:56Z</time>
      </trkpt>
      <trkpt lat="46.62458" lon="6.03448">
        <ele>889.84</ele>
        <time>2011-10-16T09:56:57Z</time>
      </trkpt>
      <trkpt lat="46.62458" lon="6.03452">
        <ele>890.32</ele>
        <time>2011-10-16T09:56:58Z</time>
      </trkpt>
      <trkpt lat="46.62448" lon="6.03489">
        <ele>892.24</ele>
        <time>2011-10-16T09:57:09Z</time>
      </trkpt>
      <trkpt lat="46.62422" lon="6.03512">
        <ele>894.64</ele>
        <time>2011-10-16T09:57:22Z</time>
      </trkpt>
      <trkpt lat="46.62405" lon="6.03553">
        <ele>896.09</ele>
        <time>2011-10-16T09:57:38Z</time>
      </trkpt>
      <trkpt lat="46.62396" lon="6.03595">
        <ele>898.49</ele>
        <time>2011-10-16T09:57:53Z</time>
      </trkpt>
      <trkpt lat="46.624" lon="6.03629">
        <ele>900.41</ele>
        <time>2011-10-16T09:58:05Z</time>
      </trkpt>
      <trkpt lat="46.62406" lon="6.03675">
        <ele>901.85</ele>
        <time>2011-10-16T09:58:20Z</time>
      </trkpt>
      <trkpt lat="46.62412" lon="6.03729">
        <ele>902.82</ele>
        <time>2011-10-16T09:58:36Z</time>
      </trkpt>
      <trkpt lat="46.62409" lon="6.03796">
        <ele>903.78</ele>
        <time>2011-10-16T09:58:53Z</time>
      </trkpt>
      <trkpt lat="46.62387" lon="6.03861">
        <ele>905.7</ele>
        <time>2011-10-16T09:59:10Z</time>
      </trkpt>
      <trkpt lat="46.62358" lon="6.03916">
        <ele>906.18</ele>
        <time>2011-10-16T09:59:24Z</time>
      </trkpt>
      <trkpt lat="46.62337" lon="6.03972">
        <ele>906.66</ele>
        <time>2011-10-16T09:59:37Z</time>
      </trkpt>
      <trkpt lat="46.62345" lon="6.04016">
        <ele>909.06</ele>
        <time>2011-10-16T09:59:50Z</time>
      </trkpt>
      <trkpt lat="46.62357" lon="6.04068">
        <ele>910.99</ele>
        <time>2011-10-16T10:00:05Z</time>
      </trkpt>
      <trkpt lat="46.62373" lon="6.04103">
        <ele>913.87</ele>
        <time>2011-10-16T10:00:19Z</time>
      </trkpt>
      <trkpt lat="46.62399" lon="6.04136">
        <ele>916.75</ele>
        <time>2011-10-16T10:00:35Z</time>
      </trkpt>
      <trkpt lat="46.62416" lon="6.0416">
        <ele>916.75</ele>
        <time>2011-10-16T10:00:46Z</time>
      </trkpt>
      <trkpt lat="46.62435" lon="6.04199">
        <ele>919.64</ele>
        <time>2011-10-16T10:01:00Z</time>
      </trkpt>
      <trkpt lat="46.62449" lon="6.04238">
        <ele>920.6</ele>
        <time>2011-10-16T10:01:13Z</time>
      </trkpt>
      <trkpt lat="46.62457" lon="6.04282">
        <ele>922.04</ele>
        <time>2011-10-16T10:01:25Z</time>
      </trkpt>
      <trkpt lat="46.62459" lon="6.04302">
        <ele>923.96</ele>
        <time>2011-10-16T10:01:31Z</time>
      </trkpt>
      <trkpt lat="46.62463" lon="6.04343">
        <ele>923.96</ele>
        <time>2011-10-16T10:01:43Z</time>
      </trkpt>
      <trkpt lat="46.62464" lon="6.04355">
        <ele>925.41</ele>
        <time>2011-10-16T10:01:47Z</time>
      </trkpt>
      <trkpt lat="46.62465" lon="6.04361">
        <ele>924.93</ele>
        <time>2011-10-16T10:01:49Z</time>
      </trkpt>
      <trkpt lat="46.62466" lon="6.04367">
        <ele>925.41</ele>
        <time>2011-10-16T10:01:52Z</time>
      </trkpt>
      <trkpt lat="46.62491" lon="6.04396">
        <ele>928.29</ele>
        <time>2011-10-16T10:02:03Z</time>
      </trkpt>
      <trkpt lat="46.62493" lon="6.04399">
        <ele>928.29</ele>
        <time>2011-10-16T10:02:04Z</time>
      </trkpt>
      <trkpt lat="46.62495" lon="6.04402">
        <ele>928.29</ele>
        <time>2011-10-16T10:02:05Z</time>
      </trkpt>
      <trkpt lat="46.62497" lon="6.04404">
        <ele>928.77</ele>
        <time>2011-10-16T10:02:06Z</time>
      </trkpt>
      <trkpt lat="46.62499" lon="6.04407">
        <ele>928.77</ele>
        <time>2011-10-16T10:02:07Z</time>
      </trkpt>
      <trkpt lat="46.62501" lon="6.04409">
        <ele>928.77</ele>
        <time>2011-10-16T10:02:08Z</time>
      </trkpt>
      <trkpt lat="46.62502" lon="6.04412">
        <ele>928.77</ele>
        <time>2011-10-16T10:02:09Z</time>
      </trkpt>
      <trkpt lat="46.62505" lon="6.04415">
        <ele>929.25</ele>
        <time>2011-10-16T10:02:10Z</time>
      </trkpt>
      <trkpt lat="46.62507" lon="6.04417">
        <ele>928.77</ele>
        <time>2011-10-16T10:02:11Z</time>
      </trkpt>
      <trkpt lat="46.62508" lon="6.04419">
        <ele>929.25</ele>
        <time>2011-10-16T10:02:12Z</time>
      </trkpt>
      <trkpt lat="46.6251" lon="6.04422">
        <ele>930.21</ele>
        <time>2011-10-16T10:02:13Z</time>
      </trkpt>
      <trkpt lat="46.62512" lon="6.04424">
        <ele>930.21</ele>
        <time>2011-10-16T10:02:14Z</time>
      </trkpt>
      <trkpt lat="46.62514" lon="6.04426">
        <ele>930.21</ele>
        <time>2011-10-16T10:02:15Z</time>
      </trkpt>
      <trkpt lat="46.62515" lon="6.04429">
        <ele>930.69</ele>
        <time>2011-10-16T10:02:16Z</time>
      </trkpt>
      <trkpt lat="46.62517" lon="6.04432">
        <ele>929.73</ele>
        <time>2011-10-16T10:02:17Z</time>
      </trkpt>
      <trkpt lat="46.62518" lon="6.04435">
        <ele>930.21</ele>
        <time>2011-10-16T10:02:18Z</time>
      </trkpt>
      <trkpt lat="46.6252" lon="6.04437">
        <ele>930.69</ele>
        <time>2011-10-16T10:02:19Z</time>
      </trkpt>
      <trkpt lat="46.62521" lon="6.0444">
        <ele>931.17</ele>
        <time>2011-10-16T10:02:20Z</time>
      </trkpt>
      <trkpt lat="46.62523" lon="6.04442">
        <ele>930.69</ele>
        <time>2011-10-16T10:02:21Z</time>
      </trkpt>
      <trkpt lat="46.62524" lon="6.04444">
        <ele>930.69</ele>
        <time>2011-10-16T10:02:22Z</time>
      </trkpt>
      <trkpt lat="46.62527" lon="6.04446">
        <ele>931.17</ele>
        <time>2011-10-16T10:02:23Z</time>
      </trkpt>
      <trkpt lat="46.62544" lon="6.04479">
        <ele>931.17</ele>
        <time>2011-10-16T10:02:34Z</time>
      </trkpt>
      <trkpt lat="46.62547" lon="6.04525">
        <ele>932.14</ele>
        <time>2011-10-16T10:02:44Z</time>
      </trkpt>
      <trkpt lat="46.62542" lon="6.04569">
        <ele>933.58</ele>
        <time>2011-10-16T10:02:55Z</time>
      </trkpt>
      <trkpt lat="46.62541" lon="6.04571">
        <ele>932.62</ele>
        <time>2011-10-16T10:02:56Z</time>
      </trkpt>
      <trkpt lat="46.6254" lon="6.04579">
        <ele>934.54</ele>
        <time>2011-10-16T10:02:59Z</time>
      </trkpt>
      <trkpt lat="46.6254" lon="6.04588">
        <ele>934.54</ele>
        <time>2011-10-16T10:03:03Z</time>
      </trkpt>
      <trkpt lat="46.62541" lon="6.0459">
        <ele>934.54</ele>
        <time>2011-10-16T10:03:04Z</time>
      </trkpt>
      <trkpt lat="46.62541" lon="6.04592">
        <ele>934.54</ele>
        <time>2011-10-16T10:03:05Z</time>
      </trkpt>
      <trkpt lat="46.62555" lon="6.04629">
        <ele>936.94</ele>
        <time>2011-10-16T10:03:19Z</time>
      </trkpt>
      <trkpt lat="46.6257" lon="6.04662">
        <ele>938.86</ele>
        <time>2011-10-16T10:03:31Z</time>
      </trkpt>
      <trkpt lat="46.6258" lon="6.04678">
        <ele>939.35</ele>
        <time>2011-10-16T10:03:37Z</time>
      </trkpt>
      <trkpt lat="46.62583" lon="6.0468">
        <ele>939.35</ele>
        <time>2011-10-16T10:03:38Z</time>
      </trkpt>
      <trkpt lat="46.62585" lon="6.04682">
        <ele>940.31</ele>
        <time>2011-10-16T10:03:39Z</time>
      </trkpt>
      <trkpt lat="46.62586" lon="6.04684">
        <ele>939.83</ele>
        <time>2011-10-16T10:03:40Z</time>
      </trkpt>
      <trkpt lat="46.62588" lon="6.04685">
        <ele>939.83</ele>
        <time>2011-10-16T10:03:41Z</time>
      </trkpt>
      <trkpt lat="46.62592" lon="6.04691">
        <ele>940.31</ele>
        <time>2011-10-16T10:03:45Z</time>
      </trkpt>
      <trkpt lat="46.62594" lon="6.04693">
        <ele>940.31</ele>
        <time>2011-10-16T10:03:46Z</time>
      </trkpt>
      <trkpt lat="46.62615" lon="6.04726">
        <ele>941.75</ele>
        <time>2011-10-16T10:03:58Z</time>
      </trkpt>
      <trkpt lat="46.62621" lon="6.04747">
        <ele>942.71</ele>
        <time>2011-10-16T10:04:04Z</time>
      </trkpt>
      <trkpt lat="46.62622" lon="6.04749">
        <ele>942.23</ele>
        <time>2011-10-16T10:04:05Z</time>
      </trkpt>
      <trkpt lat="46.62629" lon="6.0479">
        <ele>944.15</ele>
        <time>2011-10-16T10:04:18Z</time>
      </trkpt>
      <trkpt lat="46.62635" lon="6.04819">
        <ele>945.59</ele>
        <time>2011-10-16T10:04:28Z</time>
      </trkpt>
      <trkpt lat="46.62642" lon="6.04839">
        <ele>947.04</ele>
        <time>2011-10-16T10:04:35Z</time>
      </trkpt>
      <trkpt lat="46.62643" lon="6.04842">
        <ele>946.56</ele>
        <time>2011-10-16T10:04:36Z</time>
      </trkpt>
      <trkpt lat="46.62644" lon="6.04843">
        <ele>947.04</ele>
        <time>2011-10-16T10:04:37Z</time>
      </trkpt>
      <trkpt lat="46.62646" lon="6.04846">
        <ele>947.52</ele>
        <time>2011-10-16T10:04:38Z</time>
      </trkpt>
      <trkpt lat="46.62647" lon="6.04849">
        <ele>946.56</ele>
        <time>2011-10-16T10:04:39Z</time>
      </trkpt>
      <trkpt lat="46.62648" lon="6.04852">
        <ele>946.07</ele>
        <time>2011-10-16T10:04:40Z</time>
      </trkpt>
      <trkpt lat="46.62649" lon="6.04855">
        <ele>947.52</ele>
        <time>2011-10-16T10:04:41Z</time>
      </trkpt>
      <trkpt lat="46.62643" lon="6.04893">
        <ele>948</ele>
        <time>2011-10-16T10:04:52Z</time>
      </trkpt>
      <trkpt lat="46.62623" lon="6.04921">
        <ele>948.48</ele>
        <time>2011-10-16T10:05:03Z</time>
      </trkpt>
      <trkpt lat="46.62616" lon="6.04939">
        <ele>947.52</ele>
        <time>2011-10-16T10:05:07Z</time>
      </trkpt>
      <trkpt lat="46.62617" lon="6.04945">
        <ele>947.04</ele>
        <time>2011-10-16T10:05:08Z</time>
      </trkpt>
      <trkpt lat="46.62619" lon="6.04949">
        <ele>947.52</ele>
        <time>2011-10-16T10:05:09Z</time>
      </trkpt>
      <trkpt lat="46.62645" lon="6.04978">
        <ele>949.44</ele>
        <time>2011-10-16T10:05:20Z</time>
      </trkpt>
      <trkpt lat="46.62653" lon="6.04986">
        <ele>949.44</ele>
        <time>2011-10-16T10:05:23Z</time>
      </trkpt>
      <trkpt lat="46.62655" lon="6.04989">
        <ele>949.44</ele>
        <time>2011-10-16T10:05:24Z</time>
      </trkpt>
      <trkpt lat="46.62658" lon="6.04991">
        <ele>948.96</ele>
        <time>2011-10-16T10:05:25Z</time>
      </trkpt>
      <trkpt lat="46.62662" lon="6.04994">
        <ele>948.96</ele>
        <time>2011-10-16T10:05:26Z</time>
      </trkpt>
      <trkpt lat="46.62696" lon="6.05034">
        <ele>949.44</ele>
        <time>2011-10-16T10:05:38Z</time>
      </trkpt>
      <trkpt lat="46.62722" lon="6.05089">
        <ele>950.88</ele>
        <time>2011-10-16T10:05:50Z</time>
      </trkpt>
      <trkpt lat="46.62747" lon="6.05132">
        <ele>951.36</ele>
        <time>2011-10-16T10:06:00Z</time>
      </trkpt>
      <trkpt lat="46.62758" lon="6.05152">
        <ele>950.4</ele>
        <time>2011-10-16T10:06:04Z</time>
      </trkpt>
      <trkpt lat="46.62762" lon="6.05157">
        <ele>950.88</ele>
        <time>2011-10-16T10:06:05Z</time>
      </trkpt>
      <trkpt lat="46.62766" lon="6.05162">
        <ele>951.36</ele>
        <time>2011-10-16T10:06:06Z</time>
      </trkpt>
      <trkpt lat="46.62768" lon="6.05166">
        <ele>951.36</ele>
        <time>2011-10-16T10:06:07Z</time>
      </trkpt>
      <trkpt lat="46.6277" lon="6.0517">
        <ele>951.36</ele>
        <time>2011-10-16T10:06:08Z</time>
      </trkpt>
      <trkpt lat="46.62796" lon="6.05211">
        <ele>951.36</ele>
        <time>2011-10-16T10:06:19Z</time>
      </trkpt>
      <trkpt lat="46.62809" lon="6.05227">
        <ele>951.84</ele>
        <time>2011-10-16T10:06:23Z</time>
      </trkpt>
      <trkpt lat="46.62844" lon="6.05263">
        <ele>953.77</ele>
        <time>2011-10-16T10:06:35Z</time>
      </trkpt>
      <trkpt lat="46.62861" lon="6.05293">
        <ele>955.69</ele>
        <time>2011-10-16T10:06:47Z</time>
      </trkpt>
      <trkpt lat="46.62876" lon="6.05319">
        <ele>958.57</ele>
        <time>2011-10-16T10:06:58Z</time>
      </trkpt>
      <trkpt lat="46.62891" lon="6.05346">
        <ele>959.05</ele>
        <time>2011-10-16T10:07:11Z</time>
      </trkpt>
      <trkpt lat="46.62912" lon="6.05377">
        <ele>961.94</ele>
        <time>2011-10-16T10:07:24Z</time>
      </trkpt>
      <trkpt lat="46.62931" lon="6.05408">
        <ele>963.86</ele>
        <time>2011-10-16T10:07:35Z</time>
      </trkpt>
      <trkpt lat="46.62938" lon="6.05433">
        <ele>964.34</ele>
        <time>2011-10-16T10:07:44Z</time>
      </trkpt>
      <trkpt lat="46.62951" lon="6.05463">
        <ele>966.26</ele>
        <time>2011-10-16T10:07:55Z</time>
      </trkpt>
      <trkpt lat="46.62952" lon="6.05465">
        <ele>967.22</ele>
        <time>2011-10-16T10:07:56Z</time>
      </trkpt>
      <trkpt lat="46.62952" lon="6.05468">
        <ele>967.22</ele>
        <time>2011-10-16T10:07:57Z</time>
      </trkpt>
      <trkpt lat="46.62954" lon="6.0547">
        <ele>967.7</ele>
        <time>2011-10-16T10:07:58Z</time>
      </trkpt>
      <trkpt lat="46.62954" lon="6.05472">
        <ele>967.7</ele>
        <time>2011-10-16T10:07:59Z</time>
      </trkpt>
      <trkpt lat="46.62955" lon="6.05474">
        <ele>967.7</ele>
        <time>2011-10-16T10:08:00Z</time>
      </trkpt>
      <trkpt lat="46.62959" lon="6.05495">
        <ele>968.18</ele>
        <time>2011-10-16T10:08:08Z</time>
      </trkpt>
      <trkpt lat="46.62959" lon="6.05501">
        <ele>969.15</ele>
        <time>2011-10-16T10:08:11Z</time>
      </trkpt>
      <trkpt lat="46.62959" lon="6.05504">
        <ele>968.67</ele>
        <time>2011-10-16T10:08:12Z</time>
      </trkpt>
      <trkpt lat="46.62958" lon="6.05515">
        <ele>969.63</ele>
        <time>2011-10-16T10:08:18Z</time>
      </trkpt>
      <trkpt lat="46.62959" lon="6.05516">
        <ele>970.59</ele>
        <time>2011-10-16T10:08:19Z</time>
      </trkpt>
      <trkpt lat="46.62961" lon="6.05518">
        <ele>971.07</ele>
        <time>2011-10-16T10:08:20Z</time>
      </trkpt>
      <trkpt lat="46.62966" lon="6.05523">
        <ele>971.55</ele>
        <time>2011-10-16T10:08:24Z</time>
      </trkpt>
      <trkpt lat="46.62967" lon="6.05524">
        <ele>972.03</ele>
        <time>2011-10-16T10:08:25Z</time>
      </trkpt>
      <trkpt lat="46.6297" lon="6.05532">
        <ele>972.51</ele>
        <time>2011-10-16T10:08:30Z</time>
      </trkpt>
      <trkpt lat="46.6297" lon="6.05534">
        <ele>972.99</ele>
        <time>2011-10-16T10:08:31Z</time>
      </trkpt>
      <trkpt lat="46.6297" lon="6.05536">
        <ele>972.99</ele>
        <time>2011-10-16T10:08:32Z</time>
      </trkpt>
      <trkpt lat="46.62971" lon="6.05543">
        <ele>974.43</ele>
        <time>2011-10-16T10:08:37Z</time>
      </trkpt>
      <trkpt lat="46.62976" lon="6.05549">
        <ele>974.43</ele>
        <time>2011-10-16T10:08:42Z</time>
      </trkpt>
      <trkpt lat="46.62977" lon="6.0555">
        <ele>974.43</ele>
        <time>2011-10-16T10:08:43Z</time>
      </trkpt>
      <trkpt lat="46.62978" lon="6.05551">
        <ele>975.39</ele>
        <time>2011-10-16T10:08:44Z</time>
      </trkpt>
      <trkpt lat="46.62979" lon="6.05552">
        <ele>974.91</ele>
        <time>2011-10-16T10:08:45Z</time>
      </trkpt>
      <trkpt lat="46.6298" lon="6.05553">
        <ele>975.39</ele>
        <time>2011-10-16T10:08:46Z</time>
      </trkpt>
      <trkpt lat="46.62987" lon="6.05555">
        <ele>976.84</ele>
        <time>2011-10-16T10:08:50Z</time>
      </trkpt>
      <trkpt lat="46.6299" lon="6.05556">
        <ele>976.36</ele>
        <time>2011-10-16T10:08:51Z</time>
      </trkpt>
      <trkpt lat="46.63019" lon="6.05568">
        <ele>978.76</ele>
        <time>2011-10-16T10:09:04Z</time>
      </trkpt>
      <trkpt lat="46.63032" lon="6.05588">
        <ele>979.72</ele>
        <time>2011-10-16T10:09:17Z</time>
      </trkpt>
      <trkpt lat="46.63046" lon="6.05614">
        <ele>981.16</ele>
        <time>2011-10-16T10:09:28Z</time>
      </trkpt>
      <trkpt lat="46.63053" lon="6.05653">
        <ele>982.6</ele>
        <time>2011-10-16T10:09:39Z</time>
      </trkpt>
      <trkpt lat="46.63051" lon="6.05657">
        <ele>982.6</ele>
        <time>2011-10-16T10:09:40Z</time>
      </trkpt>
      <trkpt lat="46.6305" lon="6.0566">
        <ele>982.6</ele>
        <time>2011-10-16T10:09:41Z</time>
      </trkpt>
      <trkpt lat="46.6305" lon="6.05663">
        <ele>982.6</ele>
        <time>2011-10-16T10:09:42Z</time>
      </trkpt>
      <trkpt lat="46.6305" lon="6.05666">
        <ele>983.09</ele>
        <time>2011-10-16T10:09:43Z</time>
      </trkpt>
      <trkpt lat="46.6305" lon="6.05669">
        <ele>983.09</ele>
        <time>2011-10-16T10:09:44Z</time>
      </trkpt>
      <trkpt lat="46.63049" lon="6.05672">
        <ele>983.09</ele>
        <time>2011-10-16T10:09:45Z</time>
      </trkpt>
      <trkpt lat="46.63048" lon="6.05675">
        <ele>983.57</ele>
        <time>2011-10-16T10:09:46Z</time>
      </trkpt>
      <trkpt lat="46.63047" lon="6.05678">
        <ele>983.57</ele>
        <time>2011-10-16T10:09:47Z</time>
      </trkpt>
      <trkpt lat="46.63046" lon="6.05681">
        <ele>983.57</ele>
        <time>2011-10-16T10:09:48Z</time>
      </trkpt>
      <trkpt lat="46.63032" lon="6.05709">
        <ele>985.49</ele>
        <time>2011-10-16T10:09:58Z</time>
      </trkpt>
      <trkpt lat="46.63021" lon="6.05719">
        <ele>986.93</ele>
        <time>2011-10-16T10:10:04Z</time>
      </trkpt>
      <trkpt lat="46.6302" lon="6.05719">
        <ele>986.93</ele>
        <time>2011-10-16T10:10:05Z</time>
      </trkpt>
      <trkpt lat="46.63018" lon="6.0572">
        <ele>986.93</ele>
        <time>2011-10-16T10:10:06Z</time>
      </trkpt>
      <trkpt lat="46.63016" lon="6.05721">
        <ele>986.45</ele>
        <time>2011-10-16T10:10:07Z</time>
      </trkpt>
      <trkpt lat="46.62996" lon="6.05725">
        <ele>988.37</ele>
        <time>2011-10-16T10:10:18Z</time>
      </trkpt>
      <trkpt lat="46.62992" lon="6.05727">
        <ele>988.37</ele>
        <time>2011-10-16T10:10:21Z</time>
      </trkpt>
      <trkpt lat="46.62986" lon="6.05731">
        <ele>990.3</ele>
        <time>2011-10-16T10:10:25Z</time>
      </trkpt>
      <trkpt lat="46.62984" lon="6.05731">
        <ele>989.81</ele>
        <time>2011-10-16T10:10:26Z</time>
      </trkpt>
      <trkpt lat="46.62981" lon="6.05732">
        <ele>990.3</ele>
        <time>2011-10-16T10:10:27Z</time>
      </trkpt>
      <trkpt lat="46.6298" lon="6.05732">
        <ele>990.3</ele>
        <time>2011-10-16T10:10:28Z</time>
      </trkpt>
      <trkpt lat="46.62978" lon="6.05734">
        <ele>990.3</ele>
        <time>2011-10-16T10:10:29Z</time>
      </trkpt>
      <trkpt lat="46.62976" lon="6.05735">
        <ele>990.78</ele>
        <time>2011-10-16T10:10:30Z</time>
      </trkpt>
      <trkpt lat="46.62974" lon="6.05735">
        <ele>990.3</ele>
        <time>2011-10-16T10:10:31Z</time>
      </trkpt>
      <trkpt lat="46.62973" lon="6.05736">
        <ele>990.78</ele>
        <time>2011-10-16T10:10:32Z</time>
      </trkpt>
      <trkpt lat="46.62971" lon="6.05739">
        <ele>990.78</ele>
        <time>2011-10-16T10:10:34Z</time>
      </trkpt>
      <trkpt lat="46.6297" lon="6.05741">
        <ele>991.26</ele>
        <time>2011-10-16T10:10:35Z</time>
      </trkpt>
      <trkpt lat="46.62953" lon="6.05763">
        <ele>993.18</ele>
        <time>2011-10-16T10:10:47Z</time>
      </trkpt>
      <trkpt lat="46.62953" lon="6.05792">
        <ele>994.62</ele>
        <time>2011-10-16T10:10:58Z</time>
      </trkpt>
      <trkpt lat="46.62953" lon="6.05795">
        <ele>994.62</ele>
        <time>2011-10-16T10:10:59Z</time>
      </trkpt>
      <trkpt lat="46.62953" lon="6.05798">
        <ele>994.62</ele>
        <time>2011-10-16T10:11:00Z</time>
      </trkpt>
      <trkpt lat="46.62952" lon="6.058">
        <ele>994.62</ele>
        <time>2011-10-16T10:11:01Z</time>
      </trkpt>
      <trkpt lat="46.62951" lon="6.05802">
        <ele>994.62</ele>
        <time>2011-10-16T10:11:02Z</time>
      </trkpt>
      <trkpt lat="46.62951" lon="6.05806">
        <ele>995.1</ele>
        <time>2011-10-16T10:11:04Z</time>
      </trkpt>
      <trkpt lat="46.6295" lon="6.05808">
        <ele>995.1</ele>
        <time>2011-10-16T10:11:05Z</time>
      </trkpt>
      <trkpt lat="46.6295" lon="6.0581">
        <ele>996.06</ele>
        <time>2011-10-16T10:11:06Z</time>
      </trkpt>
      <trkpt lat="46.6295" lon="6.05815">
        <ele>995.58</ele>
        <time>2011-10-16T10:11:09Z</time>
      </trkpt>
      <trkpt lat="46.62949" lon="6.05818">
        <ele>996.06</ele>
        <time>2011-10-16T10:11:10Z</time>
      </trkpt>
      <trkpt lat="46.62947" lon="6.05822">
        <ele>996.06</ele>
        <time>2011-10-16T10:11:13Z</time>
      </trkpt>
      <trkpt lat="46.62946" lon="6.05824">
        <ele>995.58</ele>
        <time>2011-10-16T10:11:14Z</time>
      </trkpt>
      <trkpt lat="46.62944" lon="6.05825">
        <ele>996.06</ele>
        <time>2011-10-16T10:11:15Z</time>
      </trkpt>
      <trkpt lat="46.6293" lon="6.05835">
        <ele>997.51</ele>
        <time>2011-10-16T10:11:28Z</time>
      </trkpt>
      <trkpt lat="46.62914" lon="6.0584">
        <ele>998.47</ele>
        <time>2011-10-16T10:11:37Z</time>
      </trkpt>
      <trkpt lat="46.629" lon="6.0585">
        <ele>1000.39</ele>
        <time>2011-10-16T10:11:48Z</time>
      </trkpt>
      <trkpt lat="46.62887" lon="6.05868">
        <ele>1001.83</ele>
        <time>2011-10-16T10:11:59Z</time>
      </trkpt>
      <trkpt lat="46.62876" lon="6.05888">
        <ele>1002.31</ele>
        <time>2011-10-16T10:12:08Z</time>
      </trkpt>
      <trkpt lat="46.62871" lon="6.05912">
        <ele>1002.79</ele>
        <time>2011-10-16T10:12:18Z</time>
      </trkpt>
      <trkpt lat="46.6288" lon="6.05929">
        <ele>1004.23</ele>
        <time>2011-10-16T10:12:27Z</time>
      </trkpt>
      <trkpt lat="46.6289" lon="6.05949">
        <ele>1006.16</ele>
        <time>2011-10-16T10:12:38Z</time>
      </trkpt>
      <trkpt lat="46.62901" lon="6.05973">
        <ele>1007.6</ele>
        <time>2011-10-16T10:12:47Z</time>
      </trkpt>
      <trkpt lat="46.62905" lon="6.05987">
        <ele>1011.44</ele>
        <time>2011-10-16T10:12:52Z</time>
      </trkpt>
      <trkpt lat="46.62906" lon="6.0599">
        <ele>1008.56</ele>
        <time>2011-10-16T10:12:53Z</time>
      </trkpt>
      <trkpt lat="46.62907" lon="6.05995">
        <ele>1007.6</ele>
        <time>2011-10-16T10:12:55Z</time>
      </trkpt>
      <trkpt lat="46.62908" lon="6.05997">
        <ele>1007.6</ele>
        <time>2011-10-16T10:12:56Z</time>
      </trkpt>
      <trkpt lat="46.62909" lon="6.06001">
        <ele>1007.6</ele>
        <time>2011-10-16T10:12:58Z</time>
      </trkpt>
      <trkpt lat="46.6291" lon="6.06003">
        <ele>1007.12</ele>
        <time>2011-10-16T10:12:59Z</time>
      </trkpt>
      <trkpt lat="46.62911" lon="6.06005">
        <ele>1007.12</ele>
        <time>2011-10-16T10:13:00Z</time>
      </trkpt>
      <trkpt lat="46.62912" lon="6.06007">
        <ele>1007.6</ele>
        <time>2011-10-16T10:13:01Z</time>
      </trkpt>
      <trkpt lat="46.62913" lon="6.0601">
        <ele>1007.6</ele>
        <time>2011-10-16T10:13:02Z</time>
      </trkpt>
      <trkpt lat="46.62914" lon="6.06013">
        <ele>1007.6</ele>
        <time>2011-10-16T10:13:03Z</time>
      </trkpt>
      <trkpt lat="46.62915" lon="6.06019">
        <ele>1007.6</ele>
        <time>2011-10-16T10:13:05Z</time>
      </trkpt>
      <trkpt lat="46.62916" lon="6.06021">
        <ele>1007.6</ele>
        <time>2011-10-16T10:13:06Z</time>
      </trkpt>
      <trkpt lat="46.62922" lon="6.06037">
        <ele>1008.08</ele>
        <time>2011-10-16T10:13:14Z</time>
      </trkpt>
      <trkpt lat="46.62923" lon="6.06039">
        <ele>1007.6</ele>
        <time>2011-10-16T10:13:15Z</time>
      </trkpt>
      <trkpt lat="46.62925" lon="6.06041">
        <ele>1007.6</ele>
        <time>2011-10-16T10:13:16Z</time>
      </trkpt>
      <trkpt lat="46.62926" lon="6.06043">
        <ele>1007.6</ele>
        <time>2011-10-16T10:13:17Z</time>
      </trkpt>
      <trkpt lat="46.62927" lon="6.06046">
        <ele>1008.08</ele>
        <time>2011-10-16T10:13:18Z</time>
      </trkpt>
      <trkpt lat="46.62928" lon="6.06048">
        <ele>1008.08</ele>
        <time>2011-10-16T10:13:19Z</time>
      </trkpt>
      <trkpt lat="46.62929" lon="6.0605">
        <ele>1008.08</ele>
        <time>2011-10-16T10:13:20Z</time>
      </trkpt>
      <trkpt lat="46.62931" lon="6.06052">
        <ele>1008.08</ele>
        <time>2011-10-16T10:13:21Z</time>
      </trkpt>
      <trkpt lat="46.62934" lon="6.06058">
        <ele>1008.56</ele>
        <time>2011-10-16T10:13:24Z</time>
      </trkpt>
      <trkpt lat="46.62938" lon="6.06081">
        <ele>1009.04</ele>
        <time>2011-10-16T10:13:30Z</time>
      </trkpt>
      <trkpt lat="46.62937" lon="6.06086">
        <ele>1009.52</ele>
        <time>2011-10-16T10:13:31Z</time>
      </trkpt>
      <trkpt lat="46.62935" lon="6.06095">
        <ele>1009.52</ele>
        <time>2011-10-16T10:13:33Z</time>
      </trkpt>
      <trkpt lat="46.62919" lon="6.06128">
        <ele>1008.56</ele>
        <time>2011-10-16T10:13:42Z</time>
      </trkpt>
      <trkpt lat="46.62919" lon="6.06134">
        <ele>1008.56</ele>
        <time>2011-10-16T10:13:43Z</time>
      </trkpt>
      <trkpt lat="46.62918" lon="6.0614">
        <ele>1009.04</ele>
        <time>2011-10-16T10:13:44Z</time>
      </trkpt>
      <trkpt lat="46.62916" lon="6.06159">
        <ele>1007.6</ele>
        <time>2011-10-16T10:13:47Z</time>
      </trkpt>
      <trkpt lat="46.62915" lon="6.0618">
        <ele>1007.12</ele>
        <time>2011-10-16T10:13:50Z</time>
      </trkpt>
      <trkpt lat="46.62917" lon="6.06185">
        <ele>1007.12</ele>
        <time>2011-10-16T10:13:51Z</time>
      </trkpt>
      <trkpt lat="46.62918" lon="6.06192">
        <ele>1007.12</ele>
        <time>2011-10-16T10:13:52Z</time>
      </trkpt>
      <trkpt lat="46.62921" lon="6.06205">
        <ele>1006.64</ele>
        <time>2011-10-16T10:13:54Z</time>
      </trkpt>
      <trkpt lat="46.62923" lon="6.06211">
        <ele>1006.64</ele>
        <time>2011-10-16T10:13:55Z</time>
      </trkpt>
      <trkpt lat="46.62925" lon="6.06215">
        <ele>1006.64</ele>
        <time>2011-10-16T10:13:56Z</time>
      </trkpt>
      <trkpt lat="46.62949" lon="6.06247">
        <ele>1008.08</ele>
        <time>2011-10-16T10:14:06Z</time>
      </trkpt>
      <trkpt lat="46.62951" lon="6.06277">
        <ele>1009.04</ele>
        <time>2011-10-16T10:14:13Z</time>
      </trkpt>
      <trkpt lat="46.62946" lon="6.0631">
        <ele>1012.41</ele>
        <time>2011-10-16T10:14:23Z</time>
      </trkpt>
      <trkpt lat="46.62946" lon="6.06313">
        <ele>1012.41</ele>
        <time>2011-10-16T10:14:24Z</time>
      </trkpt>
      <trkpt lat="46.62946" lon="6.06315">
        <ele>1012.41</ele>
        <time>2011-10-16T10:14:25Z</time>
      </trkpt>
      <trkpt lat="46.62948" lon="6.06347">
        <ele>1014.81</ele>
        <time>2011-10-16T10:14:37Z</time>
      </trkpt>
      <trkpt lat="46.62961" lon="6.06362">
        <ele>1016.25</ele>
        <time>2011-10-16T10:14:49Z</time>
      </trkpt>
      <trkpt lat="46.62971" lon="6.06361">
        <ele>1016.73</ele>
        <time>2011-10-16T10:14:55Z</time>
      </trkpt>
      <trkpt lat="46.62977" lon="6.06362">
        <ele>1016.73</ele>
        <time>2011-10-16T10:14:59Z</time>
      </trkpt>
      <trkpt lat="46.62979" lon="6.06362">
        <ele>1017.21</ele>
        <time>2011-10-16T10:15:00Z</time>
      </trkpt>
      <trkpt lat="46.63005" lon="6.06361">
        <ele>1019.62</ele>
        <time>2011-10-16T10:15:15Z</time>
      </trkpt>
      <trkpt lat="46.63022" lon="6.06367">
        <ele>1020.58</ele>
        <time>2011-10-16T10:15:27Z</time>
      </trkpt>
      <trkpt lat="46.63034" lon="6.06371">
        <ele>1021.54</ele>
        <time>2011-10-16T10:15:36Z</time>
      </trkpt>
      <trkpt lat="46.6304" lon="6.06372">
        <ele>1022.98</ele>
        <time>2011-10-16T10:15:39Z</time>
      </trkpt>
      <trkpt lat="46.63042" lon="6.06372">
        <ele>1022.5</ele>
        <time>2011-10-16T10:15:40Z</time>
      </trkpt>
      <trkpt lat="46.63056" lon="6.06378">
        <ele>1023.94</ele>
        <time>2011-10-16T10:15:48Z</time>
      </trkpt>
      <trkpt lat="46.63056" lon="6.06379">
        <ele>1023.94</ele>
        <time>2011-10-16T10:15:49Z</time>
      </trkpt>
      <trkpt lat="46.63057" lon="6.06381">
        <ele>1024.42</ele>
        <time>2011-10-16T10:15:50Z</time>
      </trkpt>
      <trkpt lat="46.63063" lon="6.06391">
        <ele>1023.94</ele>
        <time>2011-10-16T10:15:56Z</time>
      </trkpt>
      <trkpt lat="46.63068" lon="6.06421">
        <ele>1025.86</ele>
        <time>2011-10-16T10:16:09Z</time>
      </trkpt>
      <trkpt lat="46.63071" lon="6.06435">
        <ele>1026.83</ele>
        <time>2011-10-16T10:16:15Z</time>
      </trkpt>
      <trkpt lat="46.63071" lon="6.06438">
        <ele>1026.34</ele>
        <time>2011-10-16T10:16:16Z</time>
      </trkpt>
      <trkpt lat="46.63071" lon="6.0644">
        <ele>1027.31</ele>
        <time>2011-10-16T10:16:17Z</time>
      </trkpt>
      <trkpt lat="46.63072" lon="6.06442">
        <ele>1027.31</ele>
        <time>2011-10-16T10:16:18Z</time>
      </trkpt>
      <trkpt lat="46.63072" lon="6.06444">
        <ele>1027.31</ele>
        <time>2011-10-16T10:16:19Z</time>
      </trkpt>
      <trkpt lat="46.63073" lon="6.06446">
        <ele>1027.31</ele>
        <time>2011-10-16T10:16:20Z</time>
      </trkpt>
      <trkpt lat="46.63074" lon="6.06448">
        <ele>1027.31</ele>
        <time>2011-10-16T10:16:21Z</time>
      </trkpt>
      <trkpt lat="46.63075" lon="6.06449">
        <ele>1027.79</ele>
        <time>2011-10-16T10:16:22Z</time>
      </trkpt>
      <trkpt lat="46.63075" lon="6.06452">
        <ele>1027.31</ele>
        <time>2011-10-16T10:16:23Z</time>
      </trkpt>
      <trkpt lat="46.63075" lon="6.06454">
        <ele>1028.27</ele>
        <time>2011-10-16T10:16:24Z</time>
      </trkpt>
      <trkpt lat="46.63076" lon="6.06456">
        <ele>1028.27</ele>
        <time>2011-10-16T10:16:25Z</time>
      </trkpt>
      <trkpt lat="46.63076" lon="6.06458">
        <ele>1027.79</ele>
        <time>2011-10-16T10:16:26Z</time>
      </trkpt>
      <trkpt lat="46.63077" lon="6.06466">
        <ele>1028.75</ele>
        <time>2011-10-16T10:16:30Z</time>
      </trkpt>
      <trkpt lat="46.63077" lon="6.06468">
        <ele>1029.23</ele>
        <time>2011-10-16T10:16:31Z</time>
      </trkpt>
      <trkpt lat="46.63078" lon="6.0647">
        <ele>1029.23</ele>
        <time>2011-10-16T10:16:32Z</time>
      </trkpt>
      <trkpt lat="46.63079" lon="6.06471">
        <ele>1029.23</ele>
        <time>2011-10-16T10:16:33Z</time>
      </trkpt>
      <trkpt lat="46.6308" lon="6.06473">
        <ele>1028.75</ele>
        <time>2011-10-16T10:16:34Z</time>
      </trkpt>
      <trkpt lat="46.6308" lon="6.06475">
        <ele>1028.75</ele>
        <time>2011-10-16T10:16:35Z</time>
      </trkpt>
      <trkpt lat="46.6308" lon="6.06477">
        <ele>1029.23</ele>
        <time>2011-10-16T10:16:36Z</time>
      </trkpt>
      <trkpt lat="46.6308" lon="6.0648">
        <ele>1029.23</ele>
        <time>2011-10-16T10:16:37Z</time>
      </trkpt>
      <trkpt lat="46.6308" lon="6.06482">
        <ele>1029.71</ele>
        <time>2011-10-16T10:16:38Z</time>
      </trkpt>
      <trkpt lat="46.63081" lon="6.06484">
        <ele>1030.19</ele>
        <time>2011-10-16T10:16:39Z</time>
      </trkpt>
      <trkpt lat="46.63082" lon="6.06488">
        <ele>1030.19</ele>
        <time>2011-10-16T10:16:42Z</time>
      </trkpt>
      <trkpt lat="46.63082" lon="6.0649">
        <ele>1029.71</ele>
        <time>2011-10-16T10:16:43Z</time>
      </trkpt>
      <trkpt lat="46.63083" lon="6.06492">
        <ele>1029.71</ele>
        <time>2011-10-16T10:16:44Z</time>
      </trkpt>
      <trkpt lat="46.63083" lon="6.06495">
        <ele>1030.67</ele>
        <time>2011-10-16T10:16:45Z</time>
      </trkpt>
      <trkpt lat="46.63083" lon="6.06497">
        <ele>1030.19</ele>
        <time>2011-10-16T10:16:46Z</time>
      </trkpt>
      <trkpt lat="46.63084" lon="6.06498">
        <ele>1030.19</ele>
        <time>2011-10-16T10:16:47Z</time>
      </trkpt>
      <trkpt lat="46.63084" lon="6.065">
        <ele>1030.67</ele>
        <time>2011-10-16T10:16:48Z</time>
      </trkpt>
      <trkpt lat="46.63085" lon="6.06502">
        <ele>1030.67</ele>
        <time>2011-10-16T10:16:49Z</time>
      </trkpt>
      <trkpt lat="46.63086" lon="6.06504">
        <ele>1030.67</ele>
        <time>2011-10-16T10:16:50Z</time>
      </trkpt>
      <trkpt lat="46.63086" lon="6.06505">
        <ele>1030.19</ele>
        <time>2011-10-16T10:16:51Z</time>
      </trkpt>
      <trkpt lat="46.63087" lon="6.06507">
        <ele>1030.67</ele>
        <time>2011-10-16T10:16:52Z</time>
      </trkpt>
      <trkpt lat="46.63088" lon="6.06508">
        <ele>1030.67</ele>
        <time>2011-10-16T10:16:53Z</time>
      </trkpt>
      <trkpt lat="46.63093" lon="6.06519">
        <ele>1031.63</ele>
        <time>2011-10-16T10:17:00Z</time>
      </trkpt>
      <trkpt lat="46.63094" lon="6.06521">
        <ele>1031.63</ele>
        <time>2011-10-16T10:17:01Z</time>
      </trkpt>
      <trkpt lat="46.631" lon="6.0654">
        <ele>1033.55</ele>
        <time>2011-10-16T10:17:12Z</time>
      </trkpt>
      <trkpt lat="46.631" lon="6.06557">
        <ele>1034.04</ele>
        <time>2011-10-16T10:17:21Z</time>
      </trkpt>
      <trkpt lat="46.63101" lon="6.0656">
        <ele>1034.04</ele>
        <time>2011-10-16T10:17:23Z</time>
      </trkpt>
      <trkpt lat="46.63101" lon="6.0657">
        <ele>1034.04</ele>
        <time>2011-10-16T10:17:27Z</time>
      </trkpt>
      <trkpt lat="46.63101" lon="6.06572">
        <ele>1035</ele>
        <time>2011-10-16T10:17:28Z</time>
      </trkpt>
      <trkpt lat="46.63103" lon="6.06592">
        <ele>1035.96</ele>
        <time>2011-10-16T10:17:39Z</time>
      </trkpt>
      <trkpt lat="46.63103" lon="6.06595">
        <ele>1035.96</ele>
        <time>2011-10-16T10:17:40Z</time>
      </trkpt>
      <trkpt lat="46.63103" lon="6.06597">
        <ele>1035.96</ele>
        <time>2011-10-16T10:17:41Z</time>
      </trkpt>
      <trkpt lat="46.63103" lon="6.06599">
        <ele>1035.96</ele>
        <time>2011-10-16T10:17:42Z</time>
      </trkpt>
      <trkpt lat="46.63103" lon="6.06601">
        <ele>1035.48</ele>
        <time>2011-10-16T10:17:43Z</time>
      </trkpt>
      <trkpt lat="46.63104" lon="6.06603">
        <ele>1036.44</ele>
        <time>2011-10-16T10:17:44Z</time>
      </trkpt>
      <trkpt lat="46.63112" lon="6.06615">
        <ele>1037.4</ele>
        <time>2011-10-16T10:17:56Z</time>
      </trkpt>
      <trkpt lat="46.63123" lon="6.06619">
        <ele>1038.84</ele>
        <time>2011-10-16T10:18:07Z</time>
      </trkpt>
      <trkpt lat="46.63125" lon="6.06619">
        <ele>1039.8</ele>
        <time>2011-10-16T10:18:08Z</time>
      </trkpt>
      <trkpt lat="46.63126" lon="6.06619">
        <ele>1039.32</ele>
        <time>2011-10-16T10:18:09Z</time>
      </trkpt>
      <trkpt lat="46.63127" lon="6.0662">
        <ele>1038.84</ele>
        <time>2011-10-16T10:18:10Z</time>
      </trkpt>
      <trkpt lat="46.63129" lon="6.06621">
        <ele>1039.32</ele>
        <time>2011-10-16T10:18:11Z</time>
      </trkpt>
      <trkpt lat="46.6313" lon="6.06622">
        <ele>1039.32</ele>
        <time>2011-10-16T10:18:12Z</time>
      </trkpt>
      <trkpt lat="46.63131" lon="6.06622">
        <ele>1039.8</ele>
        <time>2011-10-16T10:18:13Z</time>
      </trkpt>
      <trkpt lat="46.63148" lon="6.06635">
        <ele>1041.73</ele>
        <time>2011-10-16T10:18:27Z</time>
      </trkpt>
      <trkpt lat="46.63152" lon="6.0665">
        <ele>1042.69</ele>
        <time>2011-10-16T10:18:36Z</time>
      </trkpt>
      <trkpt lat="46.63152" lon="6.06653">
        <ele>1042.69</ele>
        <time>2011-10-16T10:18:37Z</time>
      </trkpt>
      <trkpt lat="46.63152" lon="6.06658">
        <ele>1043.65</ele>
        <time>2011-10-16T10:18:40Z</time>
      </trkpt>
      <trkpt lat="46.63153" lon="6.0666">
        <ele>1043.17</ele>
        <time>2011-10-16T10:18:41Z</time>
      </trkpt>
      <trkpt lat="46.63154" lon="6.06661">
        <ele>1043.17</ele>
        <time>2011-10-16T10:18:42Z</time>
      </trkpt>
      <trkpt lat="46.63154" lon="6.06663">
        <ele>1043.65</ele>
        <time>2011-10-16T10:18:43Z</time>
      </trkpt>
      <trkpt lat="46.63154" lon="6.06666">
        <ele>1043.65</ele>
        <time>2011-10-16T10:18:44Z</time>
      </trkpt>
      <trkpt lat="46.63154" lon="6.06668">
        <ele>1043.65</ele>
        <time>2011-10-16T10:18:45Z</time>
      </trkpt>
      <trkpt lat="46.63156" lon="6.06678">
        <ele>1045.09</ele>
        <time>2011-10-16T10:18:50Z</time>
      </trkpt>
      <trkpt lat="46.63157" lon="6.0668">
        <ele>1045.09</ele>
        <time>2011-10-16T10:18:51Z</time>
      </trkpt>
      <trkpt lat="46.63163" lon="6.06701">
        <ele>1046.05</ele>
        <time>2011-10-16T10:19:03Z</time>
      </trkpt>
      <trkpt lat="46.63165" lon="6.06704">
        <ele>1046.05</ele>
        <time>2011-10-16T10:19:05Z</time>
      </trkpt>
      <trkpt lat="46.63166" lon="6.06705">
        <ele>1046.05</ele>
        <time>2011-10-16T10:19:06Z</time>
      </trkpt>
      <trkpt lat="46.63167" lon="6.06706">
        <ele>1046.05</ele>
        <time>2011-10-16T10:19:07Z</time>
      </trkpt>
      <trkpt lat="46.63168" lon="6.06707">
        <ele>1046.53</ele>
        <time>2011-10-16T10:19:08Z</time>
      </trkpt>
      <trkpt lat="46.6317" lon="6.06708">
        <ele>1046.53</ele>
        <time>2011-10-16T10:19:09Z</time>
      </trkpt>
      <trkpt lat="46.63178" lon="6.06711">
        <ele>1048.45</ele>
        <time>2011-10-16T10:19:16Z</time>
      </trkpt>
      <trkpt lat="46.6318" lon="6.06713">
        <ele>1047.97</ele>
        <time>2011-10-16T10:19:17Z</time>
      </trkpt>
      <trkpt lat="46.63181" lon="6.06714">
        <ele>1048.45</ele>
        <time>2011-10-16T10:19:18Z</time>
      </trkpt>
      <trkpt lat="46.63183" lon="6.06714">
        <ele>1047.97</ele>
        <time>2011-10-16T10:19:19Z</time>
      </trkpt>
      <trkpt lat="46.63184" lon="6.06715">
        <ele>1049.42</ele>
        <time>2011-10-16T10:19:20Z</time>
      </trkpt>
      <trkpt lat="46.63185" lon="6.06716">
        <ele>1048.45</ele>
        <time>2011-10-16T10:19:21Z</time>
      </trkpt>
      <trkpt lat="46.63187" lon="6.06717">
        <ele>1048.45</ele>
        <time>2011-10-16T10:19:22Z</time>
      </trkpt>
      <trkpt lat="46.63188" lon="6.06719">
        <ele>1048.45</ele>
        <time>2011-10-16T10:19:23Z</time>
      </trkpt>
      <trkpt lat="46.6319" lon="6.0672">
        <ele>1048.94</ele>
        <time>2011-10-16T10:19:24Z</time>
      </trkpt>
      <trkpt lat="46.63191" lon="6.06721">
        <ele>1049.42</ele>
        <time>2011-10-16T10:19:25Z</time>
      </trkpt>
      <trkpt lat="46.63192" lon="6.06723">
        <ele>1049.9</ele>
        <time>2011-10-16T10:19:26Z</time>
      </trkpt>
      <trkpt lat="46.63201" lon="6.06745">
        <ele>1051.34</ele>
        <time>2011-10-16T10:19:36Z</time>
      </trkpt>
      <trkpt lat="46.63211" lon="6.06772">
        <ele>1052.78</ele>
        <time>2011-10-16T10:19:49Z</time>
      </trkpt>
      <trkpt lat="46.6322" lon="6.06779">
        <ele>1052.78</ele>
        <time>2011-10-16T10:19:58Z</time>
      </trkpt>
      <trkpt lat="46.63221" lon="6.06781">
        <ele>1053.26</ele>
        <time>2011-10-16T10:19:59Z</time>
      </trkpt>
      <trkpt lat="46.63222" lon="6.06782">
        <ele>1053.26</ele>
        <time>2011-10-16T10:20:00Z</time>
      </trkpt>
      <trkpt lat="46.63228" lon="6.06788">
        <ele>1054.22</ele>
        <time>2011-10-16T10:20:06Z</time>
      </trkpt>
      <trkpt lat="46.63229" lon="6.0679">
        <ele>1054.22</ele>
        <time>2011-10-16T10:20:07Z</time>
      </trkpt>
      <trkpt lat="46.63231" lon="6.06793">
        <ele>1054.22</ele>
        <time>2011-10-16T10:20:09Z</time>
      </trkpt>
      <trkpt lat="46.63233" lon="6.06793">
        <ele>1053.74</ele>
        <time>2011-10-16T10:20:10Z</time>
      </trkpt>
      <trkpt lat="46.63234" lon="6.06794">
        <ele>1053.74</ele>
        <time>2011-10-16T10:20:11Z</time>
      </trkpt>
      <trkpt lat="46.63248" lon="6.06803">
        <ele>1054.22</ele>
        <time>2011-10-16T10:20:22Z</time>
      </trkpt>
      <trkpt lat="46.63263" lon="6.06803">
        <ele>1055.67</ele>
        <time>2011-10-16T10:20:30Z</time>
      </trkpt>
      <trkpt lat="46.63265" lon="6.06803">
        <ele>1055.67</ele>
        <time>2011-10-16T10:20:31Z</time>
      </trkpt>
      <trkpt lat="46.63268" lon="6.06802">
        <ele>1055.67</ele>
        <time>2011-10-16T10:20:33Z</time>
      </trkpt>
      <trkpt lat="46.6327" lon="6.06803">
        <ele>1056.15</ele>
        <time>2011-10-16T10:20:34Z</time>
      </trkpt>
      <trkpt lat="46.63272" lon="6.06804">
        <ele>1056.15</ele>
        <time>2011-10-16T10:20:35Z</time>
      </trkpt>
      <trkpt lat="46.63274" lon="6.06805">
        <ele>1056.15</ele>
        <time>2011-10-16T10:20:36Z</time>
      </trkpt>
      <trkpt lat="46.63277" lon="6.06805">
        <ele>1056.15</ele>
        <time>2011-10-16T10:20:37Z</time>
      </trkpt>
      <trkpt lat="46.63302" lon="6.06825">
        <ele>1058.55</ele>
        <time>2011-10-16T10:20:49Z</time>
      </trkpt>
      <trkpt lat="46.63308" lon="6.06849">
        <ele>1059.03</ele>
        <time>2011-10-16T10:20:58Z</time>
      </trkpt>
      <trkpt lat="46.63309" lon="6.06851">
        <ele>1059.03</ele>
        <time>2011-10-16T10:20:59Z</time>
      </trkpt>
      <trkpt lat="46.63309" lon="6.06853">
        <ele>1060.47</ele>
        <time>2011-10-16T10:21:00Z</time>
      </trkpt>
      <trkpt lat="46.6331" lon="6.06855">
        <ele>1059.99</ele>
        <time>2011-10-16T10:21:01Z</time>
      </trkpt>
      <trkpt lat="46.63311" lon="6.06857">
        <ele>1059.99</ele>
        <time>2011-10-16T10:21:02Z</time>
      </trkpt>
      <trkpt lat="46.63312" lon="6.06862">
        <ele>1060.47</ele>
        <time>2011-10-16T10:21:04Z</time>
      </trkpt>
      <trkpt lat="46.63312" lon="6.06864">
        <ele>1060.47</ele>
        <time>2011-10-16T10:21:05Z</time>
      </trkpt>
      <trkpt lat="46.63312" lon="6.06867">
        <ele>1060.47</ele>
        <time>2011-10-16T10:21:06Z</time>
      </trkpt>
      <trkpt lat="46.63313" lon="6.06871">
        <ele>1059.99</ele>
        <time>2011-10-16T10:21:07Z</time>
      </trkpt>
      <trkpt lat="46.63313" lon="6.06874">
        <ele>1061.43</ele>
        <time>2011-10-16T10:21:08Z</time>
      </trkpt>
      <trkpt lat="46.63313" lon="6.06876">
        <ele>1060.95</ele>
        <time>2011-10-16T10:21:09Z</time>
      </trkpt>
      <trkpt lat="46.63313" lon="6.06879">
        <ele>1061.43</ele>
        <time>2011-10-16T10:21:10Z</time>
      </trkpt>
      <trkpt lat="46.63313" lon="6.06882">
        <ele>1060.95</ele>
        <time>2011-10-16T10:21:11Z</time>
      </trkpt>
      <trkpt lat="46.63312" lon="6.06919">
        <ele>1062.87</ele>
        <time>2011-10-16T10:21:23Z</time>
      </trkpt>
      <trkpt lat="46.63314" lon="6.06959">
        <ele>1064.32</ele>
        <time>2011-10-16T10:21:38Z</time>
      </trkpt>
      <trkpt lat="46.63326" lon="6.06987">
        <ele>1065.76</ele>
        <time>2011-10-16T10:21:51Z</time>
      </trkpt>
      <trkpt lat="46.63341" lon="6.07008">
        <ele>1067.68</ele>
        <time>2011-10-16T10:22:03Z</time>
      </trkpt>
      <trkpt lat="46.63342" lon="6.0701">
        <ele>1067.2</ele>
        <time>2011-10-16T10:22:04Z</time>
      </trkpt>
      <trkpt lat="46.63343" lon="6.07013">
        <ele>1067.68</ele>
        <time>2011-10-16T10:22:05Z</time>
      </trkpt>
      <trkpt lat="46.63344" lon="6.07016">
        <ele>1068.16</ele>
        <time>2011-10-16T10:22:06Z</time>
      </trkpt>
      <trkpt lat="46.63345" lon="6.07018">
        <ele>1068.16</ele>
        <time>2011-10-16T10:22:07Z</time>
      </trkpt>
      <trkpt lat="46.63347" lon="6.07021">
        <ele>1067.2</ele>
        <time>2011-10-16T10:22:08Z</time>
      </trkpt>
      <trkpt lat="46.63348" lon="6.07023">
        <ele>1068.16</ele>
        <time>2011-10-16T10:22:09Z</time>
      </trkpt>
      <trkpt lat="46.6336" lon="6.0705">
        <ele>1068.64</ele>
        <time>2011-10-16T10:22:21Z</time>
      </trkpt>
      <trkpt lat="46.63376" lon="6.07073">
        <ele>1069.12</ele>
        <time>2011-10-16T10:22:31Z</time>
      </trkpt>
      <trkpt lat="46.63396" lon="6.07085">
        <ele>1060.47</ele>
        <time>2011-10-16T10:22:40Z</time>
      </trkpt>
      <trkpt lat="46.63398" lon="6.07086">
        <ele>1070.57</ele>
        <time>2011-10-16T10:22:41Z</time>
      </trkpt>
      <trkpt lat="46.63414" lon="6.07125">
        <ele>1072.97</ele>
        <time>2011-10-16T10:22:55Z</time>
      </trkpt>
      <trkpt lat="46.6343" lon="6.07152">
        <ele>1073.45</ele>
        <time>2011-10-16T10:23:06Z</time>
      </trkpt>
      <trkpt lat="46.63429" lon="6.07155">
        <ele>1070.38671875</ele>
      </trkpt>
      <trkpt lat="46.63431" lon="6.07162">
        <ele>1070.78515625</ele>
      </trkpt>
      <trkpt lat="46.63435" lon="6.07168">
        <ele>1071.2265625</ele>
      </trkpt>
      <trkpt lat="46.63438" lon="6.07173">
        <ele>1071.5625</ele>
      </trkpt>
      <trkpt lat="46.63443" lon="6.07177">
        <ele>1071.69921875</ele>
      </trkpt>
      <trkpt lat="46.63447" lon="6.07181">
        <ele>1071.7890625</ele>
      </trkpt>
      <trkpt lat="46.63452" lon="6.07185">
        <ele>1071.8359375</ele>
      </trkpt>
      <trkpt lat="46.63455" lon="6.07189">
        <ele>1071.984375</ele>
      </trkpt>
      <trkpt lat="46.63459" lon="6.07193">
        <ele>1072.1484375</ele>
      </trkpt>
      <trkpt lat="46.63463" lon="6.07197">
        <ele>1072.30859375</ele>
      </trkpt>
      <trkpt lat="46.63466" lon="6.07201">
        <ele>1072.50390625</ele>
      </trkpt>
      <trkpt lat="46.6347" lon="6.07204">
        <ele>1072.69921875</ele>
      </trkpt>
      <trkpt lat="46.63474" lon="6.07207">
        <ele>1072.67578125</ele>
      </trkpt>
      <trkpt lat="46.63477" lon="6.07212">
        <ele>1072.9765625</ele>
      </trkpt>
      <trkpt lat="46.63479" lon="6.07216">
        <ele>1073.25</ele>
      </trkpt>
      <trkpt lat="46.6348" lon="6.07222">
        <ele>1078.26</ele>
        <time>2011-10-16T10:24:01Z</time>
      </trkpt>
      <trkpt lat="46.63482" lon="6.07223">
        <ele>1077.78</ele>
        <time>2011-10-16T10:24:02Z</time>
      </trkpt>
      <trkpt lat="46.63484" lon="6.07226">
        <ele>1078.26</ele>
        <time>2011-10-16T10:24:03Z</time>
      </trkpt>
      <trkpt lat="46.63485" lon="6.07228">
        <ele>1077.78</ele>
        <time>2011-10-16T10:24:04Z</time>
      </trkpt>
      <trkpt lat="46.63487" lon="6.0723">
        <ele>1078.74</ele>
        <time>2011-10-16T10:24:05Z</time>
      </trkpt>
      <trkpt lat="46.63488" lon="6.07232">
        <ele>1079.22</ele>
        <time>2011-10-16T10:24:06Z</time>
      </trkpt>
      <trkpt lat="46.63489" lon="6.07235">
        <ele>1078.74</ele>
        <time>2011-10-16T10:24:07Z</time>
      </trkpt>
      <trkpt lat="46.6349" lon="6.07237">
        <ele>1078.26</ele>
        <time>2011-10-16T10:24:08Z</time>
      </trkpt>
      <trkpt lat="46.63506" lon="6.07271">
        <ele>1080.18</ele>
        <time>2011-10-16T10:24:22Z</time>
      </trkpt>
      <trkpt lat="46.63516" lon="6.07294">
        <ele>1082.58</ele>
        <time>2011-10-16T10:24:32Z</time>
      </trkpt>
      <trkpt lat="46.63517" lon="6.07296">
        <ele>1082.1</ele>
        <time>2011-10-16T10:24:33Z</time>
      </trkpt>
      <trkpt lat="46.63518" lon="6.07298">
        <ele>1082.58</ele>
        <time>2011-10-16T10:24:34Z</time>
      </trkpt>
      <trkpt lat="46.63522" lon="6.07308">
        <ele>1069.12</ele>
        <time>2011-10-16T10:24:38Z</time>
      </trkpt>
      <trkpt lat="46.63523" lon="6.07311">
        <ele>1082.1</ele>
        <time>2011-10-16T10:24:39Z</time>
      </trkpt>
      <trkpt lat="46.63529" lon="6.07346">
        <ele>1083.06</ele>
        <time>2011-10-16T10:24:51Z</time>
      </trkpt>
      <trkpt lat="46.63525" lon="6.07365">
        <ele>1084.02</ele>
        <time>2011-10-16T10:24:57Z</time>
      </trkpt>
      <trkpt lat="46.63523" lon="6.07367">
        <ele>1084.02</ele>
        <time>2011-10-16T10:24:58Z</time>
      </trkpt>
      <trkpt lat="46.63522" lon="6.0737">
        <ele>1083.54</ele>
        <time>2011-10-16T10:24:59Z</time>
      </trkpt>
      <trkpt lat="46.63521" lon="6.07373">
        <ele>1084.5</ele>
        <time>2011-10-16T10:25:00Z</time>
      </trkpt>
      <trkpt lat="46.6352" lon="6.07376">
        <ele>1084.02</ele>
        <time>2011-10-16T10:25:01Z</time>
      </trkpt>
      <trkpt lat="46.63519" lon="6.07379">
        <ele>1084.02</ele>
        <time>2011-10-16T10:25:02Z</time>
      </trkpt>
      <trkpt lat="46.63518" lon="6.07382">
        <ele>1085.47</ele>
        <time>2011-10-16T10:25:03Z</time>
      </trkpt>
      <trkpt lat="46.63518" lon="6.07384">
        <ele>1085.47</ele>
        <time>2011-10-16T10:25:04Z</time>
      </trkpt>
      <trkpt lat="46.63512" lon="6.07404">
        <ele>1086.91</ele>
        <time>2011-10-16T10:25:12Z</time>
      </trkpt>
      <trkpt lat="46.63508" lon="6.07418">
        <ele>1077.78</ele>
        <time>2011-10-16T10:25:17Z</time>
      </trkpt>
      <trkpt lat="46.63508" lon="6.0742">
        <ele>1086.91</ele>
        <time>2011-10-16T10:25:18Z</time>
      </trkpt>
      <trkpt lat="46.63501" lon="6.07439">
        <ele>1087.87</ele>
        <time>2011-10-16T10:25:25Z</time>
      </trkpt>
      <trkpt lat="46.63499" lon="6.07442">
        <ele>1087.87</ele>
        <time>2011-10-16T10:25:26Z</time>
      </trkpt>
      <trkpt lat="46.63498" lon="6.07446">
        <ele>1087.39</ele>
        <time>2011-10-16T10:25:27Z</time>
      </trkpt>
      <trkpt lat="46.63497" lon="6.07449">
        <ele>1086.91</ele>
        <time>2011-10-16T10:25:28Z</time>
      </trkpt>
      <trkpt lat="46.63496" lon="6.07451">
        <ele>1086.91</ele>
        <time>2011-10-16T10:25:29Z</time>
      </trkpt>
      <trkpt lat="46.63495" lon="6.07454">
        <ele>1087.39</ele>
        <time>2011-10-16T10:25:30Z</time>
      </trkpt>
      <trkpt lat="46.63494" lon="6.07458">
        <ele>1088.35</ele>
        <time>2011-10-16T10:25:31Z</time>
      </trkpt>
      <trkpt lat="46.6348" lon="6.07495">
        <ele>1089.31</ele>
        <time>2011-10-16T10:25:44Z</time>
      </trkpt>
      <trkpt lat="46.63479" lon="6.07497">
        <ele>1089.31</ele>
        <time>2011-10-16T10:25:45Z</time>
      </trkpt>
      <trkpt lat="46.63479" lon="6.075">
        <ele>1089.79</ele>
        <time>2011-10-16T10:25:47Z</time>
      </trkpt>
      <trkpt lat="46.63479" lon="6.07502">
        <ele>1090.27</ele>
        <time>2011-10-16T10:25:48Z</time>
      </trkpt>
      <trkpt lat="46.63478" lon="6.07504">
        <ele>1090.27</ele>
        <time>2011-10-16T10:25:49Z</time>
      </trkpt>
      <trkpt lat="46.63477" lon="6.07506">
        <ele>1090.27</ele>
        <time>2011-10-16T10:25:50Z</time>
      </trkpt>
      <trkpt lat="46.63476" lon="6.07509">
        <ele>1090.75</ele>
        <time>2011-10-16T10:25:51Z</time>
      </trkpt>
      <trkpt lat="46.63474" lon="6.07512">
        <ele>1090.75</ele>
        <time>2011-10-16T10:25:52Z</time>
      </trkpt>
      <trkpt lat="46.63472" lon="6.07515">
        <ele>1090.75</ele>
        <time>2011-10-16T10:25:53Z</time>
      </trkpt>
      <trkpt lat="46.6347" lon="6.07518">
        <ele>1090.75</ele>
        <time>2011-10-16T10:25:54Z</time>
      </trkpt>
      <trkpt lat="46.63469" lon="6.07521">
        <ele>1090.75</ele>
        <time>2011-10-16T10:25:55Z</time>
      </trkpt>
      <trkpt lat="46.63467" lon="6.07524">
        <ele>1091.23</ele>
        <time>2011-10-16T10:25:56Z</time>
      </trkpt>
      <trkpt lat="46.63467" lon="6.07526">
        <ele>1091.23</ele>
        <time>2011-10-16T10:25:57Z</time>
      </trkpt>
      <trkpt lat="46.63466" lon="6.07529">
        <ele>1091.71</ele>
        <time>2011-10-16T10:25:58Z</time>
      </trkpt>
      <trkpt lat="46.63466" lon="6.07532">
        <ele>1091.71</ele>
        <time>2011-10-16T10:25:59Z</time>
      </trkpt>
      <trkpt lat="46.63465" lon="6.07534">
        <ele>1092.2</ele>
        <time>2011-10-16T10:26:00Z</time>
      </trkpt>
      <trkpt lat="46.63464" lon="6.07536">
        <ele>1092.2</ele>
        <time>2011-10-16T10:26:01Z</time>
      </trkpt>
      <trkpt lat="46.63464" lon="6.07538">
        <ele>1092.68</ele>
        <time>2011-10-16T10:26:02Z</time>
      </trkpt>
      <trkpt lat="46.63464" lon="6.0754">
        <ele>1092.2</ele>
        <time>2011-10-16T10:26:03Z</time>
      </trkpt>
      <trkpt lat="46.63463" lon="6.07548">
        <ele>1090.75</ele>
        <time>2011-10-16T10:26:08Z</time>
      </trkpt>
      <trkpt lat="46.63463" lon="6.0755">
        <ele>1079.22</ele>
        <time>2011-10-16T10:26:09Z</time>
      </trkpt>
      <trkpt lat="46.63463" lon="6.07553">
        <ele>1090.75</ele>
        <time>2011-10-16T10:26:10Z</time>
      </trkpt>
      <trkpt lat="46.63463" lon="6.07557">
        <ele>1091.23</ele>
        <time>2011-10-16T10:26:11Z</time>
      </trkpt>
      <trkpt lat="46.63463" lon="6.07561">
        <ele>1089.79</ele>
        <time>2011-10-16T10:26:12Z</time>
      </trkpt>
      <trkpt lat="46.63462" lon="6.07567">
        <ele>1089.79</ele>
        <time>2011-10-16T10:26:13Z</time>
      </trkpt>
      <trkpt lat="46.6346" lon="6.07573">
        <ele>1089.31</ele>
        <time>2011-10-16T10:26:14Z</time>
      </trkpt>
      <trkpt lat="46.63451" lon="6.07631">
        <ele>1087.39</ele>
        <time>2011-10-16T10:26:24Z</time>
      </trkpt>
      <trkpt lat="46.63449" lon="6.07675">
        <ele>1086.43</ele>
        <time>2011-10-16T10:26:30Z</time>
      </trkpt>
      <trkpt lat="46.63449" lon="6.07685">
        <ele>1085.95</ele>
        <time>2011-10-16T10:26:31Z</time>
      </trkpt>
      <trkpt lat="46.6345" lon="6.07693">
        <ele>1085.95</ele>
        <time>2011-10-16T10:26:32Z</time>
      </trkpt>
      <trkpt lat="46.63453" lon="6.07701">
        <ele>1085.47</ele>
        <time>2011-10-16T10:26:33Z</time>
      </trkpt>
      <trkpt lat="46.63456" lon="6.07706">
        <ele>1084.5</ele>
        <time>2011-10-16T10:26:34Z</time>
      </trkpt>
      <trkpt lat="46.6346" lon="6.07711">
        <ele>1084.5</ele>
        <time>2011-10-16T10:26:35Z</time>
      </trkpt>
      <trkpt lat="46.63464" lon="6.07716">
        <ele>1084.99</ele>
        <time>2011-10-16T10:26:36Z</time>
      </trkpt>
      <trkpt lat="46.63468" lon="6.07719">
        <ele>1084.02</ele>
        <time>2011-10-16T10:26:37Z</time>
      </trkpt>
      <trkpt lat="46.63472" lon="6.07722">
        <ele>1083.06</ele>
        <time>2011-10-16T10:26:38Z</time>
      </trkpt>
      <trkpt lat="46.63477" lon="6.07725">
        <ele>1084.02</ele>
        <time>2011-10-16T10:26:39Z</time>
      </trkpt>
      <trkpt lat="46.63486" lon="6.07734">
        <ele>1085.47</ele>
        <time>2011-10-16T10:26:41Z</time>
      </trkpt>
      <trkpt lat="46.63489" lon="6.0774">
        <ele>1082.58</ele>
        <time>2011-10-16T10:26:42Z</time>
      </trkpt>
      <trkpt lat="46.63492" lon="6.07746">
        <ele>1082.58</ele>
        <time>2011-10-16T10:26:43Z</time>
      </trkpt>
      <trkpt lat="46.63494" lon="6.07755">
        <ele>1080.66</ele>
        <time>2011-10-16T10:26:44Z</time>
      </trkpt>
      <trkpt lat="46.63495" lon="6.07765">
        <ele>1081.62</ele>
        <time>2011-10-16T10:26:45Z</time>
      </trkpt>
      <trkpt lat="46.63496" lon="6.07774">
        <ele>1081.62</ele>
        <time>2011-10-16T10:26:46Z</time>
      </trkpt>
      <trkpt lat="46.63496" lon="6.07783">
        <ele>1081.14</ele>
        <time>2011-10-16T10:26:47Z</time>
      </trkpt>
      <trkpt lat="46.63497" lon="6.0779">
        <ele>1080.18</ele>
        <time>2011-10-16T10:26:48Z</time>
      </trkpt>
      <trkpt lat="46.63497" lon="6.07795">
        <ele>1080.66</ele>
        <time>2011-10-16T10:26:49Z</time>
      </trkpt>
      <trkpt lat="46.63498" lon="6.07799">
        <ele>1080.18</ele>
        <time>2011-10-16T10:26:58Z</time>
      </trkpt>
      <trkpt lat="46.63499" lon="6.078">
        <ele>1078.26</ele>
        <time>2011-10-16T10:27:45Z</time>
      </trkpt>
      <trkpt lat="46.63499" lon="6.078">
        <ele>1072.97</ele>
        <time>2011-10-16T10:27:59Z</time>
      </trkpt>
      <trkpt lat="46.63499" lon="6.078">
        <ele>1079.22</ele>
        <time>2011-10-16T10:28:00Z</time>
      </trkpt>
      <trkpt lat="46.63499" lon="6.078">
        <ele>1085.95</ele>
        <time>2011-10-16T10:28:08Z</time>
      </trkpt>
      <trkpt lat="46.63499" lon="6.078">
        <ele>1080.18</ele>
        <time>2011-10-16T10:28:09Z</time>
      </trkpt>
      <trkpt lat="46.63499" lon="6.078">
        <ele>1084.5</ele>
        <time>2011-10-16T10:28:10Z</time>
      </trkpt>
      <trkpt lat="46.63499" lon="6.07801">
        <ele>1081.14</ele>
        <time>2011-10-16T10:28:11Z</time>
      </trkpt>
      <trkpt lat="46.63499" lon="6.07801">
        <ele>1087.87</ele>
        <time>2011-10-16T10:28:13Z</time>
      </trkpt>
      <trkpt lat="46.63499" lon="6.07801">
        <ele>1079.7</ele>
        <time>2011-10-16T10:28:14Z</time>
      </trkpt>
      <trkpt lat="46.63499" lon="6.07801">
        <ele>1079.7</ele>
        <time>2011-10-16T10:28:15Z</time>
      </trkpt>
      <trkpt lat="46.63499" lon="6.07801">
        <ele>1086.43</ele>
        <time>2011-10-16T10:28:16Z</time>
      </trkpt>
      <trkpt lat="46.63499" lon="6.07801">
        <ele>1075.85</ele>
        <time>2011-10-16T10:28:17Z</time>
      </trkpt>
      <trkpt lat="46.63499" lon="6.07801">
        <ele>1086.43</ele>
        <time>2011-10-16T10:28:18Z</time>
      </trkpt>
      <trkpt lat="46.63499" lon="6.07801">
        <ele>1078.74</ele>
        <time>2011-10-16T10:28:19Z</time>
      </trkpt>
      <trkpt lat="46.63499" lon="6.07801">
        <ele>1082.1</ele>
        <time>2011-10-16T10:28:20Z</time>
      </trkpt>
      <trkpt lat="46.63499" lon="6.07801">
        <ele>1076.33</ele>
        <time>2011-10-16T10:28:21Z</time>
      </trkpt>
      <trkpt lat="46.63499" lon="6.07801">
        <ele>1065.76</ele>
        <time>2011-10-16T10:28:22Z</time>
      </trkpt>
      <trkpt lat="46.63499" lon="6.07801">
        <ele>1080.66</ele>
        <time>2011-10-16T10:28:23Z</time>
      </trkpt>
      <trkpt lat="46.63499" lon="6.07801">
        <ele>1086.91</ele>
        <time>2011-10-16T10:28:25Z</time>
      </trkpt>
      <trkpt lat="46.63499" lon="6.07801">
        <ele>1081.14</ele>
        <time>2011-10-16T10:28:26Z</time>
      </trkpt>
      <trkpt lat="46.63499" lon="6.07801">
        <ele>1092.2</ele>
        <time>2011-10-16T10:28:28Z</time>
      </trkpt>
      <trkpt lat="46.63499" lon="6.07801">
        <ele>1082.1</ele>
        <time>2011-10-16T10:28:29Z</time>
      </trkpt>
      <trkpt lat="46.63499" lon="6.07801">
        <ele>1079.7</ele>
        <time>2011-10-16T10:28:31Z</time>
      </trkpt>
      <trkpt lat="46.63499" lon="6.07801">
        <ele>1083.54</ele>
        <time>2011-10-16T10:28:33Z</time>
      </trkpt>
      <trkpt lat="46.63499" lon="6.07801">
        <ele>1080.18</ele>
        <time>2011-10-16T10:28:34Z</time>
      </trkpt>
      <trkpt lat="46.63499" lon="6.07801">
        <ele>1077.29</ele>
        <time>2011-10-16T10:29:03Z</time>
      </trkpt>
      <trkpt lat="46.63499" lon="6.07801">
        <ele>1080.18</ele>
        <time>2011-10-16T10:29:07Z</time>
      </trkpt>
      <trkpt lat="46.63499" lon="6.07801">
        <ele>1076.33</ele>
        <time>2011-10-16T10:29:11Z</time>
      </trkpt>
      <trkpt lat="46.63499" lon="6.07801">
        <ele>1079.7</ele>
        <time>2011-10-16T10:29:14Z</time>
      </trkpt>
      <trkpt lat="46.63499" lon="6.07801">
        <ele>1075.85</ele>
        <time>2011-10-16T10:29:27Z</time>
      </trkpt>
      <trkpt lat="46.63499" lon="6.07801">
        <ele>1078.26</ele>
        <time>2011-10-16T10:29:29Z</time>
      </trkpt>
      <trkpt lat="46.63499" lon="6.07803">
        <ele>1078.26</ele>
        <time>2011-10-16T10:29:33Z</time>
      </trkpt>
      <trkpt lat="46.63499" lon="6.07803">
        <ele>1079.22</ele>
        <time>2011-10-16T10:29:35Z</time>
      </trkpt>
      <trkpt lat="46.635" lon="6.07804">
        <ele>1078.74</ele>
        <time>2011-10-16T10:29:44Z</time>
      </trkpt>
      <trkpt lat="46.63502" lon="6.07804">
        <ele>1079.7</ele>
        <time>2011-10-16T10:29:45Z</time>
      </trkpt>
      <trkpt lat="46.63503" lon="6.07805">
        <ele>1078.74</ele>
        <time>2011-10-16T10:29:46Z</time>
      </trkpt>
      <trkpt lat="46.63507" lon="6.0781">
        <ele>1077.78</ele>
        <time>2011-10-16T10:29:56Z</time>
      </trkpt>
      <trkpt lat="46.63512" lon="6.07812">
        <ele>1077.29</ele>
        <time>2011-10-16T10:30:11Z</time>
      </trkpt>
      <trkpt lat="46.63514" lon="6.07814">
        <ele>1077.29</ele>
        <time>2011-10-16T10:30:12Z</time>
      </trkpt>
      <trkpt lat="46.63531" lon="6.07824">
        <ele>1077.29</ele>
        <time>2011-10-16T10:30:18Z</time>
      </trkpt>
      <trkpt lat="46.63533" lon="6.07824">
        <ele>1076.81</ele>
        <time>2011-10-16T10:30:19Z</time>
      </trkpt>
      <trkpt lat="46.63534" lon="6.07824">
        <ele>1077.29</ele>
        <time>2011-10-16T10:30:20Z</time>
      </trkpt>
      <trkpt lat="46.63535" lon="6.07825">
        <ele>1076.81</ele>
        <time>2011-10-16T10:30:21Z</time>
      </trkpt>
      <trkpt lat="46.63536" lon="6.07826">
        <ele>1076.33</ele>
        <time>2011-10-16T10:30:22Z</time>
      </trkpt>
      <trkpt lat="46.63552" lon="6.07836">
        <ele>1075.37</ele>
        <time>2011-10-16T10:30:30Z</time>
      </trkpt>
      <trkpt lat="46.63555" lon="6.07836">
        <ele>1075.37</ele>
        <time>2011-10-16T10:30:31Z</time>
      </trkpt>
      <trkpt lat="46.63557" lon="6.07835">
        <ele>1076.81</ele>
        <time>2011-10-16T10:30:32Z</time>
      </trkpt>
      <trkpt lat="46.6357" lon="6.07824">
        <ele>1078.26</ele>
        <time>2011-10-16T10:30:43Z</time>
      </trkpt>
      <trkpt lat="46.6357" lon="6.07819">
        <ele>1077.29</ele>
        <time>2011-10-16T10:30:46Z</time>
      </trkpt>
      <trkpt lat="46.63571" lon="6.07817">
        <ele>1078.74</ele>
        <time>2011-10-16T10:30:47Z</time>
      </trkpt>
      <trkpt lat="46.63572" lon="6.07812">
        <ele>1077.78</ele>
        <time>2011-10-16T10:30:48Z</time>
      </trkpt>
      <trkpt lat="46.63575" lon="6.07803">
        <ele>1076.33</ele>
        <time>2011-10-16T10:30:50Z</time>
      </trkpt>
      <trkpt lat="46.63582" lon="6.07783">
        <ele>1073.93</ele>
        <time>2011-10-16T10:30:59Z</time>
      </trkpt>
      <trkpt lat="46.63596" lon="6.0774">
        <ele>1071.05</ele>
        <time>2011-10-16T10:31:10Z</time>
      </trkpt>
      <trkpt lat="46.63611" lon="6.07697">
        <ele>1068.16</ele>
        <time>2011-10-16T10:31:18Z</time>
      </trkpt>
      <trkpt lat="46.63614" lon="6.07687">
        <ele>1071.05</ele>
        <time>2011-10-16T10:31:20Z</time>
      </trkpt>
      <trkpt lat="46.63617" lon="6.07683">
        <ele>1067.2</ele>
        <time>2011-10-16T10:31:21Z</time>
      </trkpt>
      <trkpt lat="46.63619" lon="6.07678">
        <ele>1064.8</ele>
        <time>2011-10-16T10:31:22Z</time>
      </trkpt>
      <trkpt lat="46.6362" lon="6.07674">
        <ele>1064.8</ele>
        <time>2011-10-16T10:31:23Z</time>
      </trkpt>
      <trkpt lat="46.63632" lon="6.07642">
        <ele>1060.47</ele>
        <time>2011-10-16T10:31:31Z</time>
      </trkpt>
      <trkpt lat="46.63635" lon="6.07639">
        <ele>1059.99</ele>
        <time>2011-10-16T10:31:32Z</time>
      </trkpt>
      <trkpt lat="46.63638" lon="6.07636">
        <ele>1059.03</ele>
        <time>2011-10-16T10:31:33Z</time>
      </trkpt>
      <trkpt lat="46.63642" lon="6.07634">
        <ele>1059.51</ele>
        <time>2011-10-16T10:31:34Z</time>
      </trkpt>
      <trkpt lat="46.63646" lon="6.07632">
        <ele>1059.99</ele>
        <time>2011-10-16T10:31:35Z</time>
      </trkpt>
      <trkpt lat="46.63652" lon="6.07626">
        <ele>1059.51</ele>
        <time>2011-10-16T10:31:36Z</time>
      </trkpt>
      <trkpt lat="46.63656" lon="6.07623">
        <ele>1058.55</ele>
        <time>2011-10-16T10:31:37Z</time>
      </trkpt>
      <trkpt lat="46.6366" lon="6.07618">
        <ele>1057.59</ele>
        <time>2011-10-16T10:31:38Z</time>
      </trkpt>
      <trkpt lat="46.63664" lon="6.07614">
        <ele>1055.67</ele>
        <time>2011-10-16T10:31:39Z</time>
      </trkpt>
      <trkpt lat="46.63669" lon="6.07611">
        <ele>1055.67</ele>
        <time>2011-10-16T10:31:40Z</time>
      </trkpt>
      <trkpt lat="46.63673" lon="6.07611">
        <ele>1055.18</ele>
        <time>2011-10-16T10:31:41Z</time>
      </trkpt>
      <trkpt lat="46.63676" lon="6.07611">
        <ele>1053.26</ele>
        <time>2011-10-16T10:31:42Z</time>
      </trkpt>
      <trkpt lat="46.63683" lon="6.0761">
        <ele>1051.82</ele>
        <time>2011-10-16T10:31:44Z</time>
      </trkpt>
      <trkpt lat="46.63689" lon="6.0761">
        <ele>1050.38</ele>
        <time>2011-10-16T10:31:45Z</time>
      </trkpt>
      <trkpt lat="46.63695" lon="6.07608">
        <ele>1050.86</ele>
        <time>2011-10-16T10:31:46Z</time>
      </trkpt>
      <trkpt lat="46.63699" lon="6.07608">
        <ele>1049.9</ele>
        <time>2011-10-16T10:31:47Z</time>
      </trkpt>
      <trkpt lat="46.63704" lon="6.07609">
        <ele>1049.42</ele>
        <time>2011-10-16T10:31:48Z</time>
      </trkpt>
      <trkpt lat="46.63709" lon="6.0761">
        <ele>1048.94</ele>
        <time>2011-10-16T10:31:49Z</time>
      </trkpt>
      <trkpt lat="46.63713" lon="6.07611">
        <ele>1048.94</ele>
        <time>2011-10-16T10:31:50Z</time>
      </trkpt>
      <trkpt lat="46.63716" lon="6.07613">
        <ele>1048.45</ele>
        <time>2011-10-16T10:31:51Z</time>
      </trkpt>
      <trkpt lat="46.63719" lon="6.07614">
        <ele>1049.42</ele>
        <time>2011-10-16T10:31:52Z</time>
      </trkpt>
      <trkpt lat="46.63722" lon="6.07616">
        <ele>1048.94</ele>
        <time>2011-10-16T10:31:53Z</time>
      </trkpt>
      <trkpt lat="46.63747" lon="6.07621">
        <ele>1047.01</ele>
        <time>2011-10-16T10:31:58Z</time>
      </trkpt>
      <trkpt lat="46.63749" lon="6.07623">
        <ele>1047.49</ele>
        <time>2011-10-16T10:31:59Z</time>
      </trkpt>
      <trkpt lat="46.63752" lon="6.07625">
        <ele>1047.01</ele>
        <time>2011-10-16T10:32:00Z</time>
      </trkpt>
      <trkpt lat="46.63758" lon="6.07633">
        <ele>1046.53</ele>
        <time>2011-10-16T10:32:03Z</time>
      </trkpt>
      <trkpt lat="46.63771" lon="6.07644">
        <ele>1043.65</ele>
        <time>2011-10-16T10:32:07Z</time>
      </trkpt>
      <trkpt lat="46.63778" lon="6.07648">
        <ele>1042.21</ele>
        <time>2011-10-16T10:32:09Z</time>
      </trkpt>
      <trkpt lat="46.63782" lon="6.07651">
        <ele>1042.21</ele>
        <time>2011-10-16T10:32:10Z</time>
      </trkpt>
      <trkpt lat="46.63785" lon="6.07652">
        <ele>1041.25</ele>
        <time>2011-10-16T10:32:11Z</time>
      </trkpt>
      <trkpt lat="46.63789" lon="6.07651">
        <ele>1041.25</ele>
        <time>2011-10-16T10:32:12Z</time>
      </trkpt>
      <trkpt lat="46.63792" lon="6.0765">
        <ele>1040.76</ele>
        <time>2011-10-16T10:32:13Z</time>
      </trkpt>
      <trkpt lat="46.63794" lon="6.0765">
        <ele>1041.73</ele>
        <time>2011-10-16T10:32:14Z</time>
      </trkpt>
      <trkpt lat="46.6381" lon="6.07638">
        <ele>1034.04</ele>
        <time>2011-10-16T10:32:23Z</time>
      </trkpt>
      <trkpt lat="46.63812" lon="6.07637">
        <ele>1040.76</ele>
        <time>2011-10-16T10:32:24Z</time>
      </trkpt>
      <trkpt lat="46.63818" lon="6.07634">
        <ele>1039.8</ele>
        <time>2011-10-16T10:32:29Z</time>
      </trkpt>
      <trkpt lat="46.6382" lon="6.07634">
        <ele>1039.8</ele>
        <time>2011-10-16T10:32:30Z</time>
      </trkpt>
      <trkpt lat="46.6384" lon="6.07649">
        <ele>1040.76</ele>
        <time>2011-10-16T10:32:42Z</time>
      </trkpt>
      <trkpt lat="46.63856" lon="6.07669">
        <ele>1042.21</ele>
        <time>2011-10-16T10:32:55Z</time>
      </trkpt>
      <trkpt lat="46.63865" lon="6.07688">
        <ele>1044.61</ele>
        <time>2011-10-16T10:33:06Z</time>
      </trkpt>
      <trkpt lat="46.63866" lon="6.07691">
        <ele>1044.61</ele>
        <time>2011-10-16T10:33:07Z</time>
      </trkpt>
      <trkpt lat="46.63866" lon="6.07693">
        <ele>1044.13</ele>
        <time>2011-10-16T10:33:08Z</time>
      </trkpt>
      <trkpt lat="46.63867" lon="6.07695">
        <ele>1045.09</ele>
        <time>2011-10-16T10:33:09Z</time>
      </trkpt>
      <trkpt lat="46.63868" lon="6.07698">
        <ele>1045.09</ele>
        <time>2011-10-16T10:33:10Z</time>
      </trkpt>
      <trkpt lat="46.63869" lon="6.07699">
        <ele>1045.09</ele>
        <time>2011-10-16T10:33:11Z</time>
      </trkpt>
      <trkpt lat="46.63871" lon="6.07701">
        <ele>1045.57</ele>
        <time>2011-10-16T10:33:12Z</time>
      </trkpt>
      <trkpt lat="46.63871" lon="6.07704">
        <ele>1045.09</ele>
        <time>2011-10-16T10:33:13Z</time>
      </trkpt>
      <trkpt lat="46.63872" lon="6.07706">
        <ele>1044.61</ele>
        <time>2011-10-16T10:33:14Z</time>
      </trkpt>
      <trkpt lat="46.63872" lon="6.07709">
        <ele>1045.09</ele>
        <time>2011-10-16T10:33:15Z</time>
      </trkpt>
      <trkpt lat="46.63873" lon="6.07712">
        <ele>1045.09</ele>
        <time>2011-10-16T10:33:16Z</time>
      </trkpt>
      <trkpt lat="46.63874" lon="6.07714">
        <ele>1044.61</ele>
        <time>2011-10-16T10:33:17Z</time>
      </trkpt>
      <trkpt lat="46.63876" lon="6.07716">
        <ele>1044.61</ele>
        <time>2011-10-16T10:33:18Z</time>
      </trkpt>
      <trkpt lat="46.63877" lon="6.07718">
        <ele>1044.61</ele>
        <time>2011-10-16T10:33:19Z</time>
      </trkpt>
      <trkpt lat="46.63878" lon="6.0772">
        <ele>1044.61</ele>
        <time>2011-10-16T10:33:20Z</time>
      </trkpt>
      <trkpt lat="46.63879" lon="6.07721">
        <ele>1045.09</ele>
        <time>2011-10-16T10:33:21Z</time>
      </trkpt>
      <trkpt lat="46.6388" lon="6.07722">
        <ele>1045.57</ele>
        <time>2011-10-16T10:33:22Z</time>
      </trkpt>
      <trkpt lat="46.63881" lon="6.07723">
        <ele>1045.57</ele>
        <time>2011-10-16T10:33:23Z</time>
      </trkpt>
      <trkpt lat="46.63882" lon="6.07725">
        <ele>1045.09</ele>
        <time>2011-10-16T10:33:24Z</time>
      </trkpt>
      <trkpt lat="46.63883" lon="6.07727">
        <ele>1043.65</ele>
        <time>2011-10-16T10:33:25Z</time>
      </trkpt>
      <trkpt lat="46.63893" lon="6.07747">
        <ele>1047.01</ele>
        <time>2011-10-16T10:33:36Z</time>
      </trkpt>
      <trkpt lat="46.63895" lon="6.07752">
        <ele>1047.49</ele>
        <time>2011-10-16T10:33:38Z</time>
      </trkpt>
      <trkpt lat="46.63895" lon="6.07758">
        <ele>1047.01</ele>
        <time>2011-10-16T10:33:40Z</time>
      </trkpt>
      <trkpt lat="46.63896" lon="6.07761">
        <ele>1048.45</ele>
        <time>2011-10-16T10:33:41Z</time>
      </trkpt>
      <trkpt lat="46.63897" lon="6.07764">
        <ele>1049.9</ele>
        <time>2011-10-16T10:33:42Z</time>
      </trkpt>
      <trkpt lat="46.63898" lon="6.07765">
        <ele>1049.42</ele>
        <time>2011-10-16T10:33:43Z</time>
      </trkpt>
      <trkpt lat="46.63902" lon="6.07785">
        <ele>1050.86</ele>
        <time>2011-10-16T10:33:55Z</time>
      </trkpt>
      <trkpt lat="46.63906" lon="6.07803">
        <ele>1052.78</ele>
        <time>2011-10-16T10:34:06Z</time>
      </trkpt>
      <trkpt lat="46.63913" lon="6.07822">
        <ele>1054.22</ele>
        <time>2011-10-16T10:34:16Z</time>
      </trkpt>
      <trkpt lat="46.63913" lon="6.07836">
        <ele>1054.22</ele>
        <time>2011-10-16T10:34:23Z</time>
      </trkpt>
      <trkpt lat="46.63915" lon="6.07839">
        <ele>1054.7</ele>
        <time>2011-10-16T10:34:24Z</time>
      </trkpt>
      <trkpt lat="46.63915" lon="6.0785">
        <ele>1055.67</ele>
        <time>2011-10-16T10:34:29Z</time>
      </trkpt>
      <trkpt lat="46.63916" lon="6.07867">
        <ele>1049.9</ele>
        <time>2011-10-16T10:34:38Z</time>
      </trkpt>
      <trkpt lat="46.63916" lon="6.07867">
        <ele>1056.15</ele>
        <time>2011-10-16T10:34:39Z</time>
      </trkpt>
      <trkpt lat="46.63916" lon="6.07874">
        <ele>1057.11</ele>
        <time>2011-10-16T10:34:42Z</time>
      </trkpt>
      <trkpt lat="46.63916" lon="6.07888">
        <ele>1058.07</ele>
        <time>2011-10-16T10:34:49Z</time>
      </trkpt>
      <trkpt lat="46.63918" lon="6.07901">
        <ele>1058.07</ele>
        <time>2011-10-16T10:34:55Z</time>
      </trkpt>
      <trkpt lat="46.63922" lon="6.0791">
        <ele>1059.99</ele>
        <time>2011-10-16T10:34:59Z</time>
      </trkpt>
      <trkpt lat="46.63927" lon="6.07933">
        <ele>1057.59</ele>
        <time>2011-10-16T10:35:09Z</time>
      </trkpt>
      <trkpt lat="46.63926" lon="6.07935">
        <ele>1062.87</ele>
        <time>2011-10-16T10:35:10Z</time>
      </trkpt>
      <trkpt lat="46.63926" lon="6.07937">
        <ele>1062.39</ele>
        <time>2011-10-16T10:35:11Z</time>
      </trkpt>
      <trkpt lat="46.63928" lon="6.07949">
        <ele>1063.36</ele>
        <time>2011-10-16T10:35:17Z</time>
      </trkpt>
      <trkpt lat="46.63928" lon="6.07968">
        <ele>1064.32</ele>
        <time>2011-10-16T10:35:23Z</time>
      </trkpt>
      <trkpt lat="46.63931" lon="6.07975">
        <ele>1066.24</ele>
        <time>2011-10-16T10:35:28Z</time>
      </trkpt>
      <trkpt lat="46.63932" lon="6.07982">
        <ele>1067.2</ele>
        <time>2011-10-16T10:35:32Z</time>
      </trkpt>
      <trkpt lat="46.63935" lon="6.07986">
        <ele>1067.2</ele>
        <time>2011-10-16T10:35:35Z</time>
      </trkpt>
      <trkpt lat="46.63936" lon="6.07989">
        <ele>1067.68</ele>
        <time>2011-10-16T10:35:36Z</time>
      </trkpt>
      <trkpt lat="46.63937" lon="6.07995">
        <ele>1068.16</ele>
        <time>2011-10-16T10:35:38Z</time>
      </trkpt>
      <trkpt lat="46.63938" lon="6.07997">
        <ele>1068.64</ele>
        <time>2011-10-16T10:35:39Z</time>
      </trkpt>
      <trkpt lat="46.63939" lon="6.08">
        <ele>1068.16</ele>
        <time>2011-10-16T10:35:41Z</time>
      </trkpt>
      <trkpt lat="46.63941" lon="6.08003">
        <ele>1069.12</ele>
        <time>2011-10-16T10:35:42Z</time>
      </trkpt>
      <trkpt lat="46.63942" lon="6.08004">
        <ele>1069.6</ele>
        <time>2011-10-16T10:35:43Z</time>
      </trkpt>
      <trkpt lat="46.63943" lon="6.08007">
        <ele>1072.49</ele>
        <time>2011-10-16T10:35:44Z</time>
      </trkpt>
      <trkpt lat="46.63945" lon="6.08011">
        <ele>1069.12</ele>
        <time>2011-10-16T10:35:46Z</time>
      </trkpt>
      <trkpt lat="46.63955" lon="6.08017">
        <ele>1070.57</ele>
        <time>2011-10-16T10:35:56Z</time>
      </trkpt>
      <trkpt lat="46.63956" lon="6.08017">
        <ele>1072.01</ele>
        <time>2011-10-16T10:36:29Z</time>
      </trkpt>
      <trkpt lat="46.6396" lon="6.08013">
        <ele>1072.01</ele>
        <time>2011-10-16T10:36:58Z</time>
      </trkpt>
      <trkpt lat="46.63962" lon="6.08011">
        <ele>1071.53</ele>
        <time>2011-10-16T10:36:59Z</time>
      </trkpt>
      <trkpt lat="46.63982" lon="6.07969">
        <ele>1070.57</ele>
        <time>2011-10-16T10:37:11Z</time>
      </trkpt>
      <trkpt lat="46.64" lon="6.0795">
        <ele>1071.53</ele>
        <time>2011-10-16T10:37:22Z</time>
      </trkpt>
      <trkpt lat="46.64025" lon="6.07934">
        <ele>1074.89</ele>
        <time>2011-10-16T10:37:32Z</time>
      </trkpt>
      <trkpt lat="46.64031" lon="6.07933">
        <ele>1075.37</ele>
        <time>2011-10-16T10:37:34Z</time>
      </trkpt>
      <trkpt lat="46.64033" lon="6.07935">
        <ele>1075.37</ele>
        <time>2011-10-16T10:37:35Z</time>
      </trkpt>
      <trkpt lat="46.64034" lon="6.07938">
        <ele>1074.41</ele>
        <time>2011-10-16T10:37:36Z</time>
      </trkpt>
      <trkpt lat="46.64036" lon="6.07939">
        <ele>1069.12</ele>
        <time>2011-10-16T10:37:37Z</time>
      </trkpt>
      <trkpt lat="46.64038" lon="6.07941">
        <ele>1074.41</ele>
        <time>2011-10-16T10:37:38Z</time>
      </trkpt>
      <trkpt lat="46.6404" lon="6.07941">
        <ele>1074.89</ele>
        <time>2011-10-16T10:37:39Z</time>
      </trkpt>
      <trkpt lat="46.64042" lon="6.07943">
        <ele>1075.37</ele>
        <time>2011-10-16T10:37:40Z</time>
      </trkpt>
      <trkpt lat="46.64044" lon="6.07945">
        <ele>1075.37</ele>
        <time>2011-10-16T10:37:41Z</time>
      </trkpt>
      <trkpt lat="46.64051" lon="6.0795">
        <ele>1077.29</ele>
        <time>2011-10-16T10:37:45Z</time>
      </trkpt>
      <trkpt lat="46.64059" lon="6.07955">
        <ele>1078.74</ele>
        <time>2011-10-16T10:37:50Z</time>
      </trkpt>
      <trkpt lat="46.6406" lon="6.07955">
        <ele>1078.74</ele>
        <time>2011-10-16T10:37:51Z</time>
      </trkpt>
      <trkpt lat="46.64067" lon="6.0796">
        <ele>1081.62</ele>
        <time>2011-10-16T10:37:57Z</time>
      </trkpt>
      <trkpt lat="46.64079" lon="6.07974">
        <ele>1081.62</ele>
        <time>2011-10-16T10:38:07Z</time>
      </trkpt>
      <trkpt lat="46.64081" lon="6.07975">
        <ele>1082.1</ele>
        <time>2011-10-16T10:38:08Z</time>
      </trkpt>
      <trkpt lat="46.64082" lon="6.07976">
        <ele>1082.58</ele>
        <time>2011-10-16T10:38:09Z</time>
      </trkpt>
      <trkpt lat="46.64091" lon="6.07997">
        <ele>1085.95</ele>
        <time>2011-10-16T10:38:20Z</time>
      </trkpt>
      <trkpt lat="46.64097" lon="6.0801">
        <ele>1087.87</ele>
        <time>2011-10-16T10:38:28Z</time>
      </trkpt>
      <trkpt lat="46.64102" lon="6.08024">
        <ele>1089.79</ele>
        <time>2011-10-16T10:38:34Z</time>
      </trkpt>
      <trkpt lat="46.64107" lon="6.08039">
        <ele>1093.16</ele>
        <time>2011-10-16T10:38:42Z</time>
      </trkpt>
      <trkpt lat="46.64113" lon="6.08057">
        <ele>1094.6</ele>
        <time>2011-10-16T10:38:53Z</time>
      </trkpt>
      <trkpt lat="46.64113" lon="6.08059">
        <ele>1094.6</ele>
        <time>2011-10-16T10:38:54Z</time>
      </trkpt>
      <trkpt lat="46.64114" lon="6.0806">
        <ele>1095.08</ele>
        <time>2011-10-16T10:38:55Z</time>
      </trkpt>
      <trkpt lat="46.64118" lon="6.08072">
        <ele>1095.56</ele>
        <time>2011-10-16T10:39:04Z</time>
      </trkpt>
      <trkpt lat="46.64118" lon="6.08074">
        <ele>1096.52</ele>
        <time>2011-10-16T10:39:05Z</time>
      </trkpt>
      <trkpt lat="46.64119" lon="6.08075">
        <ele>1096.04</ele>
        <time>2011-10-16T10:39:06Z</time>
      </trkpt>
      <trkpt lat="46.64121" lon="6.08081">
        <ele>1097.48</ele>
        <time>2011-10-16T10:39:10Z</time>
      </trkpt>
      <trkpt lat="46.64126" lon="6.08105">
        <ele>1098.44</ele>
        <time>2011-10-16T10:39:25Z</time>
      </trkpt>
      <trkpt lat="46.64127" lon="6.08105">
        <ele>1099.4</ele>
        <time>2011-10-16T10:39:31Z</time>
      </trkpt>
      <trkpt lat="46.64123" lon="6.08103">
        <ele>1097.96</ele>
        <time>2011-10-16T10:39:38Z</time>
      </trkpt>
      <trkpt lat="46.64125" lon="6.08112">
        <ele>1098.92</ele>
        <time>2011-10-16T10:39:48Z</time>
      </trkpt>
      <trkpt lat="46.64128" lon="6.08121">
        <ele>1099.89</ele>
        <time>2011-10-16T10:40:02Z</time>
      </trkpt>
      <trkpt lat="46.64131" lon="6.08131">
        <ele>1100.37</ele>
        <time>2011-10-16T10:40:11Z</time>
      </trkpt>
      <trkpt lat="46.64133" lon="6.08138">
        <ele>1101.33</ele>
        <time>2011-10-16T10:40:17Z</time>
      </trkpt>
      <trkpt lat="46.64134" lon="6.08145">
        <ele>1100.85</ele>
        <time>2011-10-16T10:40:21Z</time>
      </trkpt>
      <trkpt lat="46.64136" lon="6.08149">
        <ele>1102.29</ele>
        <time>2011-10-16T10:40:24Z</time>
      </trkpt>
      <trkpt lat="46.64138" lon="6.08157">
        <ele>1104.21</ele>
        <time>2011-10-16T10:40:31Z</time>
      </trkpt>
      <trkpt lat="46.64138" lon="6.08158">
        <ele>1104.21</ele>
        <time>2011-10-16T10:40:32Z</time>
      </trkpt>
      <trkpt lat="46.64139" lon="6.08161">
        <ele>1105.65</ele>
        <time>2011-10-16T10:40:33Z</time>
      </trkpt>
      <trkpt lat="46.6414" lon="6.08163">
        <ele>1105.65</ele>
        <time>2011-10-16T10:40:34Z</time>
      </trkpt>
      <trkpt lat="46.6414" lon="6.08164">
        <ele>1106.13</ele>
        <time>2011-10-16T10:40:35Z</time>
      </trkpt>
      <trkpt lat="46.64143" lon="6.08169">
        <ele>1106.13</ele>
        <time>2011-10-16T10:40:38Z</time>
      </trkpt>
      <trkpt lat="46.64143" lon="6.08172">
        <ele>1106.13</ele>
        <time>2011-10-16T10:40:39Z</time>
      </trkpt>
      <trkpt lat="46.64144" lon="6.08174">
        <ele>1106.61</ele>
        <time>2011-10-16T10:40:40Z</time>
      </trkpt>
      <trkpt lat="46.64144" lon="6.08176">
        <ele>1106.13</ele>
        <time>2011-10-16T10:40:41Z</time>
      </trkpt>
      <trkpt lat="46.64147" lon="6.08185">
        <ele>1110.94</ele>
        <time>2011-10-16T10:40:47Z</time>
      </trkpt>
      <trkpt lat="46.64147" lon="6.08187">
        <ele>1107.58</ele>
        <time>2011-10-16T10:40:48Z</time>
      </trkpt>
      <trkpt lat="46.64151" lon="6.08196">
        <ele>1107.58</ele>
        <time>2011-10-16T10:40:53Z</time>
      </trkpt>
      <trkpt lat="46.64152" lon="6.08199">
        <ele>1108.54</ele>
        <time>2011-10-16T10:40:55Z</time>
      </trkpt>
      <trkpt lat="46.64165" lon="6.0822">
        <ele>1111.42</ele>
        <time>2011-10-16T10:41:10Z</time>
      </trkpt>
      <trkpt lat="46.64174" lon="6.08233">
        <ele>1113.82</ele>
        <time>2011-10-16T10:41:19Z</time>
      </trkpt>
      <trkpt lat="46.64174" lon="6.08235">
        <ele>1113.82</ele>
        <time>2011-10-16T10:41:20Z</time>
      </trkpt>
      <trkpt lat="46.64178" lon="6.08243">
        <ele>1114.31</ele>
        <time>2011-10-16T10:41:26Z</time>
      </trkpt>
      <trkpt lat="46.64179" lon="6.08245">
        <ele>1114.79</ele>
        <time>2011-10-16T10:41:27Z</time>
      </trkpt>
      <trkpt lat="46.6418" lon="6.08246">
        <ele>1114.31</ele>
        <time>2011-10-16T10:41:28Z</time>
      </trkpt>
      <trkpt lat="46.64181" lon="6.08248">
        <ele>1116.23</ele>
        <time>2011-10-16T10:41:29Z</time>
      </trkpt>
      <trkpt lat="46.64182" lon="6.0825">
        <ele>1114.79</ele>
        <time>2011-10-16T10:41:30Z</time>
      </trkpt>
      <trkpt lat="46.64184" lon="6.08253">
        <ele>1115.75</ele>
        <time>2011-10-16T10:41:32Z</time>
      </trkpt>
      <trkpt lat="46.64184" lon="6.08273">
        <ele>1119.11</ele>
        <time>2011-10-16T10:41:44Z</time>
      </trkpt>
      <trkpt lat="46.64184" lon="6.08276">
        <ele>1119.11</ele>
        <time>2011-10-16T10:41:46Z</time>
      </trkpt>
      <trkpt lat="46.64183" lon="6.08278">
        <ele>1119.59</ele>
        <time>2011-10-16T10:41:47Z</time>
      </trkpt>
      <trkpt lat="46.64182" lon="6.08281">
        <ele>1119.11</ele>
        <time>2011-10-16T10:41:48Z</time>
      </trkpt>
      <trkpt lat="46.64182" lon="6.08283">
        <ele>1118.63</ele>
        <time>2011-10-16T10:41:49Z</time>
      </trkpt>
      <trkpt lat="46.64182" lon="6.08284">
        <ele>1118.63</ele>
        <time>2011-10-16T10:41:50Z</time>
      </trkpt>
      <trkpt lat="46.64176" lon="6.08302">
        <ele>1121.03</ele>
        <time>2011-10-16T10:41:56Z</time>
      </trkpt>
      <trkpt lat="46.64175" lon="6.08305">
        <ele>1121.03</ele>
        <time>2011-10-16T10:41:57Z</time>
      </trkpt>
      <trkpt lat="46.64175" lon="6.08307">
        <ele>1121.52</ele>
        <time>2011-10-16T10:41:58Z</time>
      </trkpt>
      <trkpt lat="46.64174" lon="6.08309">
        <ele>1122</ele>
        <time>2011-10-16T10:41:59Z</time>
      </trkpt>
      <trkpt lat="46.64174" lon="6.08311">
        <ele>1121.52</ele>
        <time>2011-10-16T10:42:00Z</time>
      </trkpt>
      <trkpt lat="46.64172" lon="6.08319">
        <ele>1122.96</ele>
        <time>2011-10-16T10:42:04Z</time>
      </trkpt>
      <trkpt lat="46.64168" lon="6.08328">
        <ele>1124.4</ele>
        <time>2011-10-16T10:42:10Z</time>
      </trkpt>
      <trkpt lat="46.6416" lon="6.08339">
        <ele>1125.36</ele>
        <time>2011-10-16T10:42:21Z</time>
      </trkpt>
      <trkpt lat="46.64152" lon="6.08345">
        <ele>1126.8</ele>
        <time>2011-10-16T10:42:28Z</time>
      </trkpt>
      <trkpt lat="46.64139" lon="6.08357">
        <ele>1130.17</ele>
        <time>2011-10-16T10:42:37Z</time>
      </trkpt>
      <trkpt lat="46.64136" lon="6.08361">
        <ele>1130.17</ele>
        <time>2011-10-16T10:42:40Z</time>
      </trkpt>
      <trkpt lat="46.64133" lon="6.08372">
        <ele>1132.09</ele>
        <time>2011-10-16T10:42:47Z</time>
      </trkpt>
      <trkpt lat="46.64132" lon="6.08377">
        <ele>1133.05</ele>
        <time>2011-10-16T10:42:49Z</time>
      </trkpt>
      <trkpt lat="46.64136" lon="6.08391">
        <ele>1137.38</ele>
        <time>2011-10-16T10:42:57Z</time>
      </trkpt>
      <trkpt lat="46.64136" lon="6.08392">
        <ele>1135.45</ele>
        <time>2011-10-16T10:42:58Z</time>
      </trkpt>
      <trkpt lat="46.64137" lon="6.08395">
        <ele>1134.49</ele>
        <time>2011-10-16T10:43:00Z</time>
      </trkpt>
      <trkpt lat="46.64139" lon="6.0841">
        <ele>1135.45</ele>
        <time>2011-10-16T10:43:13Z</time>
      </trkpt>
      <trkpt lat="46.64139" lon="6.08414">
        <ele>1135.94</ele>
        <time>2011-10-16T10:43:24Z</time>
      </trkpt>
      <trkpt lat="46.64141" lon="6.0841">
        <ele>1135.45</ele>
        <time>2011-10-16T10:43:27Z</time>
      </trkpt>
      <trkpt lat="46.64141" lon="6.08408">
        <ele>1135.45</ele>
        <time>2011-10-16T10:43:28Z</time>
      </trkpt>
      <trkpt lat="46.64136" lon="6.0841">
        <ele>1135.94</ele>
        <time>2011-10-16T10:43:52Z</time>
      </trkpt>
      <trkpt lat="46.64135" lon="6.08413">
        <ele>1135.45</ele>
        <time>2011-10-16T10:43:53Z</time>
      </trkpt>
      <trkpt lat="46.64133" lon="6.08415">
        <ele>1136.42</ele>
        <time>2011-10-16T10:43:54Z</time>
      </trkpt>
      <trkpt lat="46.64132" lon="6.08417">
        <ele>1136.9</ele>
        <time>2011-10-16T10:43:55Z</time>
      </trkpt>
      <trkpt lat="46.64131" lon="6.08419">
        <ele>1137.38</ele>
        <time>2011-10-16T10:43:56Z</time>
      </trkpt>
      <trkpt lat="46.64129" lon="6.08421">
        <ele>1136.9</ele>
        <time>2011-10-16T10:43:57Z</time>
      </trkpt>
      <trkpt lat="46.64128" lon="6.08423">
        <ele>1137.86</ele>
        <time>2011-10-16T10:43:58Z</time>
      </trkpt>
      <trkpt lat="46.64126" lon="6.08424">
        <ele>1137.38</ele>
        <time>2011-10-16T10:43:59Z</time>
      </trkpt>
      <trkpt lat="46.64112" lon="6.08431">
        <ele>1138.82</ele>
        <time>2011-10-16T10:44:10Z</time>
      </trkpt>
      <trkpt lat="46.6411" lon="6.08432">
        <ele>1139.3</ele>
        <time>2011-10-16T10:44:11Z</time>
      </trkpt>
      <trkpt lat="46.64109" lon="6.08432">
        <ele>1138.34</ele>
        <time>2011-10-16T10:44:12Z</time>
      </trkpt>
      <trkpt lat="46.64107" lon="6.08433">
        <ele>1138.82</ele>
        <time>2011-10-16T10:44:13Z</time>
      </trkpt>
      <trkpt lat="46.64105" lon="6.08433">
        <ele>1139.3</ele>
        <time>2011-10-16T10:44:14Z</time>
      </trkpt>
      <trkpt lat="46.64104" lon="6.08433">
        <ele>1139.3</ele>
        <time>2011-10-16T10:44:15Z</time>
      </trkpt>
      <trkpt lat="46.64102" lon="6.08434">
        <ele>1138.82</ele>
        <time>2011-10-16T10:44:16Z</time>
      </trkpt>
      <trkpt lat="46.641" lon="6.08434">
        <ele>1138.82</ele>
        <time>2011-10-16T10:44:17Z</time>
      </trkpt>
      <trkpt lat="46.64099" lon="6.08435">
        <ele>1139.78</ele>
        <time>2011-10-16T10:44:18Z</time>
      </trkpt>
      <trkpt lat="46.64097" lon="6.08436">
        <ele>1139.78</ele>
        <time>2011-10-16T10:44:19Z</time>
      </trkpt>
      <trkpt lat="46.64088" lon="6.08441">
        <ele>1140.74</ele>
        <time>2011-10-16T10:44:27Z</time>
      </trkpt>
      <trkpt lat="46.64072" lon="6.08456">
        <ele>1141.22</ele>
        <time>2011-10-16T10:44:38Z</time>
      </trkpt>
      <trkpt lat="46.64071" lon="6.08456">
        <ele>1142.18</ele>
        <time>2011-10-16T10:44:39Z</time>
      </trkpt>
      <trkpt lat="46.64036" lon="6.08484">
        <ele>1141.22</ele>
        <time>2011-10-16T10:44:49Z</time>
      </trkpt>
      <trkpt lat="46.64023" lon="6.08494">
        <ele>1142.66</ele>
        <time>2011-10-16T10:44:56Z</time>
      </trkpt>
      <trkpt lat="46.64021" lon="6.08495">
        <ele>1141.7</ele>
        <time>2011-10-16T10:44:57Z</time>
      </trkpt>
      <trkpt lat="46.64002" lon="6.08509">
        <ele>1146.03</ele>
        <time>2011-10-16T10:45:07Z</time>
      </trkpt>
      <trkpt lat="46.63999" lon="6.08512">
        <ele>1146.03</ele>
        <time>2011-10-16T10:45:08Z</time>
      </trkpt>
      <trkpt lat="46.63993" lon="6.0852">
        <ele>1146.03</ele>
        <time>2011-10-16T10:45:11Z</time>
      </trkpt>
      <trkpt lat="46.6399" lon="6.08522">
        <ele>1145.55</ele>
        <time>2011-10-16T10:45:12Z</time>
      </trkpt>
      <trkpt lat="46.63988" lon="6.08525">
        <ele>1146.03</ele>
        <time>2011-10-16T10:45:13Z</time>
      </trkpt>
      <trkpt lat="46.63986" lon="6.08529">
        <ele>1146.51</ele>
        <time>2011-10-16T10:45:14Z</time>
      </trkpt>
      <trkpt lat="46.63984" lon="6.08534">
        <ele>1146.51</ele>
        <time>2011-10-16T10:45:15Z</time>
      </trkpt>
      <trkpt lat="46.63982" lon="6.08537">
        <ele>1146.51</ele>
        <time>2011-10-16T10:45:16Z</time>
      </trkpt>
      <trkpt lat="46.63978" lon="6.08546">
        <ele>1147.47</ele>
        <time>2011-10-16T10:45:19Z</time>
      </trkpt>
      <trkpt lat="46.63974" lon="6.08553">
        <ele>1148.43</ele>
        <time>2011-10-16T10:45:22Z</time>
      </trkpt>
      <trkpt lat="46.63973" lon="6.08554">
        <ele>1149.39</ele>
        <time>2011-10-16T10:45:23Z</time>
      </trkpt>
      <trkpt lat="46.63973" lon="6.08556">
        <ele>1148.91</ele>
        <time>2011-10-16T10:45:24Z</time>
      </trkpt>
      <trkpt lat="46.63968" lon="6.08577">
        <ele>1150.84</ele>
        <time>2011-10-16T10:45:35Z</time>
      </trkpt>
      <trkpt lat="46.63966" lon="6.08587">
        <ele>1151.32</ele>
        <time>2011-10-16T10:45:39Z</time>
      </trkpt>
      <trkpt lat="46.63966" lon="6.08589">
        <ele>1151.32</ele>
        <time>2011-10-16T10:45:40Z</time>
      </trkpt>
      <trkpt lat="46.63966" lon="6.08591">
        <ele>1151.8</ele>
        <time>2011-10-16T10:45:41Z</time>
      </trkpt>
      <trkpt lat="46.63966" lon="6.08594">
        <ele>1151.32</ele>
        <time>2011-10-16T10:45:42Z</time>
      </trkpt>
      <trkpt lat="46.63965" lon="6.08597">
        <ele>1151.32</ele>
        <time>2011-10-16T10:45:43Z</time>
      </trkpt>
      <trkpt lat="46.63963" lon="6.086">
        <ele>1152.28</ele>
        <time>2011-10-16T10:45:44Z</time>
      </trkpt>
      <trkpt lat="46.63962" lon="6.08603">
        <ele>1151.8</ele>
        <time>2011-10-16T10:45:45Z</time>
      </trkpt>
      <trkpt lat="46.63962" lon="6.08606">
        <ele>1152.28</ele>
        <time>2011-10-16T10:45:46Z</time>
      </trkpt>
      <trkpt lat="46.63961" lon="6.08608">
        <ele>1152.76</ele>
        <time>2011-10-16T10:45:47Z</time>
      </trkpt>
      <trkpt lat="46.63961" lon="6.08611">
        <ele>1152.28</ele>
        <time>2011-10-16T10:45:48Z</time>
      </trkpt>
      <trkpt lat="46.63961" lon="6.08613">
        <ele>1153.24</ele>
        <time>2011-10-16T10:45:49Z</time>
      </trkpt>
      <trkpt lat="46.63962" lon="6.08614">
        <ele>1153.24</ele>
        <time>2011-10-16T10:45:50Z</time>
      </trkpt>
      <trkpt lat="46.63962" lon="6.08616">
        <ele>1153.24</ele>
        <time>2011-10-16T10:45:51Z</time>
      </trkpt>
      <trkpt lat="46.63962" lon="6.08622">
        <ele>1153.24</ele>
        <time>2011-10-16T10:45:54Z</time>
      </trkpt>
      <trkpt lat="46.63961" lon="6.08625">
        <ele>1153.72</ele>
        <time>2011-10-16T10:45:55Z</time>
      </trkpt>
      <trkpt lat="46.63962" lon="6.08627">
        <ele>1154.68</ele>
        <time>2011-10-16T10:45:56Z</time>
      </trkpt>
      <trkpt lat="46.63962" lon="6.0863">
        <ele>1154.68</ele>
        <time>2011-10-16T10:45:57Z</time>
      </trkpt>
      <trkpt lat="46.63963" lon="6.08632">
        <ele>1154.2</ele>
        <time>2011-10-16T10:45:58Z</time>
      </trkpt>
      <trkpt lat="46.6397" lon="6.08659">
        <ele>1156.12</ele>
        <time>2011-10-16T10:46:10Z</time>
      </trkpt>
      <trkpt lat="46.6397" lon="6.0866">
        <ele>1156.12</ele>
        <time>2011-10-16T10:46:11Z</time>
      </trkpt>
      <trkpt lat="46.63971" lon="6.08662">
        <ele>1156.12</ele>
        <time>2011-10-16T10:46:12Z</time>
      </trkpt>
      <trkpt lat="46.63972" lon="6.08664">
        <ele>1155.16</ele>
        <time>2011-10-16T10:46:13Z</time>
      </trkpt>
      <trkpt lat="46.63973" lon="6.08667">
        <ele>1156.12</ele>
        <time>2011-10-16T10:46:14Z</time>
      </trkpt>
      <trkpt lat="46.63974" lon="6.08669">
        <ele>1156.6</ele>
        <time>2011-10-16T10:46:15Z</time>
      </trkpt>
      <trkpt lat="46.63974" lon="6.08671">
        <ele>1157.08</ele>
        <time>2011-10-16T10:46:16Z</time>
      </trkpt>
      <trkpt lat="46.63975" lon="6.08674">
        <ele>1157.56</ele>
        <time>2011-10-16T10:46:17Z</time>
      </trkpt>
      <trkpt lat="46.63977" lon="6.0868">
        <ele>1158.05</ele>
        <time>2011-10-16T10:46:20Z</time>
      </trkpt>
      <trkpt lat="46.63978" lon="6.08683">
        <ele>1158.05</ele>
        <time>2011-10-16T10:46:21Z</time>
      </trkpt>
      <trkpt lat="46.63978" lon="6.08686">
        <ele>1157.56</ele>
        <time>2011-10-16T10:46:22Z</time>
      </trkpt>
      <trkpt lat="46.63979" lon="6.08689">
        <ele>1157.56</ele>
        <time>2011-10-16T10:46:23Z</time>
      </trkpt>
      <trkpt lat="46.6398" lon="6.0869">
        <ele>1158.53</ele>
        <time>2011-10-16T10:46:24Z</time>
      </trkpt>
      <trkpt lat="46.63981" lon="6.08693">
        <ele>1158.05</ele>
        <time>2011-10-16T10:46:25Z</time>
      </trkpt>
      <trkpt lat="46.63981" lon="6.08695">
        <ele>1158.53</ele>
        <time>2011-10-16T10:46:26Z</time>
      </trkpt>
      <trkpt lat="46.63984" lon="6.0871">
        <ele>1158.05</ele>
        <time>2011-10-16T10:46:31Z</time>
      </trkpt>
      <trkpt lat="46.63985" lon="6.08715">
        <ele>1159.01</ele>
        <time>2011-10-16T10:46:33Z</time>
      </trkpt>
      <trkpt lat="46.63985" lon="6.08718">
        <ele>1160.45</ele>
        <time>2011-10-16T10:46:34Z</time>
      </trkpt>
      <trkpt lat="46.63986" lon="6.08721">
        <ele>1159.49</ele>
        <time>2011-10-16T10:46:35Z</time>
      </trkpt>
      <trkpt lat="46.63987" lon="6.08724">
        <ele>1159.01</ele>
        <time>2011-10-16T10:46:36Z</time>
      </trkpt>
      <trkpt lat="46.63987" lon="6.08727">
        <ele>1159.01</ele>
        <time>2011-10-16T10:46:37Z</time>
      </trkpt>
      <trkpt lat="46.63987" lon="6.0873">
        <ele>1160.93</ele>
        <time>2011-10-16T10:46:38Z</time>
      </trkpt>
      <trkpt lat="46.63987" lon="6.08735">
        <ele>1159.49</ele>
        <time>2011-10-16T10:46:40Z</time>
      </trkpt>
      <trkpt lat="46.63987" lon="6.08738">
        <ele>1159.97</ele>
        <time>2011-10-16T10:46:41Z</time>
      </trkpt>
      <trkpt lat="46.63986" lon="6.08741">
        <ele>1161.41</ele>
        <time>2011-10-16T10:46:42Z</time>
      </trkpt>
      <trkpt lat="46.63985" lon="6.08744">
        <ele>1160.93</ele>
        <time>2011-10-16T10:46:43Z</time>
      </trkpt>
      <trkpt lat="46.63975" lon="6.08787">
        <ele>1160.93</ele>
        <time>2011-10-16T10:46:56Z</time>
      </trkpt>
      <trkpt lat="46.63973" lon="6.0879">
        <ele>1161.89</ele>
        <time>2011-10-16T10:46:57Z</time>
      </trkpt>
      <trkpt lat="46.63973" lon="6.08793">
        <ele>1161.41</ele>
        <time>2011-10-16T10:46:58Z</time>
      </trkpt>
      <trkpt lat="46.63972" lon="6.08796">
        <ele>1161.41</ele>
        <time>2011-10-16T10:46:59Z</time>
      </trkpt>
      <trkpt lat="46.63971" lon="6.08799">
        <ele>1161.41</ele>
        <time>2011-10-16T10:47:00Z</time>
      </trkpt>
      <trkpt lat="46.63965" lon="6.08826">
        <ele>1160.93</ele>
        <time>2011-10-16T10:47:10Z</time>
      </trkpt>
      <trkpt lat="46.63965" lon="6.08828">
        <ele>1161.41</ele>
        <time>2011-10-16T10:47:11Z</time>
      </trkpt>
      <trkpt lat="46.63966" lon="6.08831">
        <ele>1161.41</ele>
        <time>2011-10-16T10:47:13Z</time>
      </trkpt>
      <trkpt lat="46.63971" lon="6.08866">
        <ele>1159.49</ele>
        <time>2011-10-16T10:47:23Z</time>
      </trkpt>
      <trkpt lat="46.63973" lon="6.08916">
        <ele>1162.85</ele>
        <time>2011-10-16T10:47:34Z</time>
      </trkpt>
      <trkpt lat="46.6398" lon="6.08943">
        <ele>1165.26</ele>
        <time>2011-10-16T10:47:43Z</time>
      </trkpt>
      <trkpt lat="46.63981" lon="6.08944">
        <ele>1164.77</ele>
        <time>2011-10-16T10:47:44Z</time>
      </trkpt>
      <trkpt lat="46.63982" lon="6.08947">
        <ele>1165.26</ele>
        <time>2011-10-16T10:47:45Z</time>
      </trkpt>
      <trkpt lat="46.63982" lon="6.0895">
        <ele>1166.22</ele>
        <time>2011-10-16T10:47:46Z</time>
      </trkpt>
      <trkpt lat="46.63983" lon="6.08953">
        <ele>1166.22</ele>
        <time>2011-10-16T10:47:47Z</time>
      </trkpt>
      <trkpt lat="46.63984" lon="6.08955">
        <ele>1166.22</ele>
        <time>2011-10-16T10:47:48Z</time>
      </trkpt>
      <trkpt lat="46.63985" lon="6.08957">
        <ele>1165.26</ele>
        <time>2011-10-16T10:47:49Z</time>
      </trkpt>
      <trkpt lat="46.63991" lon="6.08968">
        <ele>1166.22</ele>
        <time>2011-10-16T10:47:56Z</time>
      </trkpt>
      <trkpt lat="46.63991" lon="6.08971">
        <ele>1165.74</ele>
        <time>2011-10-16T10:47:57Z</time>
      </trkpt>
      <trkpt lat="46.63993" lon="6.08989">
        <ele>1165.74</ele>
        <time>2011-10-16T10:48:07Z</time>
      </trkpt>
      <trkpt lat="46.64" lon="6.09009">
        <ele>1165.26</ele>
        <time>2011-10-16T10:48:17Z</time>
      </trkpt>
      <trkpt lat="46.6401" lon="6.09028">
        <ele>1164.77</ele>
        <time>2011-10-16T10:48:26Z</time>
      </trkpt>
      <trkpt lat="46.64011" lon="6.09031">
        <ele>1165.26</ele>
        <time>2011-10-16T10:48:27Z</time>
      </trkpt>
      <trkpt lat="46.64013" lon="6.09035">
        <ele>1165.26</ele>
        <time>2011-10-16T10:48:28Z</time>
      </trkpt>
      <trkpt lat="46.64014" lon="6.09038">
        <ele>1164.77</ele>
        <time>2011-10-16T10:48:29Z</time>
      </trkpt>
      <trkpt lat="46.64017" lon="6.0905">
        <ele>1163.33</ele>
        <time>2011-10-16T10:48:31Z</time>
      </trkpt>
      <trkpt lat="46.64019" lon="6.09055">
        <ele>1164.29</ele>
        <time>2011-10-16T10:48:32Z</time>
      </trkpt>
      <trkpt lat="46.64021" lon="6.09061">
        <ele>1162.85</ele>
        <time>2011-10-16T10:48:33Z</time>
      </trkpt>
      <trkpt lat="46.64038" lon="6.09177">
        <ele>1159.49</ele>
        <time>2011-10-16T10:48:41Z</time>
      </trkpt>
      <trkpt lat="46.64057" lon="6.09232">
        <ele>1157.56</ele>
        <time>2011-10-16T10:48:46Z</time>
      </trkpt>
      <trkpt lat="46.64071" lon="6.09266">
        <ele>1143.63</ele>
        <time>2011-10-16T10:48:50Z</time>
      </trkpt>
      <trkpt lat="46.64073" lon="6.09271">
        <ele>1156.6</ele>
        <time>2011-10-16T10:48:51Z</time>
      </trkpt>
      <trkpt lat="46.64087" lon="6.09303">
        <ele>1156.6</ele>
        <time>2011-10-16T10:48:57Z</time>
      </trkpt>
      <trkpt lat="46.64112" lon="6.09371">
        <ele>1154.68</ele>
        <time>2011-10-16T10:49:07Z</time>
      </trkpt>
      <trkpt lat="46.64114" lon="6.09376">
        <ele>1155.16</ele>
        <time>2011-10-16T10:49:08Z</time>
      </trkpt>
      <trkpt lat="46.64116" lon="6.09382">
        <ele>1154.68</ele>
        <time>2011-10-16T10:49:09Z</time>
      </trkpt>
      <trkpt lat="46.64121" lon="6.09405">
        <ele>1155.64</ele>
        <time>2011-10-16T10:49:14Z</time>
      </trkpt>
      <trkpt lat="46.64139" lon="6.09444">
        <ele>1158.05</ele>
        <time>2011-10-16T10:49:26Z</time>
      </trkpt>
      <trkpt lat="46.64152" lon="6.09482">
        <ele>1156.6</ele>
        <time>2011-10-16T10:49:35Z</time>
      </trkpt>
      <trkpt lat="46.64165" lon="6.09514">
        <ele>1158.05</ele>
        <time>2011-10-16T10:49:45Z</time>
      </trkpt>
      <trkpt lat="46.64173" lon="6.09556">
        <ele>1158.05</ele>
        <time>2011-10-16T10:49:57Z</time>
      </trkpt>
      <trkpt lat="46.64173" lon="6.09558">
        <ele>1157.56</ele>
        <time>2011-10-16T10:49:58Z</time>
      </trkpt>
      <trkpt lat="46.64174" lon="6.0956">
        <ele>1157.56</ele>
        <time>2011-10-16T10:49:59Z</time>
      </trkpt>
      <trkpt lat="46.64174" lon="6.09563">
        <ele>1158.05</ele>
        <time>2011-10-16T10:50:00Z</time>
      </trkpt>
      <trkpt lat="46.64175" lon="6.09565">
        <ele>1158.53</ele>
        <time>2011-10-16T10:50:01Z</time>
      </trkpt>
      <trkpt lat="46.64175" lon="6.09567">
        <ele>1158.53</ele>
        <time>2011-10-16T10:50:02Z</time>
      </trkpt>
      <trkpt lat="46.64178" lon="6.09583">
        <ele>1161.89</ele>
        <time>2011-10-16T10:50:10Z</time>
      </trkpt>
      <trkpt lat="46.64181" lon="6.09592">
        <ele>1165.74</ele>
        <time>2011-10-16T10:50:18Z</time>
      </trkpt>
      <trkpt lat="46.64185" lon="6.09597">
        <ele>1165.74</ele>
        <time>2011-10-16T10:50:24Z</time>
      </trkpt>
      <trkpt lat="46.6419" lon="6.09604">
        <ele>1167.18</ele>
        <time>2011-10-16T10:50:28Z</time>
      </trkpt>
      <trkpt lat="46.64192" lon="6.09606">
        <ele>1167.66</ele>
        <time>2011-10-16T10:50:29Z</time>
      </trkpt>
      <trkpt lat="46.64193" lon="6.09609">
        <ele>1167.66</ele>
        <time>2011-10-16T10:50:30Z</time>
      </trkpt>
      <trkpt lat="46.64194" lon="6.09612">
        <ele>1167.18</ele>
        <time>2011-10-16T10:50:31Z</time>
      </trkpt>
      <trkpt lat="46.64194" lon="6.09615">
        <ele>1167.18</ele>
        <time>2011-10-16T10:50:32Z</time>
      </trkpt>
      <trkpt lat="46.64194" lon="6.09618">
        <ele>1167.18</ele>
        <time>2011-10-16T10:50:33Z</time>
      </trkpt>
      <trkpt lat="46.64199" lon="6.09634">
        <ele>1169.1</ele>
        <time>2011-10-16T10:50:42Z</time>
      </trkpt>
      <trkpt lat="46.642" lon="6.09635">
        <ele>1169.1</ele>
        <time>2011-10-16T10:50:43Z</time>
      </trkpt>
      <trkpt lat="46.642" lon="6.09637">
        <ele>1169.58</ele>
        <time>2011-10-16T10:50:44Z</time>
      </trkpt>
      <trkpt lat="46.642" lon="6.09643">
        <ele>1171.02</ele>
        <time>2011-10-16T10:50:47Z</time>
      </trkpt>
      <trkpt lat="46.64208" lon="6.09659">
        <ele>1172.95</ele>
        <time>2011-10-16T10:50:59Z</time>
      </trkpt>
      <trkpt lat="46.64208" lon="6.09661">
        <ele>1173.91</ele>
        <time>2011-10-16T10:51:01Z</time>
      </trkpt>
      <trkpt lat="46.64218" lon="6.09681">
        <ele>1176.31</ele>
        <time>2011-10-16T10:51:12Z</time>
      </trkpt>
      <trkpt lat="46.64221" lon="6.09687">
        <ele>1177.27</ele>
        <time>2011-10-16T10:51:16Z</time>
      </trkpt>
      <trkpt lat="46.64227" lon="6.09697">
        <ele>1178.23</ele>
        <time>2011-10-16T10:51:24Z</time>
      </trkpt>
      <trkpt lat="46.64236" lon="6.09707">
        <ele>1179.19</ele>
        <time>2011-10-16T10:51:40Z</time>
      </trkpt>
      <trkpt lat="46.64235" lon="6.09709">
        <ele>1178.71</ele>
        <time>2011-10-16T10:52:31Z</time>
      </trkpt>
      <trkpt lat="46.64237" lon="6.09713">
        <ele>1178.71</ele>
        <time>2011-10-16T10:53:25Z</time>
      </trkpt>
      <trkpt lat="46.64238" lon="6.09722">
        <ele>1178.71</ele>
        <time>2011-10-16T10:53:30Z</time>
      </trkpt>
      <trkpt lat="46.64237" lon="6.09737">
        <ele>1179.67</ele>
        <time>2011-10-16T10:53:35Z</time>
      </trkpt>
      <trkpt lat="46.64237" lon="6.09739">
        <ele>1180.16</ele>
        <time>2011-10-16T10:53:36Z</time>
      </trkpt>
      <trkpt lat="46.64239" lon="6.09752">
        <ele>1179.67</ele>
        <time>2011-10-16T10:53:40Z</time>
      </trkpt>
      <trkpt lat="46.64239" lon="6.09755">
        <ele>1180.64</ele>
        <time>2011-10-16T10:53:41Z</time>
      </trkpt>
      <trkpt lat="46.64239" lon="6.09758">
        <ele>1180.16</ele>
        <time>2011-10-16T10:53:42Z</time>
      </trkpt>
      <trkpt lat="46.64239" lon="6.09771">
        <ele>1181.6</ele>
        <time>2011-10-16T10:53:48Z</time>
      </trkpt>
      <trkpt lat="46.64239" lon="6.09774">
        <ele>1182.08</ele>
        <time>2011-10-16T10:53:49Z</time>
      </trkpt>
      <trkpt lat="46.64239" lon="6.09777">
        <ele>1182.08</ele>
        <time>2011-10-16T10:53:50Z</time>
      </trkpt>
      <trkpt lat="46.6424" lon="6.0978">
        <ele>1182.56</ele>
        <time>2011-10-16T10:53:51Z</time>
      </trkpt>
      <trkpt lat="46.6424" lon="6.09783">
        <ele>1182.56</ele>
        <time>2011-10-16T10:53:52Z</time>
      </trkpt>
      <trkpt lat="46.6424" lon="6.09786">
        <ele>1182.08</ele>
        <time>2011-10-16T10:53:53Z</time>
      </trkpt>
      <trkpt lat="46.64242" lon="6.09789">
        <ele>1182.56</ele>
        <time>2011-10-16T10:53:54Z</time>
      </trkpt>
      <trkpt lat="46.64243" lon="6.09791">
        <ele>1181.6</ele>
        <time>2011-10-16T10:53:55Z</time>
      </trkpt>
      <trkpt lat="46.64244" lon="6.09793">
        <ele>1182.08</ele>
        <time>2011-10-16T10:53:56Z</time>
      </trkpt>
      <trkpt lat="46.64246" lon="6.09795">
        <ele>1183.04</ele>
        <time>2011-10-16T10:53:57Z</time>
      </trkpt>
      <trkpt lat="46.64247" lon="6.09797">
        <ele>1183.04</ele>
        <time>2011-10-16T10:53:58Z</time>
      </trkpt>
      <trkpt lat="46.64249" lon="6.09802">
        <ele>1182.56</ele>
        <time>2011-10-16T10:54:01Z</time>
      </trkpt>
      <trkpt lat="46.64249" lon="6.09804">
        <ele>1183.04</ele>
        <time>2011-10-16T10:54:02Z</time>
      </trkpt>
      <trkpt lat="46.64257" lon="6.09818">
        <ele>1185.44</ele>
        <time>2011-10-16T10:54:11Z</time>
      </trkpt>
      <trkpt lat="46.64259" lon="6.09819">
        <ele>1185.44</ele>
        <time>2011-10-16T10:54:12Z</time>
      </trkpt>
      <trkpt lat="46.64261" lon="6.09821">
        <ele>1185.92</ele>
        <time>2011-10-16T10:54:13Z</time>
      </trkpt>
      <trkpt lat="46.64263" lon="6.09822">
        <ele>1186.4</ele>
        <time>2011-10-16T10:54:14Z</time>
      </trkpt>
      <trkpt lat="46.64265" lon="6.09824">
        <ele>1186.4</ele>
        <time>2011-10-16T10:54:16Z</time>
      </trkpt>
      <trkpt lat="46.64272" lon="6.09835">
        <ele>1187.37</ele>
        <time>2011-10-16T10:54:26Z</time>
      </trkpt>
      <trkpt lat="46.64272" lon="6.09835">
        <ele>1188.81</ele>
        <time>2011-10-16T10:54:31Z</time>
      </trkpt>
      <trkpt lat="46.64272" lon="6.09835">
        <ele>1187.85</ele>
        <time>2011-10-16T10:54:33Z</time>
      </trkpt>
      <trkpt lat="46.64274" lon="6.09837">
        <ele>1187.37</ele>
        <time>2011-10-16T10:55:07Z</time>
      </trkpt>
      <trkpt lat="46.64275" lon="6.09839">
        <ele>1186.4</ele>
        <time>2011-10-16T10:55:08Z</time>
      </trkpt>
      <trkpt lat="46.64277" lon="6.09842">
        <ele>1186.4</ele>
        <time>2011-10-16T10:55:09Z</time>
      </trkpt>
      <trkpt lat="46.6428" lon="6.09844">
        <ele>1185.92</ele>
        <time>2011-10-16T10:55:10Z</time>
      </trkpt>
      <trkpt lat="46.64282" lon="6.09845">
        <ele>1185.44</ele>
        <time>2011-10-16T10:55:11Z</time>
      </trkpt>
      <trkpt lat="46.64284" lon="6.09846">
        <ele>1185.44</ele>
        <time>2011-10-16T10:55:12Z</time>
      </trkpt>
      <trkpt lat="46.64286" lon="6.09847">
        <ele>1185.44</ele>
        <time>2011-10-16T10:55:13Z</time>
      </trkpt>
      <trkpt lat="46.64289" lon="6.09848">
        <ele>1184.96</ele>
        <time>2011-10-16T10:55:14Z</time>
      </trkpt>
      <trkpt lat="46.64291" lon="6.09849">
        <ele>1184</ele>
        <time>2011-10-16T10:55:15Z</time>
      </trkpt>
      <trkpt lat="46.64293" lon="6.09852">
        <ele>1183.04</ele>
        <time>2011-10-16T10:55:16Z</time>
      </trkpt>
      <trkpt lat="46.64294" lon="6.09855">
        <ele>1182.08</ele>
        <time>2011-10-16T10:55:17Z</time>
      </trkpt>
      <trkpt lat="46.64296" lon="6.09858">
        <ele>1182.56</ele>
        <time>2011-10-16T10:55:18Z</time>
      </trkpt>
      <trkpt lat="46.64298" lon="6.09861">
        <ele>1182.56</ele>
        <time>2011-10-16T10:55:19Z</time>
      </trkpt>
      <trkpt lat="46.643" lon="6.09865">
        <ele>1181.6</ele>
        <time>2011-10-16T10:55:20Z</time>
      </trkpt>
      <trkpt lat="46.64303" lon="6.09868">
        <ele>1181.12</ele>
        <time>2011-10-16T10:55:21Z</time>
      </trkpt>
      <trkpt lat="46.64306" lon="6.09878">
        <ele>1181.6</ele>
        <time>2011-10-16T10:55:24Z</time>
      </trkpt>
      <trkpt lat="46.64308" lon="6.0988">
        <ele>1181.6</ele>
        <time>2011-10-16T10:55:25Z</time>
      </trkpt>
      <trkpt lat="46.64309" lon="6.09883">
        <ele>1181.6</ele>
        <time>2011-10-16T10:55:26Z</time>
      </trkpt>
      <trkpt lat="46.6431" lon="6.09886">
        <ele>1182.08</ele>
        <time>2011-10-16T10:55:27Z</time>
      </trkpt>
      <trkpt lat="46.6431" lon="6.0989">
        <ele>1182.08</ele>
        <time>2011-10-16T10:55:28Z</time>
      </trkpt>
      <trkpt lat="46.6431" lon="6.09895">
        <ele>1182.56</ele>
        <time>2011-10-16T10:55:29Z</time>
      </trkpt>
      <trkpt lat="46.64311" lon="6.09898">
        <ele>1182.56</ele>
        <time>2011-10-16T10:55:30Z</time>
      </trkpt>
      <trkpt lat="46.64312" lon="6.09901">
        <ele>1183.04</ele>
        <time>2011-10-16T10:55:31Z</time>
      </trkpt>
      <trkpt lat="46.64313" lon="6.09904">
        <ele>1184.48</ele>
        <time>2011-10-16T10:55:32Z</time>
      </trkpt>
      <trkpt lat="46.64314" lon="6.09905">
        <ele>1184</ele>
        <time>2011-10-16T10:55:33Z</time>
      </trkpt>
      <trkpt lat="46.64321" lon="6.09921">
        <ele>1184.96</ele>
        <time>2011-10-16T10:55:43Z</time>
      </trkpt>
      <trkpt lat="46.64326" lon="6.09941">
        <ele>1183.52</ele>
        <time>2011-10-16T10:55:55Z</time>
      </trkpt>
      <trkpt lat="46.64338" lon="6.0998">
        <ele>1181.12</ele>
        <time>2011-10-16T10:56:06Z</time>
      </trkpt>
      <trkpt lat="46.6434" lon="6.09983">
        <ele>1181.12</ele>
        <time>2011-10-16T10:56:07Z</time>
      </trkpt>
      <trkpt lat="46.64349" lon="6.10004">
        <ele>1179.67</ele>
        <time>2011-10-16T10:56:16Z</time>
      </trkpt>
      <trkpt lat="46.64349" lon="6.10006">
        <ele>1180.64</ele>
        <time>2011-10-16T10:56:17Z</time>
      </trkpt>
      <trkpt lat="46.6435" lon="6.10008">
        <ele>1181.6</ele>
        <time>2011-10-16T10:56:18Z</time>
      </trkpt>
      <trkpt lat="46.64351" lon="6.1001">
        <ele>1182.56</ele>
        <time>2011-10-16T10:56:19Z</time>
      </trkpt>
      <trkpt lat="46.64351" lon="6.10012">
        <ele>1181.6</ele>
        <time>2011-10-16T10:56:20Z</time>
      </trkpt>
      <trkpt lat="46.64352" lon="6.10015">
        <ele>1181.6</ele>
        <time>2011-10-16T10:56:21Z</time>
      </trkpt>
      <trkpt lat="46.64353" lon="6.10017">
        <ele>1182.08</ele>
        <time>2011-10-16T10:56:22Z</time>
      </trkpt>
      <trkpt lat="46.64354" lon="6.10021">
        <ele>1182.08</ele>
        <time>2011-10-16T10:56:23Z</time>
      </trkpt>
      <trkpt lat="46.64361" lon="6.1005">
        <ele>1181.6</ele>
        <time>2011-10-16T10:56:32Z</time>
      </trkpt>
      <trkpt lat="46.64363" lon="6.10052">
        <ele>1183.52</ele>
        <time>2011-10-16T10:56:33Z</time>
      </trkpt>
      <trkpt lat="46.64363" lon="6.10055">
        <ele>1183.52</ele>
        <time>2011-10-16T10:56:34Z</time>
      </trkpt>
      <trkpt lat="46.64364" lon="6.10062">
        <ele>1185.44</ele>
        <time>2011-10-16T10:56:50Z</time>
      </trkpt>
      <trkpt lat="46.6437" lon="6.10068">
        <ele>1187.37</ele>
        <time>2011-10-16T10:57:00Z</time>
      </trkpt>
      <trkpt lat="46.64379" lon="6.10075">
        <ele>1190.25</ele>
        <time>2011-10-16T10:57:09Z</time>
      </trkpt>
      <trkpt lat="46.64388" lon="6.10086">
        <ele>1191.69</ele>
        <time>2011-10-16T10:57:22Z</time>
      </trkpt>
      <trkpt lat="46.64389" lon="6.10086">
        <ele>1191.21</ele>
        <time>2011-10-16T10:57:23Z</time>
      </trkpt>
      <trkpt lat="46.64394" lon="6.10089">
        <ele>1193.61</ele>
        <time>2011-10-16T10:57:34Z</time>
      </trkpt>
      <trkpt lat="46.64394" lon="6.10089">
        <ele>1193.61</ele>
        <time>2011-10-16T10:57:35Z</time>
      </trkpt>
      <trkpt lat="46.64394" lon="6.1009">
        <ele>1183.52</ele>
        <time>2011-10-16T10:59:14Z</time>
      </trkpt>
      <trkpt lat="46.64394" lon="6.1009">
        <ele>1193.13</ele>
        <time>2011-10-16T10:59:15Z</time>
      </trkpt>
      <trkpt lat="46.64395" lon="6.10094">
        <ele>1194.09</ele>
        <time>2011-10-16T10:59:27Z</time>
      </trkpt>
      <trkpt lat="46.64395" lon="6.10094">
        <ele>1194.58</ele>
        <time>2011-10-16T10:59:28Z</time>
      </trkpt>
      <trkpt lat="46.64395" lon="6.10094">
        <ele>1192.65</ele>
        <time>2011-10-16T10:59:33Z</time>
      </trkpt>
      <trkpt lat="46.64395" lon="6.10094">
        <ele>1192.17</ele>
        <time>2011-10-16T10:59:44Z</time>
      </trkpt>
      <trkpt lat="46.64395" lon="6.10094">
        <ele>1192.65</ele>
        <time>2011-10-16T10:59:48Z</time>
      </trkpt>
      <trkpt lat="46.64397" lon="6.10095">
        <ele>1193.13</ele>
        <time>2011-10-16T10:59:55Z</time>
      </trkpt>
      <trkpt lat="46.64399" lon="6.10096">
        <ele>1194.09</ele>
        <time>2011-10-16T10:59:56Z</time>
      </trkpt>
      <trkpt lat="46.64402" lon="6.101">
        <ele>1192.65</ele>
        <time>2011-10-16T10:59:59Z</time>
      </trkpt>
      <trkpt lat="46.64402" lon="6.10102">
        <ele>1193.61</ele>
        <time>2011-10-16T11:00:00Z</time>
      </trkpt>
      <trkpt lat="46.64404" lon="6.10105">
        <ele>1194.58</ele>
        <time>2011-10-16T11:00:01Z</time>
      </trkpt>
      <trkpt lat="46.64405" lon="6.10106">
        <ele>1194.09</ele>
        <time>2011-10-16T11:00:02Z</time>
      </trkpt>
      <trkpt lat="46.64406" lon="6.10108">
        <ele>1193.61</ele>
        <time>2011-10-16T11:00:03Z</time>
      </trkpt>
      <trkpt lat="46.64408" lon="6.1011">
        <ele>1193.13</ele>
        <time>2011-10-16T11:00:04Z</time>
      </trkpt>
      <trkpt lat="46.6441" lon="6.10111">
        <ele>1194.09</ele>
        <time>2011-10-16T11:00:05Z</time>
      </trkpt>
      <trkpt lat="46.64412" lon="6.10114">
        <ele>1193.13</ele>
        <time>2011-10-16T11:00:06Z</time>
      </trkpt>
      <trkpt lat="46.64414" lon="6.10117">
        <ele>1193.61</ele>
        <time>2011-10-16T11:00:07Z</time>
      </trkpt>
      <trkpt lat="46.64415" lon="6.10119">
        <ele>1193.61</ele>
        <time>2011-10-16T11:00:08Z</time>
      </trkpt>
      <trkpt lat="46.64416" lon="6.10121">
        <ele>1192.17</ele>
        <time>2011-10-16T11:00:09Z</time>
      </trkpt>
      <trkpt lat="46.64418" lon="6.10124">
        <ele>1193.13</ele>
        <time>2011-10-16T11:00:10Z</time>
      </trkpt>
      <trkpt lat="46.64418" lon="6.10126">
        <ele>1193.61</ele>
        <time>2011-10-16T11:00:11Z</time>
      </trkpt>
      <trkpt lat="46.6442" lon="6.10129">
        <ele>1193.13</ele>
        <time>2011-10-16T11:00:12Z</time>
      </trkpt>
      <trkpt lat="46.64422" lon="6.10133">
        <ele>1193.13</ele>
        <time>2011-10-16T11:00:13Z</time>
      </trkpt>
      <trkpt lat="46.64423" lon="6.10136">
        <ele>1193.61</ele>
        <time>2011-10-16T11:00:14Z</time>
      </trkpt>
      <trkpt lat="46.64425" lon="6.10139">
        <ele>1192.65</ele>
        <time>2011-10-16T11:00:15Z</time>
      </trkpt>
      <trkpt lat="46.64427" lon="6.10144">
        <ele>1190.25</ele>
        <time>2011-10-16T11:00:16Z</time>
      </trkpt>
      <trkpt lat="46.64429" lon="6.10148">
        <ele>1190.25</ele>
        <time>2011-10-16T11:00:17Z</time>
      </trkpt>
      <trkpt lat="46.64431" lon="6.10152">
        <ele>1191.69</ele>
        <time>2011-10-16T11:00:18Z</time>
      </trkpt>
      <trkpt lat="46.64441" lon="6.10183">
        <ele>1189.77</ele>
        <time>2011-10-16T11:00:25Z</time>
      </trkpt>
      <trkpt lat="46.64442" lon="6.10192">
        <ele>1190.73</ele>
        <time>2011-10-16T11:00:35Z</time>
      </trkpt>
      <trkpt lat="46.64441" lon="6.10193">
        <ele>1190.73</ele>
        <time>2011-10-16T11:00:43Z</time>
      </trkpt>
      <trkpt lat="46.64444" lon="6.10194">
        <ele>1191.69</ele>
        <time>2011-10-16T11:00:44Z</time>
      </trkpt>
      <trkpt lat="46.64445" lon="6.10197">
        <ele>1191.21</ele>
        <time>2011-10-16T11:00:45Z</time>
      </trkpt>
      <trkpt lat="46.64448" lon="6.10201">
        <ele>1191.69</ele>
        <time>2011-10-16T11:00:47Z</time>
      </trkpt>
      <trkpt lat="46.6445" lon="6.10203">
        <ele>1191.69</ele>
        <time>2011-10-16T11:00:48Z</time>
      </trkpt>
      <trkpt lat="46.64459" lon="6.10216">
        <ele>1192.65</ele>
        <time>2011-10-16T11:00:56Z</time>
      </trkpt>
      <trkpt lat="46.64468" lon="6.10228">
        <ele>1192.65</ele>
        <time>2011-10-16T11:01:02Z</time>
      </trkpt>
      <trkpt lat="46.64483" lon="6.10262">
        <ele>1192.17</ele>
        <time>2011-10-16T11:01:13Z</time>
      </trkpt>
      <trkpt lat="46.64483" lon="6.10274">
        <ele>1191.69</ele>
        <time>2011-10-16T11:01:17Z</time>
      </trkpt>
      <trkpt lat="46.64484" lon="6.10301">
        <ele>1191.21</ele>
        <time>2011-10-16T11:01:26Z</time>
      </trkpt>
      <trkpt lat="46.64493" lon="6.10321">
        <ele>1192.17</ele>
        <time>2011-10-16T11:01:36Z</time>
      </trkpt>
      <trkpt lat="46.64494" lon="6.10323">
        <ele>1191.21</ele>
        <time>2011-10-16T11:01:37Z</time>
      </trkpt>
      <trkpt lat="46.64495" lon="6.10325">
        <ele>1192.17</ele>
        <time>2011-10-16T11:01:38Z</time>
      </trkpt>
      <trkpt lat="46.64497" lon="6.10326">
        <ele>1192.17</ele>
        <time>2011-10-16T11:01:39Z</time>
      </trkpt>
      <trkpt lat="46.64498" lon="6.10328">
        <ele>1191.21</ele>
        <time>2011-10-16T11:01:40Z</time>
      </trkpt>
      <trkpt lat="46.64499" lon="6.10331">
        <ele>1191.21</ele>
        <time>2011-10-16T11:01:41Z</time>
      </trkpt>
      <trkpt lat="46.64501" lon="6.10332">
        <ele>1191.69</ele>
        <time>2011-10-16T11:01:42Z</time>
      </trkpt>
      <trkpt lat="46.64503" lon="6.10333">
        <ele>1191.69</ele>
        <time>2011-10-16T11:01:43Z</time>
      </trkpt>
      <trkpt lat="46.64507" lon="6.10334">
        <ele>1191.69</ele>
        <time>2011-10-16T11:01:45Z</time>
      </trkpt>
      <trkpt lat="46.64515" lon="6.10351">
        <ele>1192.65</ele>
        <time>2011-10-16T11:01:52Z</time>
      </trkpt>
      <trkpt lat="46.64532" lon="6.10363">
        <ele>1194.09</ele>
        <time>2011-10-16T11:02:03Z</time>
      </trkpt>
      <trkpt lat="46.64548" lon="6.10377">
        <ele>1193.61</ele>
        <time>2011-10-16T11:02:10Z</time>
      </trkpt>
      <trkpt lat="46.64558" lon="6.10408">
        <ele>1193.61</ele>
        <time>2011-10-16T11:02:20Z</time>
      </trkpt>
      <trkpt lat="46.64564" lon="6.10416">
        <ele>1192.65</ele>
        <time>2011-10-16T11:02:23Z</time>
      </trkpt>
      <trkpt lat="46.64569" lon="6.10431">
        <ele>1193.13</ele>
        <time>2011-10-16T11:02:31Z</time>
      </trkpt>
      <trkpt lat="46.6457" lon="6.10451">
        <ele>1195.06</ele>
        <time>2011-10-16T11:02:41Z</time>
      </trkpt>
      <trkpt lat="46.64572" lon="6.10455">
        <ele>1196.02</ele>
        <time>2011-10-16T11:02:44Z</time>
      </trkpt>
      <trkpt lat="46.64574" lon="6.10457">
        <ele>1195.06</ele>
        <time>2011-10-16T11:02:46Z</time>
      </trkpt>
      <trkpt lat="46.6458" lon="6.10471">
        <ele>1196.02</ele>
        <time>2011-10-16T11:02:52Z</time>
      </trkpt>
      <trkpt lat="46.64598" lon="6.10512">
        <ele>1195.54</ele>
        <time>2011-10-16T11:03:06Z</time>
      </trkpt>
      <trkpt lat="46.64599" lon="6.10522">
        <ele>1196.5</ele>
        <time>2011-10-16T11:03:09Z</time>
      </trkpt>
      <trkpt lat="46.64599" lon="6.10547">
        <ele>1197.94</ele>
        <time>2011-10-16T11:03:18Z</time>
      </trkpt>
      <trkpt lat="46.646" lon="6.10553">
        <ele>1199.38</ele>
        <time>2011-10-16T11:03:21Z</time>
      </trkpt>
      <trkpt lat="46.646" lon="6.10561">
        <ele>1200.34</ele>
        <time>2011-10-16T11:03:25Z</time>
      </trkpt>
      <trkpt lat="46.64602" lon="6.10571">
        <ele>1201.3</ele>
        <time>2011-10-16T11:03:30Z</time>
      </trkpt>
      <trkpt lat="46.64605" lon="6.10582">
        <ele>1204.67</ele>
        <time>2011-10-16T11:03:35Z</time>
      </trkpt>
      <trkpt lat="46.64604" lon="6.106">
        <ele>1208.03</ele>
        <time>2011-10-16T11:03:43Z</time>
      </trkpt>
      <trkpt lat="46.64604" lon="6.10602">
        <ele>1208.03</ele>
        <time>2011-10-16T11:03:44Z</time>
      </trkpt>
      <trkpt lat="46.64604" lon="6.10624">
        <ele>1210.44</ele>
        <time>2011-10-16T11:03:56Z</time>
      </trkpt>
      <trkpt lat="46.64602" lon="6.10651">
        <ele>1212.36</ele>
        <time>2011-10-16T11:04:09Z</time>
      </trkpt>
      <trkpt lat="46.64602" lon="6.10655">
        <ele>1206.59</ele>
        <time>2011-10-16T11:04:16Z</time>
      </trkpt>
      <trkpt lat="46.64603" lon="6.10656">
        <ele>1212.84</ele>
        <time>2011-10-16T11:04:17Z</time>
      </trkpt>
      <trkpt lat="46.64605" lon="6.10658">
        <ele>1213.32</ele>
        <time>2011-10-16T11:04:34Z</time>
      </trkpt>
      <trkpt lat="46.64605" lon="6.10658">
        <ele>1209.48</ele>
        <time>2011-10-16T11:04:35Z</time>
      </trkpt>
      <trkpt lat="46.64605" lon="6.10658">
        <ele>1213.32</ele>
        <time>2011-10-16T11:04:36Z</time>
      </trkpt>
      <trkpt lat="46.64605" lon="6.10658">
        <ele>1213.8</ele>
        <time>2011-10-16T11:04:52Z</time>
      </trkpt>
      <trkpt lat="46.64605" lon="6.10658">
        <ele>1212.36</ele>
        <time>2011-10-16T11:05:05Z</time>
      </trkpt>
      <trkpt lat="46.64608" lon="6.10672">
        <ele>1212.84</ele>
        <time>2011-10-16T11:05:11Z</time>
      </trkpt>
      <trkpt lat="46.64618" lon="6.10692">
        <ele>1212.36</ele>
        <time>2011-10-16T11:05:21Z</time>
      </trkpt>
      <trkpt lat="46.64619" lon="6.10696">
        <ele>1211.88</ele>
        <time>2011-10-16T11:05:23Z</time>
      </trkpt>
      <trkpt lat="46.64619" lon="6.10701">
        <ele>1211.4</ele>
        <time>2011-10-16T11:05:25Z</time>
      </trkpt>
      <trkpt lat="46.64619" lon="6.10706">
        <ele>1210.44</ele>
        <time>2011-10-16T11:05:27Z</time>
      </trkpt>
      <trkpt lat="46.64616" lon="6.10722">
        <ele>1211.4</ele>
        <time>2011-10-16T11:05:31Z</time>
      </trkpt>
      <trkpt lat="46.64617" lon="6.10742">
        <ele>1209.48</ele>
        <time>2011-10-16T11:05:35Z</time>
      </trkpt>
      <trkpt lat="46.64616" lon="6.10751">
        <ele>1211.4</ele>
        <time>2011-10-16T11:05:37Z</time>
      </trkpt>
      <trkpt lat="46.64617" lon="6.10804">
        <ele>1208.51</ele>
        <time>2011-10-16T11:05:49Z</time>
      </trkpt>
      <trkpt lat="46.64621" lon="6.10817">
        <ele>1208.03</ele>
        <time>2011-10-16T11:05:53Z</time>
      </trkpt>
      <trkpt lat="46.64624" lon="6.10828">
        <ele>1208.03</ele>
        <time>2011-10-16T11:05:57Z</time>
      </trkpt>
      <trkpt lat="46.64627" lon="6.10855">
        <ele>1205.63</ele>
        <time>2011-10-16T11:06:06Z</time>
      </trkpt>
      <trkpt lat="46.64634" lon="6.10896">
        <ele>1205.63</ele>
        <time>2011-10-16T11:06:17Z</time>
      </trkpt>
      <trkpt lat="46.64628" lon="6.10946">
        <ele>1205.15</ele>
        <time>2011-10-16T11:06:27Z</time>
      </trkpt>
      <trkpt lat="46.64615" lon="6.11005">
        <ele>1204.19</ele>
        <time>2011-10-16T11:06:37Z</time>
      </trkpt>
      <trkpt lat="46.64596" lon="6.11073">
        <ele>1202.75</ele>
        <time>2011-10-16T11:06:49Z</time>
      </trkpt>
      <trkpt lat="46.64581" lon="6.11129">
        <ele>1201.79</ele>
        <time>2011-10-16T11:06:58Z</time>
      </trkpt>
      <trkpt lat="46.64577" lon="6.11142">
        <ele>1192.17</ele>
        <time>2011-10-16T11:07:01Z</time>
      </trkpt>
      <trkpt lat="46.64576" lon="6.11147">
        <ele>1200.82</ele>
        <time>2011-10-16T11:07:02Z</time>
      </trkpt>
      <trkpt lat="46.64571" lon="6.11155">
        <ele>1202.75</ele>
        <time>2011-10-16T11:07:04Z</time>
      </trkpt>
      <trkpt lat="46.6456" lon="6.1119">
        <ele>1201.3</ele>
        <time>2011-10-16T11:07:11Z</time>
      </trkpt>
      <trkpt lat="46.64556" lon="6.11202">
        <ele>1201.3</ele>
        <time>2011-10-16T11:07:13Z</time>
      </trkpt>
      <trkpt lat="46.64554" lon="6.11209">
        <ele>1200.82</ele>
        <time>2011-10-16T11:07:14Z</time>
      </trkpt>
      <trkpt lat="46.64552" lon="6.11215">
        <ele>1202.75</ele>
        <time>2011-10-16T11:07:15Z</time>
      </trkpt>
      <trkpt lat="46.6455" lon="6.11227">
        <ele>1200.34</ele>
        <time>2011-10-16T11:07:18Z</time>
      </trkpt>
      <trkpt lat="46.64526" lon="6.11296">
        <ele>1200.82</ele>
        <time>2011-10-16T11:07:30Z</time>
      </trkpt>
      <trkpt lat="46.64522" lon="6.11303">
        <ele>1201.79</ele>
        <time>2011-10-16T11:07:31Z</time>
      </trkpt>
      <trkpt lat="46.64505" lon="6.11336">
        <ele>1197.94</ele>
        <time>2011-10-16T11:07:37Z</time>
      </trkpt>
      <trkpt lat="46.64503" lon="6.11342">
        <ele>1202.27</ele>
        <time>2011-10-16T11:07:38Z</time>
      </trkpt>
      <trkpt lat="46.64486" lon="6.11385">
        <ele>1201.3</ele>
        <time>2011-10-16T11:07:47Z</time>
      </trkpt>
      <trkpt lat="46.64468" lon="6.11426">
        <ele>1201.3</ele>
        <time>2011-10-16T11:07:55Z</time>
      </trkpt>
      <trkpt lat="46.64447" lon="6.11477">
        <ele>1204.67</ele>
        <time>2011-10-16T11:08:05Z</time>
      </trkpt>
      <trkpt lat="46.64427" lon="6.11522">
        <ele>1203.23</ele>
        <time>2011-10-16T11:08:15Z</time>
      </trkpt>
      <trkpt lat="46.64406" lon="6.11569">
        <ele>1203.23</ele>
        <time>2011-10-16T11:08:27Z</time>
      </trkpt>
      <trkpt lat="46.64398" lon="6.11587">
        <ele>1202.75</ele>
        <time>2011-10-16T11:08:32Z</time>
      </trkpt>
      <trkpt lat="46.64398" lon="6.11591">
        <ele>1202.75</ele>
        <time>2011-10-16T11:08:33Z</time>
      </trkpt>
      <trkpt lat="46.64399" lon="6.11594">
        <ele>1201.3</ele>
        <time>2011-10-16T11:08:34Z</time>
      </trkpt>
      <trkpt lat="46.64397" lon="6.11611">
        <ele>1201.3</ele>
        <time>2011-10-16T11:08:45Z</time>
      </trkpt>
      <trkpt lat="46.64396" lon="6.11614">
        <ele>1203.23</ele>
        <time>2011-10-16T11:08:46Z</time>
      </trkpt>
      <trkpt lat="46.64396" lon="6.11616">
        <ele>1202.75</ele>
        <time>2011-10-16T11:08:47Z</time>
      </trkpt>
      <trkpt lat="46.64396" lon="6.11619">
        <ele>1202.75</ele>
        <time>2011-10-16T11:08:48Z</time>
      </trkpt>
      <trkpt lat="46.64387" lon="6.11647">
        <ele>1204.67</ele>
        <time>2011-10-16T11:08:59Z</time>
      </trkpt>
      <trkpt lat="46.64385" lon="6.1165">
        <ele>1205.63</ele>
        <time>2011-10-16T11:09:01Z</time>
      </trkpt>
      <trkpt lat="46.64372" lon="6.11669">
        <ele>1207.07</ele>
        <time>2011-10-16T11:09:15Z</time>
      </trkpt>
      <trkpt lat="46.64357" lon="6.11677">
        <ele>1209</ele>
        <time>2011-10-16T11:09:27Z</time>
      </trkpt>
      <trkpt lat="46.64354" lon="6.11679">
        <ele>1210.92</ele>
        <time>2011-10-16T11:09:34Z</time>
      </trkpt>
      <trkpt lat="46.64346" lon="6.11683">
        <ele>1212.36</ele>
        <time>2011-10-16T11:09:44Z</time>
      </trkpt>
      <trkpt lat="46.64332" lon="6.11691">
        <ele>1213.8</ele>
        <time>2011-10-16T11:09:54Z</time>
      </trkpt>
      <trkpt lat="46.64329" lon="6.11693">
        <ele>1213.32</ele>
        <time>2011-10-16T11:09:56Z</time>
      </trkpt>
      <trkpt lat="46.64325" lon="6.11694">
        <ele>1215.24</ele>
        <time>2011-10-16T11:09:58Z</time>
      </trkpt>
      <trkpt lat="46.64306" lon="6.11707">
        <ele>1216.21</ele>
        <time>2011-10-16T11:10:09Z</time>
      </trkpt>
      <trkpt lat="46.64285" lon="6.11731">
        <ele>1217.65</ele>
        <time>2011-10-16T11:10:19Z</time>
      </trkpt>
      <trkpt lat="46.64251" lon="6.11761">
        <ele>1220.05</ele>
        <time>2011-10-16T11:10:31Z</time>
      </trkpt>
      <trkpt lat="46.64249" lon="6.11762">
        <ele>1220.53</ele>
        <time>2011-10-16T11:10:32Z</time>
      </trkpt>
      <trkpt lat="46.64243" lon="6.11763">
        <ele>1221.01</ele>
        <time>2011-10-16T11:10:36Z</time>
      </trkpt>
      <trkpt lat="46.6424" lon="6.11765">
        <ele>1222.45</ele>
        <time>2011-10-16T11:10:39Z</time>
      </trkpt>
      <trkpt lat="46.64235" lon="6.11768">
        <ele>1222.93</ele>
        <time>2011-10-16T11:10:42Z</time>
      </trkpt>
      <trkpt lat="46.64234" lon="6.11767">
        <ele>1221.97</ele>
        <time>2011-10-16T11:10:43Z</time>
      </trkpt>
      <trkpt lat="46.64233" lon="6.11767">
        <ele>1223.42</ele>
        <time>2011-10-16T11:10:44Z</time>
      </trkpt>
      <trkpt lat="46.64232" lon="6.11766">
        <ele>1223.9</ele>
        <time>2011-10-16T11:10:45Z</time>
      </trkpt>
      <trkpt lat="46.6423" lon="6.11766">
        <ele>1223.42</ele>
        <time>2011-10-16T11:10:46Z</time>
      </trkpt>
      <trkpt lat="46.64217" lon="6.11769">
        <ele>1225.82</ele>
        <time>2011-10-16T11:10:54Z</time>
      </trkpt>
      <trkpt lat="46.64207" lon="6.11776">
        <ele>1225.82</ele>
        <time>2011-10-16T11:10:58Z</time>
      </trkpt>
      <trkpt lat="46.64193" lon="6.11787">
        <ele>1227.74</ele>
        <time>2011-10-16T11:11:09Z</time>
      </trkpt>
      <trkpt lat="46.64188" lon="6.11788">
        <ele>1228.22</ele>
        <time>2011-10-16T11:11:12Z</time>
      </trkpt>
      <trkpt lat="46.64186" lon="6.1179">
        <ele>1227.74</ele>
        <time>2011-10-16T11:11:13Z</time>
      </trkpt>
      <trkpt lat="46.64184" lon="6.11792">
        <ele>1227.74</ele>
        <time>2011-10-16T11:11:14Z</time>
      </trkpt>
      <trkpt lat="46.64181" lon="6.11795">
        <ele>1227.74</ele>
        <time>2011-10-16T11:11:15Z</time>
      </trkpt>
      <trkpt lat="46.64172" lon="6.11803">
        <ele>1228.7</ele>
        <time>2011-10-16T11:11:19Z</time>
      </trkpt>
      <trkpt lat="46.64167" lon="6.11807">
        <ele>1229.18</ele>
        <time>2011-10-16T11:11:21Z</time>
      </trkpt>
      <trkpt lat="46.64165" lon="6.11808">
        <ele>1229.18</ele>
        <time>2011-10-16T11:11:22Z</time>
      </trkpt>
      <trkpt lat="46.64164" lon="6.1181">
        <ele>1229.18</ele>
        <time>2011-10-16T11:11:23Z</time>
      </trkpt>
      <trkpt lat="46.64162" lon="6.11811">
        <ele>1229.18</ele>
        <time>2011-10-16T11:11:24Z</time>
      </trkpt>
      <trkpt lat="46.64159" lon="6.11814">
        <ele>1230.14</ele>
        <time>2011-10-16T11:11:25Z</time>
      </trkpt>
      <trkpt lat="46.6414" lon="6.11833">
        <ele>1229.66</ele>
        <time>2011-10-16T11:11:39Z</time>
      </trkpt>
      <trkpt lat="46.64125" lon="6.11837">
        <ele>1228.22</ele>
        <time>2011-10-16T11:11:44Z</time>
      </trkpt>
      <trkpt lat="46.64124" lon="6.11836">
        <ele>1209.60546875</ele>
      </trkpt>
      <trkpt lat="46.64125" lon="6.11843">
        <ele>1208.8046875</ele>
      </trkpt>
      <trkpt lat="46.64123" lon="6.1185">
        <ele>1208.2265625</ele>
      </trkpt>
      <trkpt lat="46.64118" lon="6.11853">
        <ele>1208.16015625</ele>
      </trkpt>
      <trkpt lat="46.64114" lon="6.11855">
        <ele>1208.05859375</ele>
      </trkpt>
      <trkpt lat="46.64108" lon="6.11855">
        <ele>1208.21484375</ele>
      </trkpt>
      <trkpt lat="46.64102" lon="6.11855">
        <ele>1208.36328125</ele>
      </trkpt>
      <trkpt lat="46.64098" lon="6.11855">
        <ele>1208.203125</ele>
      </trkpt>
      <trkpt lat="46.64096" lon="6.11857">
        <ele>1228.22</ele>
        <time>2011-10-16T11:14:32Z</time>
      </trkpt>
      <trkpt lat="46.64091" lon="6.11869">
        <ele>1227.26</ele>
        <time>2011-10-16T11:14:34Z</time>
      </trkpt>
      <trkpt lat="46.64087" lon="6.11876">
        <ele>1221.49</ele>
        <time>2011-10-16T11:14:35Z</time>
      </trkpt>
      <trkpt lat="46.64085" lon="6.11881">
        <ele>1224.86</ele>
        <time>2011-10-16T11:14:36Z</time>
      </trkpt>
      <trkpt lat="46.64082" lon="6.11884">
        <ele>1224.38</ele>
        <time>2011-10-16T11:14:37Z</time>
      </trkpt>
      <trkpt lat="46.6408" lon="6.11887">
        <ele>1225.34</ele>
        <time>2011-10-16T11:14:38Z</time>
      </trkpt>
      <trkpt lat="46.64077" lon="6.11891">
        <ele>1225.34</ele>
        <time>2011-10-16T11:14:39Z</time>
      </trkpt>
      <trkpt lat="46.64074" lon="6.11895">
        <ele>1225.82</ele>
        <time>2011-10-16T11:14:40Z</time>
      </trkpt>
      <trkpt lat="46.64071" lon="6.11898">
        <ele>1223.42</ele>
        <time>2011-10-16T11:14:41Z</time>
      </trkpt>
      <trkpt lat="46.64067" lon="6.119">
        <ele>1222.93</ele>
        <time>2011-10-16T11:14:42Z</time>
      </trkpt>
      <trkpt lat="46.64065" lon="6.11902">
        <ele>1223.9</ele>
        <time>2011-10-16T11:14:43Z</time>
      </trkpt>
      <trkpt lat="46.64063" lon="6.11904">
        <ele>1223.9</ele>
        <time>2011-10-16T11:14:44Z</time>
      </trkpt>
      <trkpt lat="46.64061" lon="6.11906">
        <ele>1221.49</ele>
        <time>2011-10-16T11:14:45Z</time>
      </trkpt>
      <trkpt lat="46.64058" lon="6.11908">
        <ele>1222.45</ele>
        <time>2011-10-16T11:14:46Z</time>
      </trkpt>
      <trkpt lat="46.64054" lon="6.11909">
        <ele>1222.93</ele>
        <time>2011-10-16T11:14:47Z</time>
      </trkpt>
      <trkpt lat="46.6405" lon="6.1191">
        <ele>1223.42</ele>
        <time>2011-10-16T11:14:48Z</time>
      </trkpt>
      <trkpt lat="46.64045" lon="6.11912">
        <ele>1222.93</ele>
        <time>2011-10-16T11:14:49Z</time>
      </trkpt>
      <trkpt lat="46.64043" lon="6.11914">
        <ele>1220.53</ele>
        <time>2011-10-16T11:14:50Z</time>
      </trkpt>
      <trkpt lat="46.6404" lon="6.11916">
        <ele>1221.97</ele>
        <time>2011-10-16T11:14:51Z</time>
      </trkpt>
      <trkpt lat="46.64024" lon="6.11934">
        <ele>1218.61</ele>
        <time>2011-10-16T11:14:57Z</time>
      </trkpt>
      <trkpt lat="46.64011" lon="6.11942">
        <ele>1217.17</ele>
        <time>2011-10-16T11:15:01Z</time>
      </trkpt>
      <trkpt lat="46.6399" lon="6.1196">
        <ele>1217.17</ele>
        <time>2011-10-16T11:15:11Z</time>
      </trkpt>
      <trkpt lat="46.63987" lon="6.1196">
        <ele>1211.88</ele>
        <time>2011-10-16T11:15:13Z</time>
      </trkpt>
      <trkpt lat="46.63959" lon="6.11978">
        <ele>1213.8</ele>
        <time>2011-10-16T11:15:22Z</time>
      </trkpt>
      <trkpt lat="46.63938" lon="6.11995">
        <ele>1212.84</ele>
        <time>2011-10-16T11:15:32Z</time>
      </trkpt>
      <trkpt lat="46.63934" lon="6.11998">
        <ele>1213.32</ele>
        <time>2011-10-16T11:15:34Z</time>
      </trkpt>
      <trkpt lat="46.6391" lon="6.12014">
        <ele>1210.92</ele>
        <time>2011-10-16T11:15:45Z</time>
      </trkpt>
      <trkpt lat="46.63903" lon="6.12018">
        <ele>1210.92</ele>
        <time>2011-10-16T11:15:48Z</time>
      </trkpt>
      <trkpt lat="46.63902" lon="6.1202">
        <ele>1210.92</ele>
        <time>2011-10-16T11:15:49Z</time>
      </trkpt>
      <trkpt lat="46.639" lon="6.12021">
        <ele>1212.36</ele>
        <time>2011-10-16T11:15:50Z</time>
      </trkpt>
      <trkpt lat="46.63899" lon="6.12023">
        <ele>1210.44</ele>
        <time>2011-10-16T11:15:51Z</time>
      </trkpt>
      <trkpt lat="46.63898" lon="6.12025">
        <ele>1208.51</ele>
        <time>2011-10-16T11:15:52Z</time>
      </trkpt>
      <trkpt lat="46.63897" lon="6.12027">
        <ele>1208.51</ele>
        <time>2011-10-16T11:15:53Z</time>
      </trkpt>
      <trkpt lat="46.63896" lon="6.12028">
        <ele>1209</ele>
        <time>2011-10-16T11:15:54Z</time>
      </trkpt>
      <trkpt lat="46.63887" lon="6.12041">
        <ele>1209</ele>
        <time>2011-10-16T11:16:00Z</time>
      </trkpt>
      <trkpt lat="46.63882" lon="6.12048">
        <ele>1207.55</ele>
        <time>2011-10-16T11:16:03Z</time>
      </trkpt>
      <trkpt lat="46.63877" lon="6.12057">
        <ele>1208.51</ele>
        <time>2011-10-16T11:16:07Z</time>
      </trkpt>
      <trkpt lat="46.63876" lon="6.12058">
        <ele>1209</ele>
        <time>2011-10-16T11:16:08Z</time>
      </trkpt>
      <trkpt lat="46.63873" lon="6.12068">
        <ele>1208.03</ele>
        <time>2011-10-16T11:16:20Z</time>
      </trkpt>
      <trkpt lat="46.63873" lon="6.12068">
        <ele>1209.96</ele>
        <time>2011-10-16T11:16:52Z</time>
      </trkpt>
      <trkpt lat="46.63872" lon="6.12069">
        <ele>1209.48</ele>
        <time>2011-10-16T11:17:26Z</time>
      </trkpt>
      <trkpt lat="46.63874" lon="6.12072">
        <ele>1209</ele>
        <time>2011-10-16T11:17:50Z</time>
      </trkpt>
      <trkpt lat="46.63876" lon="6.12074">
        <ele>1209.48</ele>
        <time>2011-10-16T11:17:51Z</time>
      </trkpt>
      <trkpt lat="46.63891" lon="6.12083">
        <ele>1209.48</ele>
        <time>2011-10-16T11:18:02Z</time>
      </trkpt>
      <trkpt lat="46.63896" lon="6.12079">
        <ele>1209.48</ele>
        <time>2011-10-16T11:18:08Z</time>
      </trkpt>
      <trkpt lat="46.63898" lon="6.12079">
        <ele>1209.48</ele>
        <time>2011-10-16T11:18:09Z</time>
      </trkpt>
      <trkpt lat="46.63899" lon="6.12078">
        <ele>1209.48</ele>
        <time>2011-10-16T11:18:10Z</time>
      </trkpt>
      <trkpt lat="46.63901" lon="6.12078">
        <ele>1209</ele>
        <time>2011-10-16T11:18:11Z</time>
      </trkpt>
      <trkpt lat="46.63915" lon="6.12082">
        <ele>1209.48</ele>
        <time>2011-10-16T11:18:21Z</time>
      </trkpt>
      <trkpt lat="46.63933" lon="6.12092">
        <ele>1209.48</ele>
        <time>2011-10-16T11:18:33Z</time>
      </trkpt>
      <trkpt lat="46.63948" lon="6.12098">
        <ele>1208.51</ele>
        <time>2011-10-16T11:18:42Z</time>
      </trkpt>
      <trkpt lat="46.63958" lon="6.12108">
        <ele>1209</ele>
        <time>2011-10-16T11:18:50Z</time>
      </trkpt>
      <trkpt lat="46.63979" lon="6.12132">
        <ele>1208.03</ele>
        <time>2011-10-16T11:19:02Z</time>
      </trkpt>
      <trkpt lat="46.63989" lon="6.12143">
        <ele>1209</ele>
        <time>2011-10-16T11:19:08Z</time>
      </trkpt>
      <trkpt lat="46.63993" lon="6.12146">
        <ele>1208.51</ele>
        <time>2011-10-16T11:19:11Z</time>
      </trkpt>
      <trkpt lat="46.64011" lon="6.12162">
        <ele>1209</ele>
        <time>2011-10-16T11:19:25Z</time>
      </trkpt>
      <trkpt lat="46.6403" lon="6.12171">
        <ele>1208.51</ele>
        <time>2011-10-16T11:19:37Z</time>
      </trkpt>
      <trkpt lat="46.64036" lon="6.12175">
        <ele>1208.03</ele>
        <time>2011-10-16T11:19:41Z</time>
      </trkpt>
      <trkpt lat="46.64038" lon="6.12176">
        <ele>1208.03</ele>
        <time>2011-10-16T11:19:42Z</time>
      </trkpt>
      <trkpt lat="46.6404" lon="6.12178">
        <ele>1208.03</ele>
        <time>2011-10-16T11:19:43Z</time>
      </trkpt>
      <trkpt lat="46.64045" lon="6.1218">
        <ele>1207.07</ele>
        <time>2011-10-16T11:19:46Z</time>
      </trkpt>
      <trkpt lat="46.64061" lon="6.12192">
        <ele>1205.15</ele>
        <time>2011-10-16T11:19:59Z</time>
      </trkpt>
      <trkpt lat="46.64065" lon="6.12196">
        <ele>1199.38</ele>
        <time>2011-10-16T11:20:07Z</time>
      </trkpt>
      <trkpt lat="46.64065" lon="6.12196">
        <ele>1205.63</ele>
        <time>2011-10-16T11:20:08Z</time>
      </trkpt>
      <trkpt lat="46.64068" lon="6.12198">
        <ele>1199.38</ele>
        <time>2011-10-16T11:20:17Z</time>
      </trkpt>
      <trkpt lat="46.64068" lon="6.12198">
        <ele>1203.71</ele>
        <time>2011-10-16T11:20:18Z</time>
      </trkpt>
      <trkpt lat="46.64068" lon="6.12198">
        <ele>1199.38</ele>
        <time>2011-10-16T11:20:21Z</time>
      </trkpt>
      <trkpt lat="46.64068" lon="6.12198">
        <ele>1199.86</ele>
        <time>2011-10-16T11:20:22Z</time>
      </trkpt>
      <trkpt lat="46.64068" lon="6.12198">
        <ele>1208.51</ele>
        <time>2011-10-16T11:20:23Z</time>
      </trkpt>
      <trkpt lat="46.64068" lon="6.12198">
        <ele>1208.03</ele>
        <time>2011-10-16T11:20:24Z</time>
      </trkpt>
      <trkpt lat="46.64068" lon="6.12198">
        <ele>1201.3</ele>
        <time>2011-10-16T11:20:25Z</time>
      </trkpt>
      <trkpt lat="46.64068" lon="6.12198">
        <ele>1202.75</ele>
        <time>2011-10-16T11:20:26Z</time>
      </trkpt>
      <trkpt lat="46.64068" lon="6.12198">
        <ele>1212.84</ele>
        <time>2011-10-16T11:20:27Z</time>
      </trkpt>
      <trkpt lat="46.64068" lon="6.12198">
        <ele>1205.63</ele>
        <time>2011-10-16T11:20:28Z</time>
      </trkpt>
      <trkpt lat="46.64068" lon="6.12198">
        <ele>1204.19</ele>
        <time>2011-10-16T11:20:30Z</time>
      </trkpt>
      <trkpt lat="46.64068" lon="6.12198">
        <ele>1204.67</ele>
        <time>2011-10-16T11:20:38Z</time>
      </trkpt>
      <trkpt lat="46.64075" lon="6.12204">
        <ele>1203.71</ele>
        <time>2011-10-16T11:20:51Z</time>
      </trkpt>
      <trkpt lat="46.64083" lon="6.12215">
        <ele>1205.15</ele>
        <time>2011-10-16T11:21:34Z</time>
      </trkpt>
      <trkpt lat="46.64089" lon="6.12228">
        <ele>1205.15</ele>
        <time>2011-10-16T11:21:47Z</time>
      </trkpt>
      <trkpt lat="46.64093" lon="6.12237">
        <ele>1205.15</ele>
        <time>2011-10-16T11:22:02Z</time>
      </trkpt>
      <trkpt lat="46.64094" lon="6.1224">
        <ele>1204.67</ele>
        <time>2011-10-16T11:22:03Z</time>
      </trkpt>
      <trkpt lat="46.64097" lon="6.12247">
        <ele>1204.67</ele>
        <time>2011-10-16T11:22:05Z</time>
      </trkpt>
      <trkpt lat="46.64098" lon="6.1225">
        <ele>1203.71</ele>
        <time>2011-10-16T11:22:06Z</time>
      </trkpt>
      <trkpt lat="46.64099" lon="6.12253">
        <ele>1204.19</ele>
        <time>2011-10-16T11:22:07Z</time>
      </trkpt>
      <trkpt lat="46.64106" lon="6.12273">
        <ele>1203.23</ele>
        <time>2011-10-16T11:22:18Z</time>
      </trkpt>
      <trkpt lat="46.64114" lon="6.12284">
        <ele>1202.27</ele>
        <time>2011-10-16T11:22:30Z</time>
      </trkpt>
      <trkpt lat="46.64116" lon="6.12286">
        <ele>1202.27</ele>
        <time>2011-10-16T11:22:44Z</time>
      </trkpt>
      <trkpt lat="46.6412" lon="6.1229">
        <ele>1201.79</ele>
        <time>2011-10-16T11:22:56Z</time>
      </trkpt>
      <trkpt lat="46.64122" lon="6.12294">
        <ele>1201.79</ele>
        <time>2011-10-16T11:23:01Z</time>
      </trkpt>
      <trkpt lat="46.64131" lon="6.123">
        <ele>1201.3</ele>
        <time>2011-10-16T11:23:11Z</time>
      </trkpt>
      <trkpt lat="46.64139" lon="6.12303">
        <ele>1203.71</ele>
        <time>2011-10-16T11:23:23Z</time>
      </trkpt>
      <trkpt lat="46.64147" lon="6.12301">
        <ele>1205.15</ele>
        <time>2011-10-16T11:23:33Z</time>
      </trkpt>
      <trkpt lat="46.64154" lon="6.12299">
        <ele>1205.63</ele>
        <time>2011-10-16T11:23:44Z</time>
      </trkpt>
      <trkpt lat="46.64154" lon="6.12299">
        <ele>1204.19</ele>
        <time>2011-10-16T11:24:00Z</time>
      </trkpt>
      <trkpt lat="46.64159" lon="6.12296">
        <ele>1203.71</ele>
        <time>2011-10-16T11:24:07Z</time>
      </trkpt>
      <trkpt lat="46.64161" lon="6.12295">
        <ele>1204.67</ele>
        <time>2011-10-16T11:24:09Z</time>
      </trkpt>
      <trkpt lat="46.64162" lon="6.12294">
        <ele>1204.19</ele>
        <time>2011-10-16T11:24:15Z</time>
      </trkpt>
      <trkpt lat="46.64173" lon="6.12292">
        <ele>1204.19</ele>
        <time>2011-10-16T11:24:25Z</time>
      </trkpt>
      <trkpt lat="46.64185" lon="6.12293">
        <ele>1204.19</ele>
        <time>2011-10-16T11:24:36Z</time>
      </trkpt>
      <trkpt lat="46.64194" lon="6.12295">
        <ele>1204.19</ele>
        <time>2011-10-16T11:24:47Z</time>
      </trkpt>
      <trkpt lat="46.64196" lon="6.12297">
        <ele>1204.19</ele>
        <time>2011-10-16T11:24:54Z</time>
      </trkpt>
      <trkpt lat="46.64199" lon="6.123">
        <ele>1204.67</ele>
        <time>2011-10-16T11:25:05Z</time>
      </trkpt>
      <trkpt lat="46.642" lon="6.12305">
        <ele>1203.71</ele>
        <time>2011-10-16T11:25:21Z</time>
      </trkpt>
      <trkpt lat="46.64202" lon="6.12304">
        <ele>1203.23</ele>
        <time>2011-10-16T11:27:23Z</time>
      </trkpt>
      <trkpt lat="46.64202" lon="6.12304">
        <ele>1201.3</ele>
        <time>2011-10-16T11:28:30Z</time>
      </trkpt>
      <trkpt lat="46.64213" lon="6.12313">
        <ele>1202.27</ele>
        <time>2011-10-16T11:28:55Z</time>
      </trkpt>
      <trkpt lat="46.64218" lon="6.12319">
        <ele>1202.27</ele>
        <time>2011-10-16T11:29:11Z</time>
      </trkpt>
      <trkpt lat="46.64222" lon="6.12325">
        <ele>1201.79</ele>
        <time>2011-10-16T11:29:14Z</time>
      </trkpt>
      <trkpt lat="46.64228" lon="6.12338">
        <ele>1200.34</ele>
        <time>2011-10-16T11:29:21Z</time>
      </trkpt>
      <trkpt lat="46.64231" lon="6.12346">
        <ele>1201.3</ele>
        <time>2011-10-16T11:29:25Z</time>
      </trkpt>
      <trkpt lat="46.64237" lon="6.12362">
        <ele>1199.86</ele>
        <time>2011-10-16T11:29:30Z</time>
      </trkpt>
      <trkpt lat="46.64252" lon="6.12399">
        <ele>1199.38</ele>
        <time>2011-10-16T11:29:44Z</time>
      </trkpt>
      <trkpt lat="46.64252" lon="6.12421">
        <ele>1199.38</ele>
        <time>2011-10-16T11:29:53Z</time>
      </trkpt>
      <trkpt lat="46.64252" lon="6.12432">
        <ele>1196.98</ele>
        <time>2011-10-16T11:29:56Z</time>
      </trkpt>
      <trkpt lat="46.64252" lon="6.12439">
        <ele>1196.5</ele>
        <time>2011-10-16T11:29:58Z</time>
      </trkpt>
      <trkpt lat="46.64251" lon="6.12465">
        <ele>1197.94</ele>
        <time>2011-10-16T11:30:09Z</time>
      </trkpt>
      <trkpt lat="46.64249" lon="6.12469">
        <ele>1197.94</ele>
        <time>2011-10-16T11:30:12Z</time>
      </trkpt>
      <trkpt lat="46.64231" lon="6.12504">
        <ele>1198.9</ele>
        <time>2011-10-16T11:30:23Z</time>
      </trkpt>
      <trkpt lat="46.64228" lon="6.12517">
        <ele>1197.94</ele>
        <time>2011-10-16T11:30:36Z</time>
      </trkpt>
      <trkpt lat="46.64227" lon="6.12518">
        <ele>1198.42</ele>
        <time>2011-10-16T11:31:02Z</time>
      </trkpt>
      <trkpt lat="46.64224" lon="6.12523">
        <ele>1197.94</ele>
        <time>2011-10-16T11:31:06Z</time>
      </trkpt>
      <trkpt lat="46.64219" lon="6.12553">
        <ele>1197.94</ele>
        <time>2011-10-16T11:31:18Z</time>
      </trkpt>
      <trkpt lat="46.6422" lon="6.12558">
        <ele>1197.46</ele>
        <time>2011-10-16T11:31:21Z</time>
      </trkpt>
      <trkpt lat="46.64226" lon="6.12576">
        <ele>1197.94</ele>
        <time>2011-10-16T11:31:28Z</time>
      </trkpt>
      <trkpt lat="46.64224" lon="6.126">
        <ele>1187.37</ele>
        <time>2011-10-16T11:31:37Z</time>
      </trkpt>
      <trkpt lat="46.64224" lon="6.12614">
        <ele>1197.46</ele>
        <time>2011-10-16T11:31:43Z</time>
      </trkpt>
      <trkpt lat="46.64235" lon="6.12637">
        <ele>1196.5</ele>
        <time>2011-10-16T11:31:57Z</time>
      </trkpt>
      <trkpt lat="46.64239" lon="6.12642">
        <ele>1195.06</ele>
        <time>2011-10-16T11:32:01Z</time>
      </trkpt>
      <trkpt lat="46.64246" lon="6.12663">
        <ele>1195.54</ele>
        <time>2011-10-16T11:32:15Z</time>
      </trkpt>
      <trkpt lat="46.64246" lon="6.12663">
        <ele>1196.02</ele>
        <time>2011-10-16T11:32:16Z</time>
      </trkpt>
      <trkpt lat="46.64255" lon="6.12677">
        <ele>1196.02</ele>
        <time>2011-10-16T11:32:23Z</time>
      </trkpt>
      <trkpt lat="46.64277" lon="6.12688">
        <ele>1195.06</ele>
        <time>2011-10-16T11:32:33Z</time>
      </trkpt>
      <trkpt lat="46.64292" lon="6.12694">
        <ele>1195.06</ele>
        <time>2011-10-16T11:32:39Z</time>
      </trkpt>
      <trkpt lat="46.64305" lon="6.12697">
        <ele>1194.09</ele>
        <time>2011-10-16T11:32:54Z</time>
      </trkpt>
      <trkpt lat="46.6431" lon="6.127">
        <ele>1194.09</ele>
        <time>2011-10-16T11:32:59Z</time>
      </trkpt>
      <trkpt lat="46.6433" lon="6.12705">
        <ele>1195.06</ele>
        <time>2011-10-16T11:33:11Z</time>
      </trkpt>
      <trkpt lat="46.64333" lon="6.12705">
        <ele>1174.59765625</ele>
      </trkpt>
      <trkpt lat="46.64335" lon="6.12711">
        <ele>1174.0078125</ele>
      </trkpt>
      <trkpt lat="46.64338" lon="6.12718">
        <ele>1173.828125</ele>
      </trkpt>
      <trkpt lat="46.6434" lon="6.12724">
        <ele>1173.65234375</ele>
      </trkpt>
      <trkpt lat="46.64343" lon="6.12729">
        <ele>1173.5703125</ele>
      </trkpt>
      <trkpt lat="46.64345" lon="6.12736">
        <ele>1173.296875</ele>
      </trkpt>
      <trkpt lat="46.64347" lon="6.12741">
        <ele>1173.21484375</ele>
      </trkpt>
      <trkpt lat="46.6435" lon="6.12746">
        <ele>1173.12890625</ele>
      </trkpt>
      <trkpt lat="46.64353" lon="6.12752">
        <ele>1173.05859375</ele>
      </trkpt>
      <trkpt lat="46.64355" lon="6.12758">
        <ele>1172.8515625</ele>
      </trkpt>
      <trkpt lat="46.64357" lon="6.12765">
        <ele>1172.7734375</ele>
      </trkpt>
      <trkpt lat="46.64361" lon="6.12771">
        <ele>1173.01953125</ele>
      </trkpt>
      <trkpt lat="46.64364" lon="6.12779">
        <ele>1173.12890625</ele>
      </trkpt>
      <trkpt lat="46.64366" lon="6.12785">
        <ele>1173.28125</ele>
      </trkpt>
      <trkpt lat="46.6437" lon="6.12792">
        <ele>1173.56640625</ele>
      </trkpt>
      <trkpt lat="46.64374" lon="6.12796">
        <ele>1174.01171875</ele>
      </trkpt>
      <trkpt lat="46.64376" lon="6.12801">
        <ele>1174.37890625</ele>
      </trkpt>
      <trkpt lat="46.64381" lon="6.12806">
        <ele>1175.08203125</ele>
      </trkpt>
      <trkpt lat="46.64384" lon="6.12811">
        <ele>1175.73046875</ele>
      </trkpt>
      <trkpt lat="46.64388" lon="6.12817">
        <ele>1176.37890625</ele>
      </trkpt>
      <trkpt lat="46.64392" lon="6.12819">
        <ele>1177.1875</ele>
      </trkpt>
      <trkpt lat="46.64397" lon="6.12824">
        <ele>1177.99609375</ele>
      </trkpt>
      <trkpt lat="46.644" lon="6.12828">
        <ele>1178.64453125</ele>
      </trkpt>
      <trkpt lat="46.64403" lon="6.12831">
        <ele>1179.12890625</ele>
      </trkpt>
      <trkpt lat="46.64404" lon="6.1283">
        <ele>1195.06</ele>
        <time>2011-10-16T11:39:23Z</time>
      </trkpt>
      <trkpt lat="46.64418" lon="6.12818">
        <ele>1197.46</ele>
        <time>2011-10-16T11:39:38Z</time>
      </trkpt>
      <trkpt lat="46.64421" lon="6.12816">
        <ele>1198.9</ele>
        <time>2011-10-16T11:39:49Z</time>
      </trkpt>
      <trkpt lat="46.64425" lon="6.12812">
        <ele>1198.42</ele>
        <time>2011-10-16T11:39:56Z</time>
      </trkpt>
      <trkpt lat="46.64433" lon="6.1281">
        <ele>1200.82</ele>
        <time>2011-10-16T11:40:10Z</time>
      </trkpt>
      <trkpt lat="46.64436" lon="6.1281">
        <ele>1201.3</ele>
        <time>2011-10-16T11:40:27Z</time>
      </trkpt>
      <trkpt lat="46.64447" lon="6.12807">
        <ele>1202.75</ele>
        <time>2011-10-16T11:40:33Z</time>
      </trkpt>
      <trkpt lat="46.64463" lon="6.128">
        <ele>1203.71</ele>
        <time>2011-10-16T11:40:42Z</time>
      </trkpt>
      <trkpt lat="46.64476" lon="6.12799">
        <ele>1203.71</ele>
        <time>2011-10-16T11:40:51Z</time>
      </trkpt>
      <trkpt lat="46.64494" lon="6.12789">
        <ele>1203.71</ele>
        <time>2011-10-16T11:41:03Z</time>
      </trkpt>
      <trkpt lat="46.64519" lon="6.12785">
        <ele>1204.67</ele>
        <time>2011-10-16T11:41:16Z</time>
      </trkpt>
      <trkpt lat="46.64519" lon="6.12785">
        <ele>1200.82</ele>
        <time>2011-10-16T11:41:31Z</time>
      </trkpt>
      <trkpt lat="46.64519" lon="6.12785">
        <ele>1201.3</ele>
        <time>2011-10-16T11:41:32Z</time>
      </trkpt>
      <trkpt lat="46.64519" lon="6.12785">
        <ele>1205.15</ele>
        <time>2011-10-16T11:41:34Z</time>
      </trkpt>
      <trkpt lat="46.64519" lon="6.12785">
        <ele>1204.19</ele>
        <time>2011-10-16T11:41:35Z</time>
      </trkpt>
      <trkpt lat="46.6452" lon="6.12784">
        <ele>1203.71</ele>
        <time>2011-10-16T11:42:32Z</time>
      </trkpt>
      <trkpt lat="46.6454" lon="6.12788">
        <ele>1202.27</ele>
        <time>2011-10-16T11:42:41Z</time>
      </trkpt>
      <trkpt lat="46.64544" lon="6.12788">
        <ele>1201.3</ele>
        <time>2011-10-16T11:42:45Z</time>
      </trkpt>
      <trkpt lat="46.64553" lon="6.12787">
        <ele>1202.75</ele>
        <time>2011-10-16T11:42:49Z</time>
      </trkpt>
      <trkpt lat="46.64562" lon="6.12783">
        <ele>1203.23</ele>
        <time>2011-10-16T11:42:52Z</time>
      </trkpt>
      <trkpt lat="46.64568" lon="6.1278">
        <ele>1202.75</ele>
        <time>2011-10-16T11:43:07Z</time>
      </trkpt>
      <trkpt lat="46.64568" lon="6.1278">
        <ele>1202.75</ele>
        <time>2011-10-16T11:43:20Z</time>
      </trkpt>
      <trkpt lat="46.64572" lon="6.1278">
        <ele>1201.3</ele>
        <time>2011-10-16T11:43:23Z</time>
      </trkpt>
      <trkpt lat="46.6458" lon="6.12778">
        <ele>1200.82</ele>
        <time>2011-10-16T11:43:29Z</time>
      </trkpt>
      <trkpt lat="46.64592" lon="6.1278">
        <ele>1200.82</ele>
        <time>2011-10-16T11:43:42Z</time>
      </trkpt>
      <trkpt lat="46.64594" lon="6.12783">
        <ele>1200.34</ele>
        <time>2011-10-16T11:44:12Z</time>
      </trkpt>
      <trkpt lat="46.646" lon="6.12792">
        <ele>1202.27</ele>
        <time>2011-10-16T11:44:26Z</time>
      </trkpt>
      <trkpt lat="46.64617" lon="6.12814">
        <ele>1201.3</ele>
        <time>2011-10-16T11:44:36Z</time>
      </trkpt>
      <trkpt lat="46.64622" lon="6.12817">
        <ele>1196.5</ele>
        <time>2011-10-16T11:44:39Z</time>
      </trkpt>
      <trkpt lat="46.64624" lon="6.12819">
        <ele>1200.34</ele>
        <time>2011-10-16T11:44:40Z</time>
      </trkpt>
      <trkpt lat="46.6464" lon="6.12832">
        <ele>1198.9</ele>
        <time>2011-10-16T11:44:49Z</time>
      </trkpt>
      <trkpt lat="46.64665" lon="6.12838">
        <ele>1198.9</ele>
        <time>2011-10-16T11:45:00Z</time>
      </trkpt>
      <trkpt lat="46.64692" lon="6.12831">
        <ele>1195.54</ele>
        <time>2011-10-16T11:45:12Z</time>
      </trkpt>
      <trkpt lat="46.64703" lon="6.12828">
        <ele>1196.98</ele>
        <time>2011-10-16T11:45:18Z</time>
      </trkpt>
      <trkpt lat="46.64714" lon="6.12824">
        <ele>1197.46</ele>
        <time>2011-10-16T11:45:23Z</time>
      </trkpt>
      <trkpt lat="46.6473" lon="6.12819">
        <ele>1194.09</ele>
        <time>2011-10-16T11:45:32Z</time>
      </trkpt>
      <trkpt lat="46.64743" lon="6.12808">
        <ele>1194.09</ele>
        <time>2011-10-16T11:45:37Z</time>
      </trkpt>
      <trkpt lat="46.64753" lon="6.128">
        <ele>1193.13</ele>
        <time>2011-10-16T11:45:41Z</time>
      </trkpt>
      <trkpt lat="46.6476" lon="6.12792">
        <ele>1193.61</ele>
        <time>2011-10-16T11:45:45Z</time>
      </trkpt>
      <trkpt lat="46.64777" lon="6.12757">
        <ele>1192.17</ele>
        <time>2011-10-16T11:45:55Z</time>
      </trkpt>
      <trkpt lat="46.64779" lon="6.12744">
        <ele>1192.17</ele>
        <time>2011-10-16T11:46:00Z</time>
      </trkpt>
      <trkpt lat="46.64782" lon="6.12729">
        <ele>1192.17</ele>
        <time>2011-10-16T11:46:06Z</time>
      </trkpt>
      <trkpt lat="46.64783" lon="6.12727">
        <ele>1192.65</ele>
        <time>2011-10-16T11:46:07Z</time>
      </trkpt>
      <trkpt lat="46.64782" lon="6.12714">
        <ele>1192.17</ele>
        <time>2011-10-16T11:46:11Z</time>
      </trkpt>
      <trkpt lat="46.64784" lon="6.12704">
        <ele>1192.17</ele>
        <time>2011-10-16T11:46:13Z</time>
      </trkpt>
      <trkpt lat="46.64788" lon="6.12674">
        <ele>1191.69</ele>
        <time>2011-10-16T11:46:24Z</time>
      </trkpt>
      <trkpt lat="46.64788" lon="6.12674">
        <ele>1192.65</ele>
        <time>2011-10-16T11:46:28Z</time>
      </trkpt>
      <trkpt lat="46.64792" lon="6.12646">
        <ele>1188.81</ele>
        <time>2011-10-16T11:46:36Z</time>
      </trkpt>
      <trkpt lat="46.64801" lon="6.126">
        <ele>1189.29</ele>
        <time>2011-10-16T11:46:47Z</time>
      </trkpt>
      <trkpt lat="46.64804" lon="6.12553">
        <ele>1191.21</ele>
        <time>2011-10-16T11:46:58Z</time>
      </trkpt>
      <trkpt lat="46.64805" lon="6.12524">
        <ele>1191.21</ele>
        <time>2011-10-16T11:47:05Z</time>
      </trkpt>
      <trkpt lat="46.64821" lon="6.12485">
        <ele>1189.29</ele>
        <time>2011-10-16T11:47:19Z</time>
      </trkpt>
      <trkpt lat="46.64831" lon="6.12462">
        <ele>1188.81</ele>
        <time>2011-10-16T11:47:31Z</time>
      </trkpt>
      <trkpt lat="46.64839" lon="6.12439">
        <ele>1189.29</ele>
        <time>2011-10-16T11:47:42Z</time>
      </trkpt>
      <trkpt lat="46.64841" lon="6.12435">
        <ele>1193.61</ele>
        <time>2011-10-16T11:47:43Z</time>
      </trkpt>
      <trkpt lat="46.64843" lon="6.12431">
        <ele>1189.77</ele>
        <time>2011-10-16T11:47:44Z</time>
      </trkpt>
      <trkpt lat="46.64843" lon="6.12429">
        <ele>1188.33</ele>
        <time>2011-10-16T11:47:45Z</time>
      </trkpt>
      <trkpt lat="46.64853" lon="6.12404">
        <ele>1183.52</ele>
        <time>2011-10-16T11:47:59Z</time>
      </trkpt>
      <trkpt lat="46.64853" lon="6.12404">
        <ele>1189.77</ele>
        <time>2011-10-16T11:48:00Z</time>
      </trkpt>
      <trkpt lat="46.64853" lon="6.12404">
        <ele>1186.4</ele>
        <time>2011-10-16T11:48:01Z</time>
      </trkpt>
      <trkpt lat="46.64853" lon="6.12404">
        <ele>1189.29</ele>
        <time>2011-10-16T11:48:03Z</time>
      </trkpt>
      <trkpt lat="46.64853" lon="6.12404">
        <ele>1186.4</ele>
        <time>2011-10-16T11:48:06Z</time>
      </trkpt>
      <trkpt lat="46.64853" lon="6.12403">
        <ele>1189.29</ele>
        <time>2011-10-16T11:48:36Z</time>
      </trkpt>
      <trkpt lat="46.64853" lon="6.12403">
        <ele>1187.85</ele>
        <time>2011-10-16T11:49:06Z</time>
      </trkpt>
      <trkpt lat="46.64854" lon="6.12401">
        <ele>1187.85</ele>
        <time>2011-10-16T11:50:12Z</time>
      </trkpt>
      <trkpt lat="46.64854" lon="6.12401">
        <ele>1188.33</ele>
        <time>2011-10-16T11:50:22Z</time>
      </trkpt>
      <trkpt lat="46.64856" lon="6.12395">
        <ele>1182.56</ele>
        <time>2011-10-16T11:51:39Z</time>
      </trkpt>
      <trkpt lat="46.64856" lon="6.12395">
        <ele>1186.88</ele>
        <time>2011-10-16T11:51:42Z</time>
      </trkpt>
      <trkpt lat="46.64856" lon="6.12394">
        <ele>1187.37</ele>
        <time>2011-10-16T11:52:47Z</time>
      </trkpt>
      <trkpt lat="46.64859" lon="6.12391">
        <ele>1186.4</ele>
        <time>2011-10-16T11:53:36Z</time>
      </trkpt>
      <trkpt lat="46.64876" lon="6.1238">
        <ele>1185.44</ele>
        <time>2011-10-16T11:53:43Z</time>
      </trkpt>
      <trkpt lat="46.649" lon="6.12366">
        <ele>1184</ele>
        <time>2011-10-16T11:53:54Z</time>
      </trkpt>
      <trkpt lat="46.64911" lon="6.12361">
        <ele>1183.52</ele>
        <time>2011-10-16T11:53:58Z</time>
      </trkpt>
      <trkpt lat="46.64936" lon="6.12332">
        <ele>1184</ele>
        <time>2011-10-16T11:54:10Z</time>
      </trkpt>
      <trkpt lat="46.64955" lon="6.12303">
        <ele>1184</ele>
        <time>2011-10-16T11:54:19Z</time>
      </trkpt>
      <trkpt lat="46.64962" lon="6.12295">
        <ele>1183.04</ele>
        <time>2011-10-16T11:54:22Z</time>
      </trkpt>
      <trkpt lat="46.64981" lon="6.12271">
        <ele>1182.56</ele>
        <time>2011-10-16T11:54:31Z</time>
      </trkpt>
      <trkpt lat="46.65006" lon="6.12241">
        <ele>1182.08</ele>
        <time>2011-10-16T11:54:42Z</time>
      </trkpt>
      <trkpt lat="46.65026" lon="6.12207">
        <ele>1182.56</ele>
        <time>2011-10-16T11:54:53Z</time>
      </trkpt>
      <trkpt lat="46.6504" lon="6.12196">
        <ele>1182.56</ele>
        <time>2011-10-16T11:55:08Z</time>
      </trkpt>
      <trkpt lat="46.65051" lon="6.12189">
        <ele>1181.6</ele>
        <time>2011-10-16T11:55:14Z</time>
      </trkpt>
      <trkpt lat="46.65053" lon="6.12188">
        <ele>1181.6</ele>
        <time>2011-10-16T11:55:30Z</time>
      </trkpt>
      <trkpt lat="46.65053" lon="6.12188">
        <ele>1182.56</ele>
        <time>2011-10-16T11:56:13Z</time>
      </trkpt>
      <trkpt lat="46.65053" lon="6.12188">
        <ele>1176.31</ele>
        <time>2011-10-16T11:56:30Z</time>
      </trkpt>
      <trkpt lat="46.65053" lon="6.12188">
        <ele>1184</ele>
        <time>2011-10-16T11:56:31Z</time>
      </trkpt>
      <trkpt lat="46.65053" lon="6.12188">
        <ele>1180.64</ele>
        <time>2011-10-16T11:56:39Z</time>
      </trkpt>
      <trkpt lat="46.65053" lon="6.12188">
        <ele>1182.08</ele>
        <time>2011-10-16T11:56:58Z</time>
      </trkpt>
      <trkpt lat="46.65063" lon="6.1218">
        <ele>1181.6</ele>
        <time>2011-10-16T11:57:38Z</time>
      </trkpt>
      <trkpt lat="46.65076" lon="6.12171">
        <ele>1180.64</ele>
        <time>2011-10-16T11:57:44Z</time>
      </trkpt>
      <trkpt lat="46.65098" lon="6.12158">
        <ele>1179.67</ele>
        <time>2011-10-16T11:57:55Z</time>
      </trkpt>
      <trkpt lat="46.6513" lon="6.12144">
        <ele>1178.71</ele>
        <time>2011-10-16T11:58:07Z</time>
      </trkpt>
      <trkpt lat="46.65156" lon="6.12152">
        <ele>1178.71</ele>
        <time>2011-10-16T11:58:15Z</time>
      </trkpt>
      <trkpt lat="46.65203" lon="6.12132">
        <ele>1178.23</ele>
        <time>2011-10-16T11:58:26Z</time>
      </trkpt>
      <trkpt lat="46.65211" lon="6.12131">
        <ele>1177.27</ele>
        <time>2011-10-16T11:58:39Z</time>
      </trkpt>
      <trkpt lat="46.65211" lon="6.12131">
        <ele>1173.43</ele>
        <time>2011-10-16T11:58:42Z</time>
      </trkpt>
      <trkpt lat="46.65211" lon="6.12131">
        <ele>1179.19</ele>
        <time>2011-10-16T11:58:43Z</time>
      </trkpt>
      <trkpt lat="46.65211" lon="6.12131">
        <ele>1178.23</ele>
        <time>2011-10-16T11:58:52Z</time>
      </trkpt>
      <trkpt lat="46.65211" lon="6.12131">
        <ele>1177.27</ele>
        <time>2011-10-16T11:59:02Z</time>
      </trkpt>
      <trkpt lat="46.65211" lon="6.12131">
        <ele>1179.19</ele>
        <time>2011-10-16T11:59:07Z</time>
      </trkpt>
      <trkpt lat="46.65211" lon="6.12131">
        <ele>1177.75</ele>
        <time>2011-10-16T11:59:10Z</time>
      </trkpt>
      <trkpt lat="46.65216" lon="6.12127">
        <ele>1177.75</ele>
        <time>2011-10-16T11:59:49Z</time>
      </trkpt>
      <trkpt lat="46.65217" lon="6.12125">
        <ele>1176.31</ele>
        <time>2011-10-16T11:59:50Z</time>
      </trkpt>
      <trkpt lat="46.65219" lon="6.12124">
        <ele>1177.27</ele>
        <time>2011-10-16T11:59:51Z</time>
      </trkpt>
      <trkpt lat="46.65221" lon="6.12121">
        <ele>1175.83</ele>
        <time>2011-10-16T11:59:53Z</time>
      </trkpt>
      <trkpt lat="46.65226" lon="6.12117">
        <ele>1175.35</ele>
        <time>2011-10-16T11:59:55Z</time>
      </trkpt>
      <trkpt lat="46.65256" lon="6.12099">
        <ele>1176.79</ele>
        <time>2011-10-16T12:00:06Z</time>
      </trkpt>
      <trkpt lat="46.6528" lon="6.12083">
        <ele>1173.43</ele>
        <time>2011-10-16T12:00:16Z</time>
      </trkpt>
      <trkpt lat="46.65295" lon="6.12062">
        <ele>1171.98</ele>
        <time>2011-10-16T12:00:25Z</time>
      </trkpt>
      <trkpt lat="46.6533" lon="6.1203">
        <ele>1170.06</ele>
        <time>2011-10-16T12:00:38Z</time>
      </trkpt>
      <trkpt lat="46.65347" lon="6.12007">
        <ele>1169.58</ele>
        <time>2011-10-16T12:00:48Z</time>
      </trkpt>
      <trkpt lat="46.65348" lon="6.12005">
        <ele>1170.54</ele>
        <time>2011-10-16T12:01:13Z</time>
      </trkpt>
      <trkpt lat="46.65356" lon="6.11989">
        <ele>1170.06</ele>
        <time>2011-10-16T12:01:19Z</time>
      </trkpt>
      <trkpt lat="46.65356" lon="6.11978">
        <ele>1172.47</ele>
        <time>2011-10-16T12:01:23Z</time>
      </trkpt>
      <trkpt lat="46.65356" lon="6.11975">
        <ele>1171.5</ele>
        <time>2011-10-16T12:01:24Z</time>
      </trkpt>
      <trkpt lat="46.65366" lon="6.11945">
        <ele>1172.47</ele>
        <time>2011-10-16T12:01:36Z</time>
      </trkpt>
      <trkpt lat="46.65367" lon="6.11942">
        <ele>1171.98</ele>
        <time>2011-10-16T12:01:37Z</time>
      </trkpt>
      <trkpt lat="46.65369" lon="6.11917">
        <ele>1172.47</ele>
        <time>2011-10-16T12:01:47Z</time>
      </trkpt>
      <trkpt lat="46.6537" lon="6.11897">
        <ele>1171.02</ele>
        <time>2011-10-16T12:01:51Z</time>
      </trkpt>
      <trkpt lat="46.65371" lon="6.11862">
        <ele>1170.54</ele>
        <time>2011-10-16T12:02:02Z</time>
      </trkpt>
      <trkpt lat="46.65358" lon="6.11829">
        <ele>1172.95</ele>
        <time>2011-10-16T12:02:16Z</time>
      </trkpt>
      <trkpt lat="46.65352" lon="6.11821">
        <ele>1172.95</ele>
        <time>2011-10-16T12:02:20Z</time>
      </trkpt>
      <trkpt lat="46.65352" lon="6.11781">
        <ele>1173.91</ele>
        <time>2011-10-16T12:02:31Z</time>
      </trkpt>
      <trkpt lat="46.65352" lon="6.11779">
        <ele>1173.91</ele>
        <time>2011-10-16T12:02:32Z</time>
      </trkpt>
      <trkpt lat="46.65351" lon="6.11765">
        <ele>1171.98</ele>
        <time>2011-10-16T12:02:37Z</time>
      </trkpt>
      <trkpt lat="46.65351" lon="6.11755">
        <ele>1171.98</ele>
        <time>2011-10-16T12:02:40Z</time>
      </trkpt>
      <trkpt lat="46.65354" lon="6.11712">
        <ele>1171.02</ele>
        <time>2011-10-16T12:02:51Z</time>
      </trkpt>
      <trkpt lat="46.65364" lon="6.11689">
        <ele>1170.54</ele>
        <time>2011-10-16T12:03:02Z</time>
      </trkpt>
      <trkpt lat="46.6538" lon="6.11673">
        <ele>1171.5</ele>
        <time>2011-10-16T12:03:11Z</time>
      </trkpt>
      <trkpt lat="46.65383" lon="6.11668">
        <ele>1171.5</ele>
        <time>2011-10-16T12:03:31Z</time>
      </trkpt>
      <trkpt lat="46.65386" lon="6.11665">
        <ele>1171.5</ele>
        <time>2011-10-16T12:03:34Z</time>
      </trkpt>
      <trkpt lat="46.65402" lon="6.11643">
        <ele>1170.06</ele>
        <time>2011-10-16T12:03:43Z</time>
      </trkpt>
      <trkpt lat="46.65429" lon="6.11599">
        <ele>1168.14</ele>
        <time>2011-10-16T12:03:57Z</time>
      </trkpt>
      <trkpt lat="46.6543" lon="6.11561">
        <ele>1167.18</ele>
        <time>2011-10-16T12:04:10Z</time>
      </trkpt>
      <trkpt lat="46.65424" lon="6.11543">
        <ele>1166.7</ele>
        <time>2011-10-16T12:04:15Z</time>
      </trkpt>
      <trkpt lat="46.65422" lon="6.11496">
        <ele>1167.18</ele>
        <time>2011-10-16T12:04:26Z</time>
      </trkpt>
      <trkpt lat="46.65415" lon="6.11466">
        <ele>1167.66</ele>
        <time>2011-10-16T12:04:37Z</time>
      </trkpt>
      <trkpt lat="46.65405" lon="6.11436">
        <ele>1165.26</ele>
        <time>2011-10-16T12:04:46Z</time>
      </trkpt>
      <trkpt lat="46.654" lon="6.11427">
        <ele>1166.22</ele>
        <time>2011-10-16T12:04:51Z</time>
      </trkpt>
      <trkpt lat="46.6539" lon="6.11403">
        <ele>1167.66</ele>
        <time>2011-10-16T12:05:01Z</time>
      </trkpt>
      <trkpt lat="46.65388" lon="6.11399">
        <ele>1169.1</ele>
        <time>2011-10-16T12:05:04Z</time>
      </trkpt>
      <trkpt lat="46.65381" lon="6.11389">
        <ele>1169.58</ele>
        <time>2011-10-16T12:05:12Z</time>
      </trkpt>
      <trkpt lat="46.65371" lon="6.11374">
        <ele>1169.58</ele>
        <time>2011-10-16T12:05:24Z</time>
      </trkpt>
      <trkpt lat="46.65365" lon="6.11364">
        <ele>1171.02</ele>
        <time>2011-10-16T12:05:29Z</time>
      </trkpt>
      <trkpt lat="46.65348" lon="6.11344">
        <ele>1171.02</ele>
        <time>2011-10-16T12:05:39Z</time>
      </trkpt>
      <trkpt lat="46.65338" lon="6.11335">
        <ele>1171.98</ele>
        <time>2011-10-16T12:05:44Z</time>
      </trkpt>
      <trkpt lat="46.65337" lon="6.11322">
        <ele>1171.98</ele>
        <time>2011-10-16T12:05:50Z</time>
      </trkpt>
      <trkpt lat="46.65341" lon="6.11313">
        <ele>1171.5</ele>
        <time>2011-10-16T12:05:55Z</time>
      </trkpt>
      <trkpt lat="46.65347" lon="6.11306">
        <ele>1172.47</ele>
        <time>2011-10-16T12:06:02Z</time>
      </trkpt>
      <trkpt lat="46.65349" lon="6.11302">
        <ele>1171.02</ele>
        <time>2011-10-16T12:06:04Z</time>
      </trkpt>
      <trkpt lat="46.65353" lon="6.11294">
        <ele>1173.43</ele>
        <time>2011-10-16T12:06:09Z</time>
      </trkpt>
      <trkpt lat="46.65359" lon="6.11283">
        <ele>1172.47</ele>
        <time>2011-10-16T12:06:13Z</time>
      </trkpt>
      <trkpt lat="46.65359" lon="6.11281">
        <ele>1172.95</ele>
        <time>2011-10-16T12:06:14Z</time>
      </trkpt>
      <trkpt lat="46.65362" lon="6.11277">
        <ele>1172.95</ele>
        <time>2011-10-16T12:06:22Z</time>
      </trkpt>
      <trkpt lat="46.65366" lon="6.1127">
        <ele>1172.47</ele>
        <time>2011-10-16T12:06:27Z</time>
      </trkpt>
      <trkpt lat="46.65369" lon="6.11267">
        <ele>1169.58</ele>
        <time>2011-10-16T12:06:30Z</time>
      </trkpt>
      <trkpt lat="46.6537" lon="6.11264">
        <ele>1173.43</ele>
        <time>2011-10-16T12:06:32Z</time>
      </trkpt>
      <trkpt lat="46.65372" lon="6.11259">
        <ele>1171.98</ele>
        <time>2011-10-16T12:06:35Z</time>
      </trkpt>
      <trkpt lat="46.6539" lon="6.11237">
        <ele>1170.54</ele>
        <time>2011-10-16T12:06:47Z</time>
      </trkpt>
      <trkpt lat="46.65412" lon="6.11219">
        <ele>1168.62</ele>
        <time>2011-10-16T12:06:57Z</time>
      </trkpt>
      <trkpt lat="46.6544" lon="6.11195">
        <ele>1165.26</ele>
        <time>2011-10-16T12:07:06Z</time>
      </trkpt>
      <trkpt lat="46.65461" lon="6.11171">
        <ele>1161.89</ele>
        <time>2011-10-16T12:07:10Z</time>
      </trkpt>
      <trkpt lat="46.65466" lon="6.11162">
        <ele>1161.41</ele>
        <time>2011-10-16T12:07:11Z</time>
      </trkpt>
      <trkpt lat="46.65476" lon="6.11144">
        <ele>1159.97</ele>
        <time>2011-10-16T12:07:13Z</time>
      </trkpt>
      <trkpt lat="46.65491" lon="6.11119">
        <ele>1157.08</ele>
        <time>2011-10-16T12:07:16Z</time>
      </trkpt>
      <trkpt lat="46.65496" lon="6.11113">
        <ele>1156.12</ele>
        <time>2011-10-16T12:07:17Z</time>
      </trkpt>
      <trkpt lat="46.655" lon="6.11109">
        <ele>1156.12</ele>
        <time>2011-10-16T12:07:18Z</time>
      </trkpt>
      <trkpt lat="46.65505" lon="6.11108">
        <ele>1156.12</ele>
        <time>2011-10-16T12:07:19Z</time>
      </trkpt>
      <trkpt lat="46.6551" lon="6.1111">
        <ele>1155.16</ele>
        <time>2011-10-16T12:07:20Z</time>
      </trkpt>
      <trkpt lat="46.65516" lon="6.11113">
        <ele>1154.68</ele>
        <time>2011-10-16T12:07:21Z</time>
      </trkpt>
      <trkpt lat="46.65523" lon="6.11116">
        <ele>1152.76</ele>
        <time>2011-10-16T12:07:22Z</time>
      </trkpt>
      <trkpt lat="46.6553" lon="6.11119">
        <ele>1152.76</ele>
        <time>2011-10-16T12:07:23Z</time>
      </trkpt>
      <trkpt lat="46.6555" lon="6.11132">
        <ele>1150.35</ele>
        <time>2011-10-16T12:07:26Z</time>
      </trkpt>
      <trkpt lat="46.65557" lon="6.11141">
        <ele>1148.43</ele>
        <time>2011-10-16T12:07:27Z</time>
      </trkpt>
      <trkpt lat="46.65576" lon="6.11165">
        <ele>1146.03</ele>
        <time>2011-10-16T12:07:30Z</time>
      </trkpt>
      <trkpt lat="46.65582" lon="6.11171">
        <ele>1145.55</ele>
        <time>2011-10-16T12:07:31Z</time>
      </trkpt>
      <trkpt lat="46.65588" lon="6.11174">
        <ele>1144.59</ele>
        <time>2011-10-16T12:07:32Z</time>
      </trkpt>
      <trkpt lat="46.65595" lon="6.11176">
        <ele>1143.63</ele>
        <time>2011-10-16T12:07:33Z</time>
      </trkpt>
      <trkpt lat="46.65602" lon="6.11175">
        <ele>1142.66</ele>
        <time>2011-10-16T12:07:34Z</time>
      </trkpt>
      <trkpt lat="46.6561" lon="6.11173">
        <ele>1142.66</ele>
        <time>2011-10-16T12:07:35Z</time>
      </trkpt>
      <trkpt lat="46.65619" lon="6.11169">
        <ele>1140.74</ele>
        <time>2011-10-16T12:07:36Z</time>
      </trkpt>
      <trkpt lat="46.65626" lon="6.11163">
        <ele>1140.74</ele>
        <time>2011-10-16T12:07:37Z</time>
      </trkpt>
      <trkpt lat="46.65634" lon="6.11157">
        <ele>1140.26</ele>
        <time>2011-10-16T12:07:38Z</time>
      </trkpt>
      <trkpt lat="46.65675" lon="6.11116">
        <ele>1138.34</ele>
        <time>2011-10-16T12:07:44Z</time>
      </trkpt>
      <trkpt lat="46.65679" lon="6.11109">
        <ele>1136.9</ele>
        <time>2011-10-16T12:07:45Z</time>
      </trkpt>
      <trkpt lat="46.65682" lon="6.11101">
        <ele>1137.38</ele>
        <time>2011-10-16T12:07:46Z</time>
      </trkpt>
      <trkpt lat="46.65684" lon="6.11094">
        <ele>1136.9</ele>
        <time>2011-10-16T12:07:47Z</time>
      </trkpt>
      <trkpt lat="46.65686" lon="6.11087">
        <ele>1137.38</ele>
        <time>2011-10-16T12:07:48Z</time>
      </trkpt>
      <trkpt lat="46.65689" lon="6.1108">
        <ele>1137.38</ele>
        <time>2011-10-16T12:07:49Z</time>
      </trkpt>
      <trkpt lat="46.65693" lon="6.11065">
        <ele>1135.94</ele>
        <time>2011-10-16T12:07:51Z</time>
      </trkpt>
      <trkpt lat="46.65695" lon="6.11056">
        <ele>1135.94</ele>
        <time>2011-10-16T12:07:52Z</time>
      </trkpt>
      <trkpt lat="46.65697" lon="6.11046">
        <ele>1134.97</ele>
        <time>2011-10-16T12:07:53Z</time>
      </trkpt>
      <trkpt lat="46.65699" lon="6.11036">
        <ele>1134.49</ele>
        <time>2011-10-16T12:07:54Z</time>
      </trkpt>
      <trkpt lat="46.65699" lon="6.11025">
        <ele>1134.01</ele>
        <time>2011-10-16T12:07:55Z</time>
      </trkpt>
      <trkpt lat="46.65699" lon="6.11013">
        <ele>1134.01</ele>
        <time>2011-10-16T12:07:56Z</time>
      </trkpt>
      <trkpt lat="46.65699" lon="6.11">
        <ele>1132.09</ele>
        <time>2011-10-16T12:07:57Z</time>
      </trkpt>
      <trkpt lat="46.65695" lon="6.10948">
        <ele>1129.69</ele>
        <time>2011-10-16T12:08:01Z</time>
      </trkpt>
      <trkpt lat="46.65692" lon="6.10936">
        <ele>1128.24</ele>
        <time>2011-10-16T12:08:02Z</time>
      </trkpt>
      <trkpt lat="46.65689" lon="6.10924">
        <ele>1128.24</ele>
        <time>2011-10-16T12:08:03Z</time>
      </trkpt>
      <trkpt lat="46.65685" lon="6.10913">
        <ele>1127.28</ele>
        <time>2011-10-16T12:08:04Z</time>
      </trkpt>
      <trkpt lat="46.6568" lon="6.10902">
        <ele>1126.8</ele>
        <time>2011-10-16T12:08:05Z</time>
      </trkpt>
      <trkpt lat="46.65675" lon="6.10892">
        <ele>1125.36</ele>
        <time>2011-10-16T12:08:06Z</time>
      </trkpt>
      <trkpt lat="46.65659" lon="6.10863">
        <ele>1123.92</ele>
        <time>2011-10-16T12:08:09Z</time>
      </trkpt>
      <trkpt lat="46.65653" lon="6.10854">
        <ele>1122</ele>
        <time>2011-10-16T12:08:10Z</time>
      </trkpt>
      <trkpt lat="46.65646" lon="6.10845">
        <ele>1121.52</ele>
        <time>2011-10-16T12:08:11Z</time>
      </trkpt>
      <trkpt lat="46.65638" lon="6.10838">
        <ele>1120.55</ele>
        <time>2011-10-16T12:08:12Z</time>
      </trkpt>
      <trkpt lat="46.6563" lon="6.10832">
        <ele>1120.55</ele>
        <time>2011-10-16T12:08:13Z</time>
      </trkpt>
      <trkpt lat="46.65616" lon="6.10816">
        <ele>1119.11</ele>
        <time>2011-10-16T12:08:15Z</time>
      </trkpt>
      <trkpt lat="46.65611" lon="6.10807">
        <ele>1117.19</ele>
        <time>2011-10-16T12:08:16Z</time>
      </trkpt>
      <trkpt lat="46.65608" lon="6.10797">
        <ele>1117.19</ele>
        <time>2011-10-16T12:08:17Z</time>
      </trkpt>
      <trkpt lat="46.65606" lon="6.10787">
        <ele>1115.75</ele>
        <time>2011-10-16T12:08:18Z</time>
      </trkpt>
      <trkpt lat="46.65603" lon="6.10778">
        <ele>1114.79</ele>
        <time>2011-10-16T12:08:19Z</time>
      </trkpt>
      <trkpt lat="46.65601" lon="6.10768">
        <ele>1114.79</ele>
        <time>2011-10-16T12:08:20Z</time>
      </trkpt>
      <trkpt lat="46.65596" lon="6.10761">
        <ele>1114.79</ele>
        <time>2011-10-16T12:08:21Z</time>
      </trkpt>
      <trkpt lat="46.6559" lon="6.10753">
        <ele>1113.82</ele>
        <time>2011-10-16T12:08:22Z</time>
      </trkpt>
      <trkpt lat="46.65582" lon="6.10746">
        <ele>1113.34</ele>
        <time>2011-10-16T12:08:23Z</time>
      </trkpt>
      <trkpt lat="46.6557" lon="6.10731">
        <ele>1110.94</ele>
        <time>2011-10-16T12:08:25Z</time>
      </trkpt>
      <trkpt lat="46.65565" lon="6.10722">
        <ele>1110.94</ele>
        <time>2011-10-16T12:08:26Z</time>
      </trkpt>
      <trkpt lat="46.65561" lon="6.10712">
        <ele>1110.46</ele>
        <time>2011-10-16T12:08:27Z</time>
      </trkpt>
      <trkpt lat="46.65559" lon="6.10701">
        <ele>1109.02</ele>
        <time>2011-10-16T12:08:28Z</time>
      </trkpt>
      <trkpt lat="46.65558" lon="6.10688">
        <ele>1109.98</ele>
        <time>2011-10-16T12:08:29Z</time>
      </trkpt>
      <trkpt lat="46.65559" lon="6.10674">
        <ele>1108.06</ele>
        <time>2011-10-16T12:08:30Z</time>
      </trkpt>
      <trkpt lat="46.65562" lon="6.10663">
        <ele>1107.58</ele>
        <time>2011-10-16T12:08:31Z</time>
      </trkpt>
      <trkpt lat="46.65565" lon="6.10654">
        <ele>1106.13</ele>
        <time>2011-10-16T12:08:32Z</time>
      </trkpt>
      <trkpt lat="46.65568" lon="6.10647">
        <ele>1105.17</ele>
        <time>2011-10-16T12:08:33Z</time>
      </trkpt>
      <trkpt lat="46.65571" lon="6.10642">
        <ele>1105.65</ele>
        <time>2011-10-16T12:08:34Z</time>
      </trkpt>
      <trkpt lat="46.65576" lon="6.1064">
        <ele>1104.21</ele>
        <time>2011-10-16T12:08:35Z</time>
      </trkpt>
      <trkpt lat="46.65581" lon="6.1064">
        <ele>1103.25</ele>
        <time>2011-10-16T12:08:36Z</time>
      </trkpt>
      <trkpt lat="46.65586" lon="6.10641">
        <ele>1103.25</ele>
        <time>2011-10-16T12:08:37Z</time>
      </trkpt>
      <trkpt lat="46.65597" lon="6.10644">
        <ele>1100.85</ele>
        <time>2011-10-16T12:08:39Z</time>
      </trkpt>
      <trkpt lat="46.65609" lon="6.10652">
        <ele>1099.89</ele>
        <time>2011-10-16T12:08:41Z</time>
      </trkpt>
      <trkpt lat="46.65621" lon="6.1066">
        <ele>1098.44</ele>
        <time>2011-10-16T12:08:43Z</time>
      </trkpt>
      <trkpt lat="46.65627" lon="6.10664">
        <ele>1097.96</ele>
        <time>2011-10-16T12:08:44Z</time>
      </trkpt>
      <trkpt lat="46.65641" lon="6.10675">
        <ele>1097</ele>
        <time>2011-10-16T12:08:46Z</time>
      </trkpt>
      <trkpt lat="46.65649" lon="6.10679">
        <ele>1095.56</ele>
        <time>2011-10-16T12:08:47Z</time>
      </trkpt>
      <trkpt lat="46.65671" lon="6.10685">
        <ele>1093.16</ele>
        <time>2011-10-16T12:08:50Z</time>
      </trkpt>
      <trkpt lat="46.65678" lon="6.10683">
        <ele>1092.2</ele>
        <time>2011-10-16T12:08:51Z</time>
      </trkpt>
      <trkpt lat="46.65686" lon="6.1068">
        <ele>1093.16</ele>
        <time>2011-10-16T12:08:52Z</time>
      </trkpt>
      <trkpt lat="46.65695" lon="6.10676">
        <ele>1092.2</ele>
        <time>2011-10-16T12:08:53Z</time>
      </trkpt>
      <trkpt lat="46.65704" lon="6.10672">
        <ele>1089.79</ele>
        <time>2011-10-16T12:08:54Z</time>
      </trkpt>
      <trkpt lat="46.65712" lon="6.10668">
        <ele>1089.79</ele>
        <time>2011-10-16T12:08:55Z</time>
      </trkpt>
      <trkpt lat="46.65728" lon="6.10657">
        <ele>1086.91</ele>
        <time>2011-10-16T12:08:57Z</time>
      </trkpt>
      <trkpt lat="46.65749" lon="6.10632">
        <ele>1083.54</ele>
        <time>2011-10-16T12:09:00Z</time>
      </trkpt>
      <trkpt lat="46.65763" lon="6.10617">
        <ele>1080.66</ele>
        <time>2011-10-16T12:09:02Z</time>
      </trkpt>
      <trkpt lat="46.6577" lon="6.10612">
        <ele>1080.66</ele>
        <time>2011-10-16T12:09:03Z</time>
      </trkpt>
      <trkpt lat="46.65782" lon="6.106">
        <ele>1078.26</ele>
        <time>2011-10-16T12:09:05Z</time>
      </trkpt>
      <trkpt lat="46.65787" lon="6.10595">
        <ele>1077.78</ele>
        <time>2011-10-16T12:09:06Z</time>
      </trkpt>
      <trkpt lat="46.65792" lon="6.10591">
        <ele>1077.29</ele>
        <time>2011-10-16T12:09:07Z</time>
      </trkpt>
      <trkpt lat="46.65829" lon="6.10575">
        <ele>1075.37</ele>
        <time>2011-10-16T12:09:17Z</time>
      </trkpt>
      <trkpt lat="46.65857" lon="6.10561">
        <ele>1074.41</ele>
        <time>2011-10-16T12:09:28Z</time>
      </trkpt>
      <trkpt lat="46.65874" lon="6.10548">
        <ele>1072.49</ele>
        <time>2011-10-16T12:09:34Z</time>
      </trkpt>
      <trkpt lat="46.65876" lon="6.10546">
        <ele>1072.49</ele>
        <time>2011-10-16T12:09:35Z</time>
      </trkpt>
      <trkpt lat="46.65879" lon="6.10545">
        <ele>1071.53</ele>
        <time>2011-10-16T12:09:36Z</time>
      </trkpt>
      <trkpt lat="46.65915" lon="6.10552">
        <ele>1070.57</ele>
        <time>2011-10-16T12:09:49Z</time>
      </trkpt>
      <trkpt lat="46.65934" lon="6.10546">
        <ele>1069.12</ele>
        <time>2011-10-16T12:09:56Z</time>
      </trkpt>
      <trkpt lat="46.65935" lon="6.10543">
        <ele>1068.64</ele>
        <time>2011-10-16T12:09:57Z</time>
      </trkpt>
      <trkpt lat="46.65938" lon="6.10538">
        <ele>1068.16</ele>
        <time>2011-10-16T12:09:58Z</time>
      </trkpt>
      <trkpt lat="46.65939" lon="6.10532">
        <ele>1067.2</ele>
        <time>2011-10-16T12:09:59Z</time>
      </trkpt>
      <trkpt lat="46.6594" lon="6.10524">
        <ele>1067.2</ele>
        <time>2011-10-16T12:10:00Z</time>
      </trkpt>
      <trkpt lat="46.65943" lon="6.10485">
        <ele>1065.28</ele>
        <time>2011-10-16T12:10:04Z</time>
      </trkpt>
      <trkpt lat="46.65941" lon="6.10454">
        <ele>1061.43</ele>
        <time>2011-10-16T12:10:07Z</time>
      </trkpt>
      <trkpt lat="46.65939" lon="6.1042">
        <ele>1058.07</ele>
        <time>2011-10-16T12:10:10Z</time>
      </trkpt>
      <trkpt lat="46.65938" lon="6.10408">
        <ele>1058.55</ele>
        <time>2011-10-16T12:10:11Z</time>
      </trkpt>
      <trkpt lat="46.65927" lon="6.10361">
        <ele>1054.7</ele>
        <time>2011-10-16T12:10:15Z</time>
      </trkpt>
      <trkpt lat="46.65921" lon="6.10336">
        <ele>1051.82</ele>
        <time>2011-10-16T12:10:17Z</time>
      </trkpt>
      <trkpt lat="46.65911" lon="6.10295">
        <ele>1047.97</ele>
        <time>2011-10-16T12:10:20Z</time>
      </trkpt>
      <trkpt lat="46.65907" lon="6.10267">
        <ele>1044.61</ele>
        <time>2011-10-16T12:10:22Z</time>
      </trkpt>
      <trkpt lat="46.65905" lon="6.10254">
        <ele>1043.65</ele>
        <time>2011-10-16T12:10:23Z</time>
      </trkpt>
      <trkpt lat="46.65905" lon="6.10242">
        <ele>1043.17</ele>
        <time>2011-10-16T12:10:24Z</time>
      </trkpt>
      <trkpt lat="46.65906" lon="6.10231">
        <ele>1042.21</ele>
        <time>2011-10-16T12:10:25Z</time>
      </trkpt>
      <trkpt lat="46.65908" lon="6.10223">
        <ele>1042.21</ele>
        <time>2011-10-16T12:10:26Z</time>
      </trkpt>
      <trkpt lat="46.6591" lon="6.10217">
        <ele>1042.21</ele>
        <time>2011-10-16T12:10:27Z</time>
      </trkpt>
      <trkpt lat="46.65914" lon="6.10213">
        <ele>1041.73</ele>
        <time>2011-10-16T12:10:28Z</time>
      </trkpt>
      <trkpt lat="46.65919" lon="6.10214">
        <ele>1041.25</ele>
        <time>2011-10-16T12:10:29Z</time>
      </trkpt>
      <trkpt lat="46.65925" lon="6.10215">
        <ele>1040.76</ele>
        <time>2011-10-16T12:10:30Z</time>
      </trkpt>
      <trkpt lat="46.6594" lon="6.10213">
        <ele>1040.28</ele>
        <time>2011-10-16T12:10:32Z</time>
      </trkpt>
      <trkpt lat="46.65949" lon="6.10211">
        <ele>1040.28</ele>
        <time>2011-10-16T12:10:33Z</time>
      </trkpt>
      <trkpt lat="46.65957" lon="6.10207">
        <ele>1040.28</ele>
        <time>2011-10-16T12:10:34Z</time>
      </trkpt>
      <trkpt lat="46.65964" lon="6.10203">
        <ele>1040.76</ele>
        <time>2011-10-16T12:10:35Z</time>
      </trkpt>
      <trkpt lat="46.6597" lon="6.10199">
        <ele>1040.76</ele>
        <time>2011-10-16T12:10:36Z</time>
      </trkpt>
      <trkpt lat="46.65975" lon="6.10194">
        <ele>1040.28</ele>
        <time>2011-10-16T12:10:37Z</time>
      </trkpt>
      <trkpt lat="46.65981" lon="6.1019">
        <ele>1040.28</ele>
        <time>2011-10-16T12:10:38Z</time>
      </trkpt>
      <trkpt lat="46.65999" lon="6.10179">
        <ele>1039.8</ele>
        <time>2011-10-16T12:10:41Z</time>
      </trkpt>
      <trkpt lat="46.66072" lon="6.10144">
        <ele>1039.32</ele>
        <time>2011-10-16T12:10:53Z</time>
      </trkpt>
      <trkpt lat="46.66093" lon="6.10128">
        <ele>1037.88</ele>
        <time>2011-10-16T12:11:00Z</time>
      </trkpt>
      <trkpt lat="46.66096" lon="6.10118">
        <ele>1037.4</ele>
        <time>2011-10-16T12:11:08Z</time>
      </trkpt>
      <trkpt lat="46.66095" lon="6.10118">
        <ele>1038.36</ele>
        <time>2011-10-16T12:12:01Z</time>
      </trkpt>
      <trkpt lat="46.66095" lon="6.10118">
        <ele>1032.59</ele>
        <time>2011-10-16T12:12:58Z</time>
      </trkpt>
      <trkpt lat="46.66095" lon="6.10118">
        <ele>1036.92</ele>
        <time>2011-10-16T12:12:59Z</time>
      </trkpt>
      <trkpt lat="46.66095" lon="6.10118">
        <ele>1034.04</ele>
        <time>2011-10-16T12:13:10Z</time>
      </trkpt>
      <trkpt lat="46.66095" lon="6.10118">
        <ele>1035.96</ele>
        <time>2011-10-16T12:13:11Z</time>
      </trkpt>
      <trkpt lat="46.66095" lon="6.10118">
        <ele>1036.92</ele>
        <time>2011-10-16T12:13:13Z</time>
      </trkpt>
      <trkpt lat="46.66095" lon="6.10118">
        <ele>1036.44</ele>
        <time>2011-10-16T12:13:40Z</time>
      </trkpt>
      <trkpt lat="46.66095" lon="6.10117">
        <ele>1036.92</ele>
        <time>2011-10-16T12:15:41Z</time>
      </trkpt>
      <trkpt lat="46.66095" lon="6.10117">
        <ele>1036.92</ele>
        <time>2011-10-16T12:16:14Z</time>
      </trkpt>
      <trkpt lat="46.66095" lon="6.10107">
        <ele>1036.92</ele>
        <time>2011-10-16T12:18:11Z</time>
      </trkpt>
      <trkpt lat="46.66093" lon="6.10102">
        <ele>1036.92</ele>
        <time>2011-10-16T12:18:13Z</time>
      </trkpt>
      <trkpt lat="46.66092" lon="6.101">
        <ele>1037.4</ele>
        <time>2011-10-16T12:18:14Z</time>
      </trkpt>
      <trkpt lat="46.66092" lon="6.10098">
        <ele>1037.4</ele>
        <time>2011-10-16T12:18:15Z</time>
      </trkpt>
      <trkpt lat="46.66085" lon="6.10066">
        <ele>1038.36</ele>
        <time>2011-10-16T12:18:27Z</time>
      </trkpt>
      <trkpt lat="46.66073" lon="6.10041">
        <ele>1041.73</ele>
        <time>2011-10-16T12:18:38Z</time>
      </trkpt>
      <trkpt lat="46.66072" lon="6.10036">
        <ele>1041.73</ele>
        <time>2011-10-16T12:18:56Z</time>
      </trkpt>
      <trkpt lat="46.66069" lon="6.10012">
        <ele>1042.69</ele>
        <time>2011-10-16T12:19:05Z</time>
      </trkpt>
      <trkpt lat="46.66068" lon="6.10006">
        <ele>1042.69</ele>
        <time>2011-10-16T12:19:07Z</time>
      </trkpt>
      <trkpt lat="46.66067" lon="6.10004">
        <ele>1042.69</ele>
        <time>2011-10-16T12:19:08Z</time>
      </trkpt>
      <trkpt lat="46.66066" lon="6.09992">
        <ele>1043.65</ele>
        <time>2011-10-16T12:19:13Z</time>
      </trkpt>
      <trkpt lat="46.66065" lon="6.0999">
        <ele>1043.65</ele>
        <time>2011-10-16T12:19:14Z</time>
      </trkpt>
      <trkpt lat="46.66054" lon="6.09951">
        <ele>1044.13</ele>
        <time>2011-10-16T12:19:27Z</time>
      </trkpt>
      <trkpt lat="46.66044" lon="6.09919">
        <ele>1044.61</ele>
        <time>2011-10-16T12:19:38Z</time>
      </trkpt>
      <trkpt lat="46.66043" lon="6.09916">
        <ele>1044.13</ele>
        <time>2011-10-16T12:19:39Z</time>
      </trkpt>
      <trkpt lat="46.66042" lon="6.09913">
        <ele>1044.61</ele>
        <time>2011-10-16T12:19:40Z</time>
      </trkpt>
      <trkpt lat="46.66041" lon="6.0991">
        <ele>1044.61</ele>
        <time>2011-10-16T12:19:41Z</time>
      </trkpt>
      <trkpt lat="46.6604" lon="6.09907">
        <ele>1045.09</ele>
        <time>2011-10-16T12:19:42Z</time>
      </trkpt>
      <trkpt lat="46.66039" lon="6.09904">
        <ele>1044.61</ele>
        <time>2011-10-16T12:19:43Z</time>
      </trkpt>
      <trkpt lat="46.66038" lon="6.09902">
        <ele>1044.13</ele>
        <time>2011-10-16T12:19:44Z</time>
      </trkpt>
      <trkpt lat="46.66038" lon="6.09899">
        <ele>1045.09</ele>
        <time>2011-10-16T12:19:45Z</time>
      </trkpt>
      <trkpt lat="46.66037" lon="6.09896">
        <ele>1044.61</ele>
        <time>2011-10-16T12:19:46Z</time>
      </trkpt>
      <trkpt lat="46.66022" lon="6.09862">
        <ele>1044.61</ele>
        <time>2011-10-16T12:19:56Z</time>
      </trkpt>
      <trkpt lat="46.66004" lon="6.09825">
        <ele>1045.57</ele>
        <time>2011-10-16T12:20:07Z</time>
      </trkpt>
      <trkpt lat="46.65986" lon="6.09785">
        <ele>1047.01</ele>
        <time>2011-10-16T12:20:18Z</time>
      </trkpt>
      <trkpt lat="46.65959" lon="6.09751">
        <ele>1047.49</ele>
        <time>2011-10-16T12:20:30Z</time>
      </trkpt>
      <trkpt lat="46.65935" lon="6.09702">
        <ele>1047.49</ele>
        <time>2011-10-16T12:20:42Z</time>
      </trkpt>
      <trkpt lat="46.65912" lon="6.09661">
        <ele>1049.9</ele>
        <time>2011-10-16T12:20:57Z</time>
      </trkpt>
      <trkpt lat="46.65897" lon="6.09632">
        <ele>1048.94</ele>
        <time>2011-10-16T12:21:07Z</time>
      </trkpt>
      <trkpt lat="46.65872" lon="6.09601">
        <ele>1048.94</ele>
        <time>2011-10-16T12:21:19Z</time>
      </trkpt>
      <trkpt lat="46.65861" lon="6.09579">
        <ele>1047.01</ele>
        <time>2011-10-16T12:21:24Z</time>
      </trkpt>
      <trkpt lat="46.65857" lon="6.09568">
        <ele>1046.53</ele>
        <time>2011-10-16T12:21:26Z</time>
      </trkpt>
      <trkpt lat="46.65855" lon="6.09562">
        <ele>1047.01</ele>
        <time>2011-10-16T12:21:27Z</time>
      </trkpt>
      <trkpt lat="46.65844" lon="6.0954">
        <ele>1045.57</ele>
        <time>2011-10-16T12:21:31Z</time>
      </trkpt>
      <trkpt lat="46.65819" lon="6.09488">
        <ele>1042.69</ele>
        <time>2011-10-16T12:21:39Z</time>
      </trkpt>
      <trkpt lat="46.65784" lon="6.09428">
        <ele>1039.8</ele>
        <time>2011-10-16T12:21:47Z</time>
      </trkpt>
      <trkpt lat="46.65744" lon="6.09353">
        <ele>1039.8</ele>
        <time>2011-10-16T12:21:58Z</time>
      </trkpt>
      <trkpt lat="46.65709" lon="6.09306">
        <ele>1040.76</ele>
        <time>2011-10-16T12:22:10Z</time>
      </trkpt>
      <trkpt lat="46.65688" lon="6.09265">
        <ele>1040.28</ele>
        <time>2011-10-16T12:22:23Z</time>
      </trkpt>
      <trkpt lat="46.65663" lon="6.09234">
        <ele>1039.32</ele>
        <time>2011-10-16T12:22:34Z</time>
      </trkpt>
      <trkpt lat="46.65627" lon="6.09181">
        <ele>1037.88</ele>
        <time>2011-10-16T12:22:47Z</time>
      </trkpt>
      <trkpt lat="46.656" lon="6.09114">
        <ele>1037.88</ele>
        <time>2011-10-16T12:23:02Z</time>
      </trkpt>
      <trkpt lat="46.65573" lon="6.09057">
        <ele>1037.4</ele>
        <time>2011-10-16T12:23:14Z</time>
      </trkpt>
      <trkpt lat="46.65535" lon="6.08989">
        <ele>1037.88</ele>
        <time>2011-10-16T12:23:28Z</time>
      </trkpt>
      <trkpt lat="46.65503" lon="6.08931">
        <ele>1035.96</ele>
        <time>2011-10-16T12:23:40Z</time>
      </trkpt>
      <trkpt lat="46.65472" lon="6.08877">
        <ele>1034.04</ele>
        <time>2011-10-16T12:23:52Z</time>
      </trkpt>
      <trkpt lat="46.6544" lon="6.08829">
        <ele>1031.63</ele>
        <time>2011-10-16T12:24:00Z</time>
      </trkpt>
      <trkpt lat="46.65431" lon="6.08812">
        <ele>1030.67</ele>
        <time>2011-10-16T12:24:02Z</time>
      </trkpt>
      <trkpt lat="46.65427" lon="6.08802">
        <ele>1029.23</ele>
        <time>2011-10-16T12:24:03Z</time>
      </trkpt>
      <trkpt lat="46.65423" lon="6.08792">
        <ele>1029.71</ele>
        <time>2011-10-16T12:24:04Z</time>
      </trkpt>
      <trkpt lat="46.65414" lon="6.08764">
        <ele>1029.23</ele>
        <time>2011-10-16T12:24:07Z</time>
      </trkpt>
      <trkpt lat="46.6541" lon="6.08756">
        <ele>1029.71</ele>
        <time>2011-10-16T12:24:08Z</time>
      </trkpt>
      <trkpt lat="46.65398" lon="6.08731">
        <ele>1028.27</ele>
        <time>2011-10-16T12:24:11Z</time>
      </trkpt>
      <trkpt lat="46.65387" lon="6.08702">
        <ele>1026.83</ele>
        <time>2011-10-16T12:24:14Z</time>
      </trkpt>
      <trkpt lat="46.6538" lon="6.08682">
        <ele>1025.38</ele>
        <time>2011-10-16T12:24:16Z</time>
      </trkpt>
      <trkpt lat="46.65369" lon="6.08652">
        <ele>1022.98</ele>
        <time>2011-10-16T12:24:19Z</time>
      </trkpt>
      <trkpt lat="46.65364" lon="6.08642">
        <ele>1021.54</ele>
        <time>2011-10-16T12:24:20Z</time>
      </trkpt>
      <trkpt lat="46.65358" lon="6.08634">
        <ele>1020.1</ele>
        <time>2011-10-16T12:24:21Z</time>
      </trkpt>
      <trkpt lat="46.65351" lon="6.08628">
        <ele>1020.1</ele>
        <time>2011-10-16T12:24:22Z</time>
      </trkpt>
      <trkpt lat="46.65344" lon="6.08623">
        <ele>1019.13</ele>
        <time>2011-10-16T12:24:23Z</time>
      </trkpt>
      <trkpt lat="46.65336" lon="6.0862">
        <ele>1018.65</ele>
        <time>2011-10-16T12:24:24Z</time>
      </trkpt>
      <trkpt lat="46.65327" lon="6.0862">
        <ele>1017.69</ele>
        <time>2011-10-16T12:24:25Z</time>
      </trkpt>
      <trkpt lat="46.65319" lon="6.08621">
        <ele>1016.73</ele>
        <time>2011-10-16T12:24:26Z</time>
      </trkpt>
      <trkpt lat="46.65302" lon="6.0862">
        <ele>1014.33</ele>
        <time>2011-10-16T12:24:28Z</time>
      </trkpt>
      <trkpt lat="46.65294" lon="6.08616">
        <ele>1014.33</ele>
        <time>2011-10-16T12:24:29Z</time>
      </trkpt>
      <trkpt lat="46.65286" lon="6.08611">
        <ele>1014.33</ele>
        <time>2011-10-16T12:24:30Z</time>
      </trkpt>
      <trkpt lat="46.65272" lon="6.08598">
        <ele>1013.85</ele>
        <time>2011-10-16T12:24:32Z</time>
      </trkpt>
      <trkpt lat="46.65266" lon="6.08591">
        <ele>1013.37</ele>
        <time>2011-10-16T12:24:33Z</time>
      </trkpt>
      <trkpt lat="46.65262" lon="6.08582">
        <ele>1013.37</ele>
        <time>2011-10-16T12:24:34Z</time>
      </trkpt>
      <trkpt lat="46.65259" lon="6.08573">
        <ele>1013.85</ele>
        <time>2011-10-16T12:24:35Z</time>
      </trkpt>
      <trkpt lat="46.65257" lon="6.08565">
        <ele>1013.37</ele>
        <time>2011-10-16T12:24:36Z</time>
      </trkpt>
      <trkpt lat="46.65256" lon="6.08557">
        <ele>1013.85</ele>
        <time>2011-10-16T12:24:37Z</time>
      </trkpt>
      <trkpt lat="46.65255" lon="6.08549">
        <ele>1014.33</ele>
        <time>2011-10-16T12:24:38Z</time>
      </trkpt>
      <trkpt lat="46.65253" lon="6.08542">
        <ele>1014.81</ele>
        <time>2011-10-16T12:24:39Z</time>
      </trkpt>
      <trkpt lat="46.65251" lon="6.08535">
        <ele>1014.33</ele>
        <time>2011-10-16T12:24:40Z</time>
      </trkpt>
      <trkpt lat="46.65249" lon="6.08529">
        <ele>1014.81</ele>
        <time>2011-10-16T12:24:41Z</time>
      </trkpt>
      <trkpt lat="46.65248" lon="6.08523">
        <ele>1014.33</ele>
        <time>2011-10-16T12:24:42Z</time>
      </trkpt>
      <trkpt lat="46.65246" lon="6.08517">
        <ele>1014.81</ele>
        <time>2011-10-16T12:24:43Z</time>
      </trkpt>
      <trkpt lat="46.65245" lon="6.08511">
        <ele>1014.81</ele>
        <time>2011-10-16T12:24:44Z</time>
      </trkpt>
      <trkpt lat="46.65243" lon="6.08505">
        <ele>1015.29</ele>
        <time>2011-10-16T12:24:45Z</time>
      </trkpt>
      <trkpt lat="46.65235" lon="6.0847">
        <ele>1017.69</ele>
        <time>2011-10-16T12:24:51Z</time>
      </trkpt>
      <trkpt lat="46.65232" lon="6.0846">
        <ele>1018.65</ele>
        <time>2011-10-16T12:24:53Z</time>
      </trkpt>
      <trkpt lat="46.65229" lon="6.08455">
        <ele>1018.17</ele>
        <time>2011-10-16T12:24:54Z</time>
      </trkpt>
      <trkpt lat="46.65225" lon="6.08452">
        <ele>1018.17</ele>
        <time>2011-10-16T12:24:55Z</time>
      </trkpt>
      <trkpt lat="46.65221" lon="6.0845">
        <ele>1019.13</ele>
        <time>2011-10-16T12:24:56Z</time>
      </trkpt>
      <trkpt lat="46.65216" lon="6.08451">
        <ele>1019.62</ele>
        <time>2011-10-16T12:24:57Z</time>
      </trkpt>
      <trkpt lat="46.65212" lon="6.08453">
        <ele>1020.58</ele>
        <time>2011-10-16T12:24:58Z</time>
      </trkpt>
      <trkpt lat="46.65208" lon="6.08457">
        <ele>1021.06</ele>
        <time>2011-10-16T12:24:59Z</time>
      </trkpt>
      <trkpt lat="46.65205" lon="6.08461">
        <ele>1021.06</ele>
        <time>2011-10-16T12:25:00Z</time>
      </trkpt>
      <trkpt lat="46.6518" lon="6.08497">
        <ele>1023.94</ele>
        <time>2011-10-16T12:25:12Z</time>
      </trkpt>
      <trkpt lat="46.6517" lon="6.08512">
        <ele>1024.42</ele>
        <time>2011-10-16T12:25:21Z</time>
      </trkpt>
      <trkpt lat="46.6517" lon="6.08514">
        <ele>1024.9</ele>
        <time>2011-10-16T12:25:22Z</time>
      </trkpt>
      <trkpt lat="46.65169" lon="6.08516">
        <ele>1024.9</ele>
        <time>2011-10-16T12:25:23Z</time>
      </trkpt>
      <trkpt lat="46.65169" lon="6.08518">
        <ele>1025.38</ele>
        <time>2011-10-16T12:25:24Z</time>
      </trkpt>
      <trkpt lat="46.65169" lon="6.0852">
        <ele>1023.94</ele>
        <time>2011-10-16T12:25:25Z</time>
      </trkpt>
      <trkpt lat="46.65168" lon="6.08521">
        <ele>1024.9</ele>
        <time>2011-10-16T12:25:26Z</time>
      </trkpt>
      <trkpt lat="46.65165" lon="6.08524">
        <ele>1024.42</ele>
        <time>2011-10-16T12:25:40Z</time>
      </trkpt>
      <trkpt lat="46.65165" lon="6.08524">
        <ele>1025.38</ele>
        <time>2011-10-16T12:25:42Z</time>
      </trkpt>
      <trkpt lat="46.65163" lon="6.08523">
        <ele>1024.42</ele>
        <time>2011-10-16T12:25:43Z</time>
      </trkpt>
      <trkpt lat="46.65162" lon="6.08523">
        <ele>1023.94</ele>
        <time>2011-10-16T12:25:44Z</time>
      </trkpt>
      <trkpt lat="46.65161" lon="6.08523">
        <ele>1024.42</ele>
        <time>2011-10-16T12:25:45Z</time>
      </trkpt>
      <trkpt lat="46.6515" lon="6.08513">
        <ele>1022.98</ele>
        <time>2011-10-16T12:25:56Z</time>
      </trkpt>
      <trkpt lat="46.65141" lon="6.085">
        <ele>1022.5</ele>
        <time>2011-10-16T12:25:59Z</time>
      </trkpt>
      <trkpt lat="46.65138" lon="6.08494">
        <ele>1022.02</ele>
        <time>2011-10-16T12:26:00Z</time>
      </trkpt>
      <trkpt lat="46.65136" lon="6.08487">
        <ele>1022.5</ele>
        <time>2011-10-16T12:26:01Z</time>
      </trkpt>
      <trkpt lat="46.65125" lon="6.08454">
        <ele>1021.06</ele>
        <time>2011-10-16T12:26:06Z</time>
      </trkpt>
      <trkpt lat="46.65122" lon="6.08431">
        <ele>1019.62</ele>
        <time>2011-10-16T12:26:09Z</time>
      </trkpt>
      <trkpt lat="46.65116" lon="6.08362">
        <ele>1017.21</ele>
        <time>2011-10-16T12:26:18Z</time>
      </trkpt>
      <trkpt lat="46.65106" lon="6.08292">
        <ele>1013.85</ele>
        <time>2011-10-16T12:26:25Z</time>
      </trkpt>
      <trkpt lat="46.65098" lon="6.08231">
        <ele>1010.96</ele>
        <time>2011-10-16T12:26:30Z</time>
      </trkpt>
      <trkpt lat="46.6509" lon="6.08174">
        <ele>1007.6</ele>
        <time>2011-10-16T12:26:34Z</time>
      </trkpt>
      <trkpt lat="46.65083" lon="6.08146">
        <ele>1006.16</ele>
        <time>2011-10-16T12:26:36Z</time>
      </trkpt>
      <trkpt lat="46.65066" lon="6.08086">
        <ele>1001.35</ele>
        <time>2011-10-16T12:26:40Z</time>
      </trkpt>
      <trkpt lat="46.65057" lon="6.08055">
        <ele>1000.87</ele>
        <time>2011-10-16T12:26:42Z</time>
      </trkpt>
      <trkpt lat="46.65049" lon="6.08026">
        <ele>999.43</ele>
        <time>2011-10-16T12:26:44Z</time>
      </trkpt>
      <trkpt lat="46.65036" lon="6.07979">
        <ele>996.06</ele>
        <time>2011-10-16T12:26:48Z</time>
      </trkpt>
      <trkpt lat="46.65033" lon="6.07971">
        <ele>994.62</ele>
        <time>2011-10-16T12:26:49Z</time>
      </trkpt>
      <trkpt lat="46.65029" lon="6.07966">
        <ele>993.66</ele>
        <time>2011-10-16T12:26:50Z</time>
      </trkpt>
      <trkpt lat="46.65023" lon="6.07964">
        <ele>993.66</ele>
        <time>2011-10-16T12:26:51Z</time>
      </trkpt>
      <trkpt lat="46.65018" lon="6.07964">
        <ele>993.18</ele>
        <time>2011-10-16T12:26:52Z</time>
      </trkpt>
      <trkpt lat="46.65014" lon="6.07966">
        <ele>993.66</ele>
        <time>2011-10-16T12:26:53Z</time>
      </trkpt>
      <trkpt lat="46.65011" lon="6.07967">
        <ele>994.14</ele>
        <time>2011-10-16T12:26:54Z</time>
      </trkpt>
      <trkpt lat="46.65009" lon="6.07968">
        <ele>994.62</ele>
        <time>2011-10-16T12:26:55Z</time>
      </trkpt>
      <trkpt lat="46.65007" lon="6.07967">
        <ele>994.62</ele>
        <time>2011-10-16T12:26:56Z</time>
      </trkpt>
      <trkpt lat="46.65005" lon="6.07966">
        <ele>995.1</ele>
        <time>2011-10-16T12:26:57Z</time>
      </trkpt>
      <trkpt lat="46.65003" lon="6.07964">
        <ele>994.62</ele>
        <time>2011-10-16T12:26:58Z</time>
      </trkpt>
      <trkpt lat="46.65001" lon="6.07961">
        <ele>994.62</ele>
        <time>2011-10-16T12:26:59Z</time>
      </trkpt>
      <trkpt lat="46.64999" lon="6.07957">
        <ele>995.58</ele>
        <time>2011-10-16T12:27:00Z</time>
      </trkpt>
      <trkpt lat="46.64992" lon="6.07915">
        <ele>996.54</ele>
        <time>2011-10-16T12:27:11Z</time>
      </trkpt>
      <trkpt lat="46.64984" lon="6.07865">
        <ele>997.02</ele>
        <time>2011-10-16T12:27:25Z</time>
      </trkpt>
      <trkpt lat="46.64973" lon="6.0783">
        <ele>996.54</ele>
        <time>2011-10-16T12:27:37Z</time>
      </trkpt>
      <trkpt lat="46.64956" lon="6.07789">
        <ele>996.06</ele>
        <time>2011-10-16T12:27:50Z</time>
      </trkpt>
      <trkpt lat="46.64954" lon="6.07766">
        <ele>996.06</ele>
        <time>2011-10-16T12:27:56Z</time>
      </trkpt>
      <trkpt lat="46.64947" lon="6.07751">
        <ele>996.06</ele>
        <time>2011-10-16T12:28:04Z</time>
      </trkpt>
      <trkpt lat="46.64933" lon="6.07714">
        <ele>996.06</ele>
        <time>2011-10-16T12:28:16Z</time>
      </trkpt>
      <trkpt lat="46.6492" lon="6.07679">
        <ele>995.1</ele>
        <time>2011-10-16T12:28:25Z</time>
      </trkpt>
      <trkpt lat="46.64914" lon="6.07659">
        <ele>993.66</ele>
        <time>2011-10-16T12:28:28Z</time>
      </trkpt>
      <trkpt lat="46.64898" lon="6.07633">
        <ele>996.54</ele>
        <time>2011-10-16T12:28:34Z</time>
      </trkpt>
      <trkpt lat="46.64896" lon="6.0763">
        <ele>996.06</ele>
        <time>2011-10-16T12:28:35Z</time>
      </trkpt>
      <trkpt lat="46.64886" lon="6.07611">
        <ele>996.54</ele>
        <time>2011-10-16T12:28:40Z</time>
      </trkpt>
      <trkpt lat="46.64862" lon="6.07561">
        <ele>997.51</ele>
        <time>2011-10-16T12:28:56Z</time>
      </trkpt>
      <trkpt lat="46.64843" lon="6.07513">
        <ele>999.43</ele>
        <time>2011-10-16T12:29:10Z</time>
      </trkpt>
      <trkpt lat="46.64823" lon="6.07466">
        <ele>1000.39</ele>
        <time>2011-10-16T12:29:25Z</time>
      </trkpt>
      <trkpt lat="46.64816" lon="6.07452">
        <ele>1000.87</ele>
        <time>2011-10-16T12:29:31Z</time>
      </trkpt>
      <trkpt lat="46.64815" lon="6.07449">
        <ele>1000.87</ele>
        <time>2011-10-16T12:29:32Z</time>
      </trkpt>
      <trkpt lat="46.64815" lon="6.07446">
        <ele>1000.87</ele>
        <time>2011-10-16T12:29:33Z</time>
      </trkpt>
      <trkpt lat="46.64815" lon="6.07444">
        <ele>1000.39</ele>
        <time>2011-10-16T12:29:34Z</time>
      </trkpt>
      <trkpt lat="46.64806" lon="6.07442">
        <ele>995.296875</ele>
      </trkpt>
      <trkpt lat="46.648" lon="6.07442">
        <ele>995.75</ele>
      </trkpt>
      <trkpt lat="46.64795" lon="6.07444">
        <ele>996.15625</ele>
      </trkpt>
      <trkpt lat="46.64789" lon="6.07445">
        <ele>996.61328125</ele>
      </trkpt>
      <trkpt lat="46.64786" lon="6.07449">
        <ele>996.97265625</ele>
      </trkpt>
      <trkpt lat="46.64783" lon="6.07454">
        <ele>997.3046875</ele>
      </trkpt>
      <trkpt lat="46.64779" lon="6.07459">
        <ele>997.765625</ele>
      </trkpt>
      <trkpt lat="46.64775" lon="6.07462">
        <ele>998.30078125</ele>
      </trkpt>
      <trkpt lat="46.64771" lon="6.07467">
        <ele>998.828125</ele>
      </trkpt>
      <trkpt lat="46.64767" lon="6.07471">
        <ele>999.14453125</ele>
      </trkpt>
      <trkpt lat="46.64764" lon="6.07476">
        <ele>999.3359375</ele>
      </trkpt>
      <trkpt lat="46.64761" lon="6.0748">
        <ele>999.59765625</ele>
      </trkpt>
      <trkpt lat="46.64757" lon="6.07484">
        <ele>999.85546875</ele>
      </trkpt>
      <trkpt lat="46.64753" lon="6.0749">
        <ele>1000.11328125</ele>
      </trkpt>
      <trkpt lat="46.6475" lon="6.07495">
        <ele>1000.484375</ele>
      </trkpt>
      <trkpt lat="46.64747" lon="6.07501">
        <ele>1000.84375</ele>
      </trkpt>
      <trkpt lat="46.64744" lon="6.07506">
        <ele>1001.234375</ele>
      </trkpt>
      <trkpt lat="46.64742" lon="6.07511">
        <ele>1001.6640625</ele>
      </trkpt>
      <trkpt lat="46.64737" lon="6.07515">
        <ele>1002.1640625</ele>
      </trkpt>
      <trkpt lat="46.64734" lon="6.0752">
        <ele>1002.55078125</ele>
      </trkpt>
      <trkpt lat="46.6473" lon="6.07524">
        <ele>1002.875</ele>
      </trkpt>
      <trkpt lat="46.64726" lon="6.07529">
        <ele>1003.33203125</ele>
      </trkpt>
      <trkpt lat="46.64722" lon="6.07533">
        <ele>1003.73828125</ele>
      </trkpt>
      <trkpt lat="46.64718" lon="6.07538">
        <ele>1004.21875</ele>
      </trkpt>
      <trkpt lat="46.64714" lon="6.07541">
        <ele>1004.74609375</ele>
      </trkpt>
      <trkpt lat="46.6471" lon="6.07545">
        <ele>1005.16015625</ele>
      </trkpt>
      <trkpt lat="46.64707" lon="6.07549">
        <ele>1005.54296875</ele>
      </trkpt>
      <trkpt lat="46.64704" lon="6.07554">
        <ele>1005.8515625</ele>
      </trkpt>
      <trkpt lat="46.647" lon="6.07558">
        <ele>1006.15234375</ele>
      </trkpt>
      <trkpt lat="46.64697" lon="6.07562">
        <ele>1006.4140625</ele>
      </trkpt>
      <trkpt lat="46.64693" lon="6.07567">
        <ele>1006.65234375</ele>
      </trkpt>
      <trkpt lat="46.6469" lon="6.07571">
        <ele>1006.8359375</ele>
      </trkpt>
      <trkpt lat="46.64686" lon="6.07575">
        <ele>1007</ele>
      </trkpt>
      <trkpt lat="46.64682" lon="6.07579">
        <ele>1007.1328125</ele>
      </trkpt>
      <trkpt lat="46.64677" lon="6.07583">
        <ele>1007.20703125</ele>
      </trkpt>
      <trkpt lat="46.64674" lon="6.07588">
        <ele>1007.2890625</ele>
      </trkpt>
      <trkpt lat="46.64673" lon="6.07594">
        <ele>1007.3828125</ele>
      </trkpt>
      <trkpt lat="46.6467" lon="6.07601">
        <ele>1007.4140625</ele>
      </trkpt>
      <trkpt lat="46.64667" lon="6.07606">
        <ele>1007.3359375</ele>
      </trkpt>
      <trkpt lat="46.64664" lon="6.0761">
        <ele>1007.20703125</ele>
      </trkpt>
      <trkpt lat="46.64659" lon="6.07612">
        <ele>1007.046875</ele>
      </trkpt>
      <trkpt lat="46.64654" lon="6.07614">
        <ele>1006.55078125</ele>
      </trkpt>
      <trkpt lat="46.64649" lon="6.07611">
        <ele>1006.06640625</ele>
      </trkpt>
      <trkpt lat="46.64646" lon="6.07607">
        <ele>1005.6796875</ele>
      </trkpt>
      <trkpt lat="46.64642" lon="6.07603">
        <ele>1005.2890625</ele>
      </trkpt>
      <trkpt lat="46.64638" lon="6.07599">
        <ele>1004.90234375</ele>
      </trkpt>
      <trkpt lat="46.64636" lon="6.07594">
        <ele>1004.61328125</ele>
      </trkpt>
      <trkpt lat="46.64633" lon="6.07589">
        <ele>1004.3203125</ele>
      </trkpt>
      <trkpt lat="46.64631" lon="6.07583">
        <ele>1004.125</ele>
      </trkpt>
      <trkpt lat="46.64629" lon="6.07577">
        <ele>1003.77734375</ele>
      </trkpt>
      <trkpt lat="46.64627" lon="6.07573">
        <ele>1003.51953125</ele>
      </trkpt>
      <trkpt lat="46.64621" lon="6.07575">
        <ele>1002.7421875</ele>
      </trkpt>
      <trkpt lat="46.64618" lon="6.07571">
        <ele>1002.2265625</ele>
      </trkpt>
      <trkpt lat="46.64614" lon="6.07567">
        <ele>1001.7109375</ele>
      </trkpt>
      <trkpt lat="46.64612" lon="6.07562">
        <ele>1001.3203125</ele>
      </trkpt>
      <trkpt lat="46.64607" lon="6.07558">
        <ele>1000.671875</ele>
      </trkpt>
      <trkpt lat="46.64603" lon="6.07554">
        <ele>1000.15625</ele>
      </trkpt>
      <trkpt lat="46.64601" lon="6.07547">
        <ele>999.70703125</ele>
      </trkpt>
      <trkpt lat="46.64598" lon="6.07541">
        <ele>999.22265625</ele>
      </trkpt>
      <trkpt lat="46.64595" lon="6.07534">
        <ele>998.73828125</ele>
      </trkpt>
      <trkpt lat="46.64592" lon="6.07528">
        <ele>998.08984375</ele>
      </trkpt>
      <trkpt lat="46.64589" lon="6.07523">
        <ele>997.60546875</ele>
      </trkpt>
      <trkpt lat="46.64586" lon="6.07518">
        <ele>997.1015625</ele>
      </trkpt>
      <trkpt lat="46.64584" lon="6.07512">
        <ele>996.55859375</ele>
      </trkpt>
      <trkpt lat="46.64581" lon="6.07507">
        <ele>996.0546875</ele>
      </trkpt>
      <trkpt lat="46.64579" lon="6.07501">
        <ele>995.71875</ele>
      </trkpt>
      <trkpt lat="46.64576" lon="6.07495">
        <ele>995.28125</ele>
      </trkpt>
      <trkpt lat="46.64574" lon="6.0749">
        <ele>994.80078125</ele>
      </trkpt>
      <trkpt lat="46.64571" lon="6.07485">
        <ele>994.05859375</ele>
      </trkpt>
      <trkpt lat="46.64569" lon="6.07477">
        <ele>993.45703125</ele>
      </trkpt>
      <trkpt lat="46.64567" lon="6.07471">
        <ele>992.75390625</ele>
      </trkpt>
      <trkpt lat="46.64565" lon="6.07464">
        <ele>992.26171875</ele>
      </trkpt>
      <trkpt lat="46.64563" lon="6.07458">
        <ele>991.99609375</ele>
      </trkpt>
      <trkpt lat="46.64561" lon="6.07451">
        <ele>991.796875</ele>
      </trkpt>
      <trkpt lat="46.64559" lon="6.07445">
        <ele>991.62890625</ele>
      </trkpt>
      <trkpt lat="46.64557" lon="6.0744">
        <ele>991.328125</ele>
      </trkpt>
      <trkpt lat="46.64554" lon="6.07433">
        <ele>991.03515625</ele>
      </trkpt>
      <trkpt lat="46.64552" lon="6.07427">
        <ele>990.77734375</ele>
      </trkpt>
      <trkpt lat="46.6455" lon="6.07421">
        <ele>990.390625</ele>
      </trkpt>
      <trkpt lat="46.64547" lon="6.07416">
        <ele>990</ele>
      </trkpt>
      <trkpt lat="46.64544" lon="6.07411">
        <ele>989.515625</ele>
      </trkpt>
      <trkpt lat="46.64541" lon="6.07405">
        <ele>988.94140625</ele>
      </trkpt>
      <trkpt lat="46.64539" lon="6.07399">
        <ele>988.33203125</ele>
      </trkpt>
      <trkpt lat="46.64537" lon="6.07393">
        <ele>987.87890625</ele>
      </trkpt>
      <trkpt lat="46.64534" lon="6.07388">
        <ele>987.33984375</ele>
      </trkpt>
      <trkpt lat="46.64531" lon="6.07382">
        <ele>986.7109375</ele>
      </trkpt>
      <trkpt lat="46.64528" lon="6.07377">
        <ele>986.28125</ele>
      </trkpt>
      <trkpt lat="46.64525" lon="6.07371">
        <ele>985.89453125</ele>
      </trkpt>
      <trkpt lat="46.64523" lon="6.07366">
        <ele>985.5078125</ele>
      </trkpt>
      <trkpt lat="46.64521" lon="6.07358">
        <ele>985.24609375</ele>
      </trkpt>
      <trkpt lat="46.64518" lon="6.07353">
        <ele>984.859375</ele>
      </trkpt>
      <trkpt lat="46.64515" lon="6.07346">
        <ele>984.47265625</ele>
      </trkpt>
      <trkpt lat="46.64513" lon="6.0734">
        <ele>984.08203125</ele>
      </trkpt>
      <trkpt lat="46.6451" lon="6.07334">
        <ele>983.6953125</ele>
      </trkpt>
      <trkpt lat="46.64506" lon="6.07329">
        <ele>983.17578125</ele>
      </trkpt>
      <trkpt lat="46.64505" lon="6.07323">
        <ele>982.94921875</ele>
      </trkpt>
      <trkpt lat="46.64502" lon="6.07318">
        <ele>982.68359375</ele>
      </trkpt>
      <trkpt lat="46.64498" lon="6.07314">
        <ele>982.30078125</ele>
      </trkpt>
      <trkpt lat="46.64496" lon="6.07308">
        <ele>982.109375</ele>
      </trkpt>
      <trkpt lat="46.64493" lon="6.07303">
        <ele>981.953125</ele>
      </trkpt>
      <trkpt lat="46.64491" lon="6.07297">
        <ele>981.97265625</ele>
      </trkpt>
      <trkpt lat="46.64488" lon="6.07289">
        <ele>981.6171875</ele>
      </trkpt>
      <trkpt lat="46.64486" lon="6.07282">
        <ele>981.30078125</ele>
      </trkpt>
      <trkpt lat="46.64484" lon="6.07276">
        <ele>981.13671875</ele>
      </trkpt>
      <trkpt lat="46.64482" lon="6.07269">
        <ele>981.00390625</ele>
      </trkpt>
      <trkpt lat="46.6448" lon="6.07263">
        <ele>981.03125</ele>
      </trkpt>
      <trkpt lat="46.64478" lon="6.07258">
        <ele>980.92578125</ele>
      </trkpt>
      <trkpt lat="46.64475" lon="6.07251">
        <ele>980.87109375</ele>
      </trkpt>
      <trkpt lat="46.64473" lon="6.07245">
        <ele>980.91015625</ele>
      </trkpt>
      <trkpt lat="46.6447" lon="6.0724">
        <ele>980.75</ele>
      </trkpt>
      <trkpt lat="46.64467" lon="6.07234">
        <ele>980.359375</ele>
      </trkpt>
      <trkpt lat="46.64464" lon="6.07227">
        <ele>980.0703125</ele>
      </trkpt>
      <trkpt lat="46.64461" lon="6.0722">
        <ele>979.6796875</ele>
      </trkpt>
      <trkpt lat="46.64458" lon="6.07215">
        <ele>979.390625</ele>
      </trkpt>
      <trkpt lat="46.64453" lon="6.07212">
        <ele>978.90625</ele>
      </trkpt>
      <trkpt lat="46.6445" lon="6.07208">
        <ele>978.515625</ele>
      </trkpt>
      <trkpt lat="46.6445" lon="6.07205">
        <ele>986.93</ele>
        <time>2011-10-16T12:49:54Z</time>
      </trkpt>
      <trkpt lat="46.64433" lon="6.07186">
        <ele>984.53</ele>
        <time>2011-10-16T12:50:05Z</time>
      </trkpt>
      <trkpt lat="46.64402" lon="6.07152">
        <ele>981.16</ele>
        <time>2011-10-16T12:50:17Z</time>
      </trkpt>
      <trkpt lat="46.64375" lon="6.07118">
        <ele>980.2</ele>
        <time>2011-10-16T12:50:29Z</time>
      </trkpt>
      <trkpt lat="46.64357" lon="6.07091">
        <ele>980.68</ele>
        <time>2011-10-16T12:50:42Z</time>
      </trkpt>
      <trkpt lat="46.64337" lon="6.07034">
        <ele>978.28</ele>
        <time>2011-10-16T12:50:54Z</time>
      </trkpt>
      <trkpt lat="46.64299" lon="6.06977">
        <ele>974.91</ele>
        <time>2011-10-16T12:51:03Z</time>
      </trkpt>
      <trkpt lat="46.64294" lon="6.0697">
        <ele>974.43</ele>
        <time>2011-10-16T12:51:04Z</time>
      </trkpt>
      <trkpt lat="46.64264" lon="6.06933">
        <ele>972.51</ele>
        <time>2011-10-16T12:51:11Z</time>
      </trkpt>
      <trkpt lat="46.64258" lon="6.06924">
        <ele>971.07</ele>
        <time>2011-10-16T12:51:13Z</time>
      </trkpt>
      <trkpt lat="46.64256" lon="6.06919">
        <ele>972.03</ele>
        <time>2011-10-16T12:51:14Z</time>
      </trkpt>
      <trkpt lat="46.64253" lon="6.06913">
        <ele>971.55</ele>
        <time>2011-10-16T12:51:15Z</time>
      </trkpt>
      <trkpt lat="46.64232" lon="6.06867">
        <ele>972.51</ele>
        <time>2011-10-16T12:51:25Z</time>
      </trkpt>
      <trkpt lat="46.64218" lon="6.0683">
        <ele>973.95</ele>
        <time>2011-10-16T12:51:37Z</time>
      </trkpt>
      <trkpt lat="46.64201" lon="6.06784">
        <ele>974.91</ele>
        <time>2011-10-16T12:51:50Z</time>
      </trkpt>
      <trkpt lat="46.64189" lon="6.06757">
        <ele>975.39</ele>
        <time>2011-10-16T12:52:01Z</time>
      </trkpt>
      <trkpt lat="46.64166" lon="6.06699">
        <ele>973.47</ele>
        <time>2011-10-16T12:52:14Z</time>
      </trkpt>
      <trkpt lat="46.64155" lon="6.06644">
        <ele>973.95</ele>
        <time>2011-10-16T12:52:25Z</time>
      </trkpt>
      <trkpt lat="46.64158" lon="6.06624">
        <ele>975.88</ele>
        <time>2011-10-16T12:52:31Z</time>
      </trkpt>
      <trkpt lat="46.64159" lon="6.06621">
        <ele>976.36</ele>
        <time>2011-10-16T12:52:32Z</time>
      </trkpt>
      <trkpt lat="46.64159" lon="6.0659">
        <ele>979.24</ele>
        <time>2011-10-16T12:52:46Z</time>
      </trkpt>
      <trkpt lat="46.64159" lon="6.06584">
        <ele>978.28</ele>
        <time>2011-10-16T12:52:49Z</time>
      </trkpt>
      <trkpt lat="46.64159" lon="6.06552">
        <ele>980.68</ele>
        <time>2011-10-16T12:53:00Z</time>
      </trkpt>
      <trkpt lat="46.6416" lon="6.06512">
        <ele>981.64</ele>
        <time>2011-10-16T12:53:14Z</time>
      </trkpt>
      <trkpt lat="46.64153" lon="6.06464">
        <ele>981.64</ele>
        <time>2011-10-16T12:53:28Z</time>
      </trkpt>
      <trkpt lat="46.64144" lon="6.06401">
        <ele>982.12</ele>
        <time>2011-10-16T12:53:42Z</time>
      </trkpt>
      <trkpt lat="46.64133" lon="6.06341">
        <ele>982.12</ele>
        <time>2011-10-16T12:53:53Z</time>
      </trkpt>
      <trkpt lat="46.64132" lon="6.06335">
        <ele>981.64</ele>
        <time>2011-10-16T12:53:54Z</time>
      </trkpt>
      <trkpt lat="46.64132" lon="6.06329">
        <ele>982.12</ele>
        <time>2011-10-16T12:53:55Z</time>
      </trkpt>
      <trkpt lat="46.64126" lon="6.06261">
        <ele>981.64</ele>
        <time>2011-10-16T12:54:07Z</time>
      </trkpt>
      <trkpt lat="46.64125" lon="6.06255">
        <ele>981.16</ele>
        <time>2011-10-16T12:54:08Z</time>
      </trkpt>
      <trkpt lat="46.64121" lon="6.0623">
        <ele>980.68</ele>
        <time>2011-10-16T12:54:12Z</time>
      </trkpt>
      <trkpt lat="46.6412" lon="6.06223">
        <ele>980.68</ele>
        <time>2011-10-16T12:54:13Z</time>
      </trkpt>
      <trkpt lat="46.64119" lon="6.06217">
        <ele>979.72</ele>
        <time>2011-10-16T12:54:14Z</time>
      </trkpt>
      <trkpt lat="46.64113" lon="6.06161">
        <ele>978.28</ele>
        <time>2011-10-16T12:54:21Z</time>
      </trkpt>
      <trkpt lat="46.64112" lon="6.06152">
        <ele>977.8</ele>
        <time>2011-10-16T12:54:22Z</time>
      </trkpt>
      <trkpt lat="46.64111" lon="6.06143">
        <ele>977.8</ele>
        <time>2011-10-16T12:54:23Z</time>
      </trkpt>
      <trkpt lat="46.64097" lon="6.06039">
        <ele>975.39</ele>
        <time>2011-10-16T12:54:34Z</time>
      </trkpt>
      <trkpt lat="46.64094" lon="6.0603">
        <ele>974.43</ele>
        <time>2011-10-16T12:54:35Z</time>
      </trkpt>
      <trkpt lat="46.6409" lon="6.06021">
        <ele>974.43</ele>
        <time>2011-10-16T12:54:36Z</time>
      </trkpt>
      <trkpt lat="46.64085" lon="6.06014">
        <ele>973.95</ele>
        <time>2011-10-16T12:54:37Z</time>
      </trkpt>
      <trkpt lat="46.6408" lon="6.06007">
        <ele>972.99</ele>
        <time>2011-10-16T12:54:38Z</time>
      </trkpt>
      <trkpt lat="46.64075" lon="6.06">
        <ele>972.51</ele>
        <time>2011-10-16T12:54:39Z</time>
      </trkpt>
      <trkpt lat="46.64052" lon="6.05966">
        <ele>968.18</ele>
        <time>2011-10-16T12:54:43Z</time>
      </trkpt>
      <trkpt lat="46.64025" lon="6.05927">
        <ele>965.78</ele>
        <time>2011-10-16T12:54:47Z</time>
      </trkpt>
      <trkpt lat="46.6402" lon="6.05915">
        <ele>965.78</ele>
        <time>2011-10-16T12:54:48Z</time>
      </trkpt>
      <trkpt lat="46.64017" lon="6.05903">
        <ele>964.34</ele>
        <time>2011-10-16T12:54:49Z</time>
      </trkpt>
      <trkpt lat="46.64015" lon="6.05891">
        <ele>965.3</ele>
        <time>2011-10-16T12:54:50Z</time>
      </trkpt>
      <trkpt lat="46.64014" lon="6.0588">
        <ele>965.78</ele>
        <time>2011-10-16T12:54:51Z</time>
      </trkpt>
      <trkpt lat="46.64013" lon="6.05828">
        <ele>965.3</ele>
        <time>2011-10-16T12:54:56Z</time>
      </trkpt>
      <trkpt lat="46.64013" lon="6.05802">
        <ele>966.26</ele>
        <time>2011-10-16T12:54:59Z</time>
      </trkpt>
      <trkpt lat="46.64012" lon="6.05795">
        <ele>964.82</ele>
        <time>2011-10-16T12:55:00Z</time>
      </trkpt>
      <trkpt lat="46.64011" lon="6.05788">
        <ele>965.3</ele>
        <time>2011-10-16T12:55:01Z</time>
      </trkpt>
      <trkpt lat="46.64" lon="6.05739">
        <ele>966.26</ele>
        <time>2011-10-16T12:55:10Z</time>
      </trkpt>
      <trkpt lat="46.63988" lon="6.05684">
        <ele>968.67</ele>
        <time>2011-10-16T12:55:21Z</time>
      </trkpt>
      <trkpt lat="46.63978" lon="6.05648">
        <ele>970.11</ele>
        <time>2011-10-16T12:55:30Z</time>
      </trkpt>
      <trkpt lat="46.63973" lon="6.05598">
        <ele>970.59</ele>
        <time>2011-10-16T12:55:42Z</time>
      </trkpt>
      <trkpt lat="46.63971" lon="6.05549">
        <ele>970.11</ele>
        <time>2011-10-16T12:55:54Z</time>
      </trkpt>
      <trkpt lat="46.63959" lon="6.05507">
        <ele>968.18</ele>
        <time>2011-10-16T12:56:03Z</time>
      </trkpt>
      <trkpt lat="46.63957" lon="6.05503">
        <ele>967.7</ele>
        <time>2011-10-16T12:56:04Z</time>
      </trkpt>
      <trkpt lat="46.63955" lon="6.05498">
        <ele>967.7</ele>
        <time>2011-10-16T12:56:05Z</time>
      </trkpt>
      <trkpt lat="46.63948" lon="6.05472">
        <ele>965.3</ele>
        <time>2011-10-16T12:56:09Z</time>
      </trkpt>
      <trkpt lat="46.63947" lon="6.05464">
        <ele>965.3</ele>
        <time>2011-10-16T12:56:10Z</time>
      </trkpt>
      <trkpt lat="46.63946" lon="6.05455">
        <ele>964.82</ele>
        <time>2011-10-16T12:56:11Z</time>
      </trkpt>
      <trkpt lat="46.63946" lon="6.05442">
        <ele>963.86</ele>
        <time>2011-10-16T12:56:12Z</time>
      </trkpt>
      <trkpt lat="46.63948" lon="6.05428">
        <ele>963.38</ele>
        <time>2011-10-16T12:56:13Z</time>
      </trkpt>
      <trkpt lat="46.63949" lon="6.05417">
        <ele>962.42</ele>
        <time>2011-10-16T12:56:14Z</time>
      </trkpt>
      <trkpt lat="46.63951" lon="6.05394">
        <ele>962.42</ele>
        <time>2011-10-16T12:56:16Z</time>
      </trkpt>
      <trkpt lat="46.63953" lon="6.05339">
        <ele>962.9</ele>
        <time>2011-10-16T12:56:22Z</time>
      </trkpt>
      <trkpt lat="46.63957" lon="6.05274">
        <ele>960.49</ele>
        <time>2011-10-16T12:56:33Z</time>
      </trkpt>
      <trkpt lat="46.63958" lon="6.05255">
        <ele>958.09</ele>
        <time>2011-10-16T12:56:37Z</time>
      </trkpt>
      <trkpt lat="46.63963" lon="6.05227">
        <ele>956.65</ele>
        <time>2011-10-16T12:56:43Z</time>
      </trkpt>
      <trkpt lat="46.63966" lon="6.05222">
        <ele>955.21</ele>
        <time>2011-10-16T12:56:44Z</time>
      </trkpt>
      <trkpt lat="46.6397" lon="6.05216">
        <ele>954.73</ele>
        <time>2011-10-16T12:56:45Z</time>
      </trkpt>
      <trkpt lat="46.63976" lon="6.05211">
        <ele>953.28</ele>
        <time>2011-10-16T12:56:46Z</time>
      </trkpt>
      <trkpt lat="46.63982" lon="6.05206">
        <ele>953.77</ele>
        <time>2011-10-16T12:56:47Z</time>
      </trkpt>
      <trkpt lat="46.63994" lon="6.05195">
        <ele>951.84</ele>
        <time>2011-10-16T12:56:49Z</time>
      </trkpt>
      <trkpt lat="46.63999" lon="6.05188">
        <ele>951.84</ele>
        <time>2011-10-16T12:56:50Z</time>
      </trkpt>
      <trkpt lat="46.64004" lon="6.05181">
        <ele>950.4</ele>
        <time>2011-10-16T12:56:51Z</time>
      </trkpt>
      <trkpt lat="46.64009" lon="6.05172">
        <ele>949.44</ele>
        <time>2011-10-16T12:56:52Z</time>
      </trkpt>
      <trkpt lat="46.64013" lon="6.05162">
        <ele>948.96</ele>
        <time>2011-10-16T12:56:53Z</time>
      </trkpt>
      <trkpt lat="46.64016" lon="6.05152">
        <ele>946.56</ele>
        <time>2011-10-16T12:56:54Z</time>
      </trkpt>
      <trkpt lat="46.64019" lon="6.05141">
        <ele>946.07</ele>
        <time>2011-10-16T12:56:55Z</time>
      </trkpt>
      <trkpt lat="46.64021" lon="6.05131">
        <ele>945.11</ele>
        <time>2011-10-16T12:56:56Z</time>
      </trkpt>
      <trkpt lat="46.64022" lon="6.05121">
        <ele>943.67</ele>
        <time>2011-10-16T12:56:57Z</time>
      </trkpt>
      <trkpt lat="46.64023" lon="6.0511">
        <ele>942.71</ele>
        <time>2011-10-16T12:56:58Z</time>
      </trkpt>
      <trkpt lat="46.64023" lon="6.05098">
        <ele>941.27</ele>
        <time>2011-10-16T12:56:59Z</time>
      </trkpt>
      <trkpt lat="46.64022" lon="6.05084">
        <ele>940.31</ele>
        <time>2011-10-16T12:57:00Z</time>
      </trkpt>
      <trkpt lat="46.64021" lon="6.05024">
        <ele>936.46</ele>
        <time>2011-10-16T12:57:04Z</time>
      </trkpt>
      <trkpt lat="46.64021" lon="6.04996">
        <ele>934.54</ele>
        <time>2011-10-16T12:57:06Z</time>
      </trkpt>
      <trkpt lat="46.64021" lon="6.04969">
        <ele>933.58</ele>
        <time>2011-10-16T12:57:08Z</time>
      </trkpt>
      <trkpt lat="46.6402" lon="6.04957">
        <ele>933.58</ele>
        <time>2011-10-16T12:57:09Z</time>
      </trkpt>
      <trkpt lat="46.64007" lon="6.04896">
        <ele>929.73</ele>
        <time>2011-10-16T12:57:15Z</time>
      </trkpt>
      <trkpt lat="46.63996" lon="6.04862">
        <ele>926.37</ele>
        <time>2011-10-16T12:57:18Z</time>
      </trkpt>
      <trkpt lat="46.63991" lon="6.04838">
        <ele>923.48</ele>
        <time>2011-10-16T12:57:20Z</time>
      </trkpt>
      <trkpt lat="46.6399" lon="6.04825">
        <ele>922.52</ele>
        <time>2011-10-16T12:57:21Z</time>
      </trkpt>
      <trkpt lat="46.63987" lon="6.04787">
        <ele>919.64</ele>
        <time>2011-10-16T12:57:24Z</time>
      </trkpt>
      <trkpt lat="46.63983" lon="6.04756">
        <ele>916.27</ele>
        <time>2011-10-16T12:57:27Z</time>
      </trkpt>
      <trkpt lat="46.63981" lon="6.04747">
        <ele>916.27</ele>
        <time>2011-10-16T12:57:28Z</time>
      </trkpt>
      <trkpt lat="46.63973" lon="6.04711">
        <ele>913.87</ele>
        <time>2011-10-16T12:57:33Z</time>
      </trkpt>
      <trkpt lat="46.63972" lon="6.04705">
        <ele>914.35</ele>
        <time>2011-10-16T12:57:34Z</time>
      </trkpt>
      <trkpt lat="46.63966" lon="6.04662">
        <ele>911.47</ele>
        <time>2011-10-16T12:57:40Z</time>
      </trkpt>
      <trkpt lat="46.63966" lon="6.04653">
        <ele>910.51</ele>
        <time>2011-10-16T12:57:41Z</time>
      </trkpt>
      <trkpt lat="46.63966" lon="6.04616">
        <ele>907.14</ele>
        <time>2011-10-16T12:57:46Z</time>
      </trkpt>
      <trkpt lat="46.63969" lon="6.04604">
        <ele>906.66</ele>
        <time>2011-10-16T12:57:50Z</time>
      </trkpt>
      <trkpt lat="46.63968" lon="6.04602">
        <ele>906.66</ele>
        <time>2011-10-16T12:57:51Z</time>
      </trkpt>
      <trkpt lat="46.63968" lon="6.046">
        <ele>907.14</ele>
        <time>2011-10-16T12:57:52Z</time>
      </trkpt>
      <trkpt lat="46.63966" lon="6.04599">
        <ele>906.66</ele>
        <time>2011-10-16T12:57:53Z</time>
      </trkpt>
      <trkpt lat="46.63965" lon="6.04598">
        <ele>906.66</ele>
        <time>2011-10-16T12:57:54Z</time>
      </trkpt>
      <trkpt lat="46.63964" lon="6.04598">
        <ele>906.18</ele>
        <time>2011-10-16T12:57:55Z</time>
      </trkpt>
      <trkpt lat="46.63963" lon="6.04598">
        <ele>907.14</ele>
        <time>2011-10-16T12:57:56Z</time>
      </trkpt>
      <trkpt lat="46.63962" lon="6.046">
        <ele>906.18</ele>
        <time>2011-10-16T12:57:57Z</time>
      </trkpt>
      <trkpt lat="46.63963" lon="6.04602">
        <ele>906.66</ele>
        <time>2011-10-16T12:57:59Z</time>
      </trkpt>
      <trkpt lat="46.63964" lon="6.04602">
        <ele>907.14</ele>
        <time>2011-10-16T12:58:00Z</time>
      </trkpt>
      <trkpt lat="46.63965" lon="6.04602">
        <ele>907.14</ele>
        <time>2011-10-16T12:58:01Z</time>
      </trkpt>
      <trkpt lat="46.63966" lon="6.04602">
        <ele>907.14</ele>
        <time>2011-10-16T12:58:19Z</time>
      </trkpt>
      <trkpt lat="46.63966" lon="6.04602">
        <ele>906.66</ele>
        <time>2011-10-16T12:58:28Z</time>
      </trkpt>
      <trkpt lat="46.63967" lon="6.046">
        <ele>906.66</ele>
        <time>2011-10-16T12:58:29Z</time>
      </trkpt>
      <trkpt lat="46.63968" lon="6.04597">
        <ele>905.7</ele>
        <time>2011-10-16T12:58:30Z</time>
      </trkpt>
      <trkpt lat="46.63968" lon="6.04594">
        <ele>905.7</ele>
        <time>2011-10-16T12:58:31Z</time>
      </trkpt>
      <trkpt lat="46.63969" lon="6.0459">
        <ele>906.18</ele>
        <time>2011-10-16T12:58:32Z</time>
      </trkpt>
      <trkpt lat="46.63972" lon="6.04569">
        <ele>904.74</ele>
        <time>2011-10-16T12:58:36Z</time>
      </trkpt>
      <trkpt lat="46.63973" lon="6.04563">
        <ele>904.74</ele>
        <time>2011-10-16T12:58:37Z</time>
      </trkpt>
      <trkpt lat="46.63973" lon="6.04556">
        <ele>904.74</ele>
        <time>2011-10-16T12:58:38Z</time>
      </trkpt>
      <trkpt lat="46.63976" lon="6.04525">
        <ele>902.33</ele>
        <time>2011-10-16T12:58:42Z</time>
      </trkpt>
      <trkpt lat="46.63977" lon="6.04517">
        <ele>902.33</ele>
        <time>2011-10-16T12:58:43Z</time>
      </trkpt>
      <trkpt lat="46.63982" lon="6.04448">
        <ele>899.45</ele>
        <time>2011-10-16T12:58:51Z</time>
      </trkpt>
      <trkpt lat="46.63987" lon="6.04392">
        <ele>897.53</ele>
        <time>2011-10-16T12:58:57Z</time>
      </trkpt>
      <trkpt lat="46.63988" lon="6.04384">
        <ele>897.53</ele>
        <time>2011-10-16T12:58:58Z</time>
      </trkpt>
      <trkpt lat="46.64" lon="6.04301">
        <ele>896.09</ele>
        <time>2011-10-16T12:59:11Z</time>
      </trkpt>
      <trkpt lat="46.64" lon="6.04298">
        <ele>895.61</ele>
        <time>2011-10-16T12:59:12Z</time>
      </trkpt>
      <trkpt lat="46.64001" lon="6.04296">
        <ele>895.61</ele>
        <time>2011-10-16T12:59:13Z</time>
      </trkpt>
      <trkpt lat="46.64003" lon="6.04293">
        <ele>895.61</ele>
        <time>2011-10-16T12:59:14Z</time>
      </trkpt>
      <trkpt lat="46.64005" lon="6.04291">
        <ele>894.64</ele>
        <time>2011-10-16T12:59:15Z</time>
      </trkpt>
      <trkpt lat="46.64008" lon="6.0429">
        <ele>894.64</ele>
        <time>2011-10-16T12:59:16Z</time>
      </trkpt>
      <trkpt lat="46.6401" lon="6.04288">
        <ele>895.12</ele>
        <time>2011-10-16T12:59:17Z</time>
      </trkpt>
      <trkpt lat="46.64012" lon="6.04286">
        <ele>893.68</ele>
        <time>2011-10-16T12:59:18Z</time>
      </trkpt>
      <trkpt lat="46.64026" lon="6.04255">
        <ele>890.32</ele>
        <time>2011-10-16T12:59:25Z</time>
      </trkpt>
      <trkpt lat="46.64029" lon="6.04248">
        <ele>890.32</ele>
        <time>2011-10-16T12:59:26Z</time>
      </trkpt>
      <trkpt lat="46.64034" lon="6.04235">
        <ele>888.88</ele>
        <time>2011-10-16T12:59:28Z</time>
      </trkpt>
      <trkpt lat="46.64037" lon="6.04228">
        <ele>889.36</ele>
        <time>2011-10-16T12:59:29Z</time>
      </trkpt>
      <trkpt lat="46.64039" lon="6.04221">
        <ele>887.91</ele>
        <time>2011-10-16T12:59:30Z</time>
      </trkpt>
      <trkpt lat="46.64044" lon="6.04192">
        <ele>885.99</ele>
        <time>2011-10-16T12:59:34Z</time>
      </trkpt>
      <trkpt lat="46.64045" lon="6.04186">
        <ele>885.03</ele>
        <time>2011-10-16T12:59:35Z</time>
      </trkpt>
      <trkpt lat="46.64046" lon="6.04179">
        <ele>885.03</ele>
        <time>2011-10-16T12:59:36Z</time>
      </trkpt>
      <trkpt lat="46.64048" lon="6.04164">
        <ele>883.59</ele>
        <time>2011-10-16T12:59:38Z</time>
      </trkpt>
      <trkpt lat="46.64049" lon="6.04156">
        <ele>882.63</ele>
        <time>2011-10-16T12:59:39Z</time>
      </trkpt>
      <trkpt lat="46.6405" lon="6.04149">
        <ele>882.15</ele>
        <time>2011-10-16T12:59:40Z</time>
      </trkpt>
      <trkpt lat="46.6405" lon="6.04141">
        <ele>881.19</ele>
        <time>2011-10-16T12:59:41Z</time>
      </trkpt>
      <trkpt lat="46.6405" lon="6.04134">
        <ele>880.71</ele>
        <time>2011-10-16T12:59:42Z</time>
      </trkpt>
      <trkpt lat="46.6405" lon="6.04126">
        <ele>880.22</ele>
        <time>2011-10-16T12:59:43Z</time>
      </trkpt>
      <trkpt lat="46.64049" lon="6.04118">
        <ele>880.22</ele>
        <time>2011-10-16T12:59:44Z</time>
      </trkpt>
      <trkpt lat="46.64048" lon="6.04111">
        <ele>879.26</ele>
        <time>2011-10-16T12:59:45Z</time>
      </trkpt>
      <trkpt lat="46.64048" lon="6.04106">
        <ele>879.26</ele>
        <time>2011-10-16T12:59:46Z</time>
      </trkpt>
      <trkpt lat="46.6405" lon="6.041">
        <ele>878.78</ele>
        <time>2011-10-16T12:59:47Z</time>
      </trkpt>
      <trkpt lat="46.6405" lon="6.04093">
        <ele>877.34</ele>
        <time>2011-10-16T12:59:48Z</time>
      </trkpt>
      <trkpt lat="46.6405" lon="6.04087">
        <ele>876.38</ele>
        <time>2011-10-16T12:59:49Z</time>
      </trkpt>
      <trkpt lat="46.64048" lon="6.0408">
        <ele>876.38</ele>
        <time>2011-10-16T12:59:50Z</time>
      </trkpt>
      <trkpt lat="46.64046" lon="6.04072">
        <ele>876.86</ele>
        <time>2011-10-16T12:59:51Z</time>
      </trkpt>
      <trkpt lat="46.64044" lon="6.04065">
        <ele>875.42</ele>
        <time>2011-10-16T12:59:52Z</time>
      </trkpt>
      <trkpt lat="46.64044" lon="6.04051">
        <ele>874.46</ele>
        <time>2011-10-16T12:59:54Z</time>
      </trkpt>
      <trkpt lat="46.64044" lon="6.04042">
        <ele>874.94</ele>
        <time>2011-10-16T12:59:55Z</time>
      </trkpt>
      <trkpt lat="46.64056" lon="6.04006">
        <ele>872.53</ele>
        <time>2011-10-16T12:59:59Z</time>
      </trkpt>
      <trkpt lat="46.64061" lon="6.03992">
        <ele>871.57</ele>
        <time>2011-10-16T13:00:00Z</time>
      </trkpt>
      <trkpt lat="46.64066" lon="6.0397">
        <ele>870.13</ele>
        <time>2011-10-16T13:00:02Z</time>
      </trkpt>
      <trkpt lat="46.64069" lon="6.03951">
        <ele>868.69</ele>
        <time>2011-10-16T13:00:04Z</time>
      </trkpt>
      <trkpt lat="46.64069" lon="6.03941">
        <ele>868.21</ele>
        <time>2011-10-16T13:00:05Z</time>
      </trkpt>
      <trkpt lat="46.64069" lon="6.03924">
        <ele>866.77</ele>
        <time>2011-10-16T13:00:07Z</time>
      </trkpt>
      <trkpt lat="46.64069" lon="6.03915">
        <ele>865.8</ele>
        <time>2011-10-16T13:00:08Z</time>
      </trkpt>
      <trkpt lat="46.64066" lon="6.039">
        <ele>864.36</ele>
        <time>2011-10-16T13:00:10Z</time>
      </trkpt>
      <trkpt lat="46.64065" lon="6.03893">
        <ele>864.36</ele>
        <time>2011-10-16T13:00:11Z</time>
      </trkpt>
      <trkpt lat="46.64066" lon="6.03885">
        <ele>863.4</ele>
        <time>2011-10-16T13:00:12Z</time>
      </trkpt>
      <trkpt lat="46.64068" lon="6.03879">
        <ele>862.44</ele>
        <time>2011-10-16T13:00:13Z</time>
      </trkpt>
      <trkpt lat="46.64072" lon="6.03875">
        <ele>862.92</ele>
        <time>2011-10-16T13:00:14Z</time>
      </trkpt>
      <trkpt lat="46.64076" lon="6.03871">
        <ele>861.48</ele>
        <time>2011-10-16T13:00:15Z</time>
      </trkpt>
      <trkpt lat="46.6408" lon="6.03867">
        <ele>861</ele>
        <time>2011-10-16T13:00:16Z</time>
      </trkpt>
      <trkpt lat="46.64084" lon="6.03865">
        <ele>861</ele>
        <time>2011-10-16T13:00:17Z</time>
      </trkpt>
      <trkpt lat="46.64089" lon="6.03864">
        <ele>860.04</ele>
        <time>2011-10-16T13:00:18Z</time>
      </trkpt>
      <trkpt lat="46.64094" lon="6.03865">
        <ele>859.08</ele>
        <time>2011-10-16T13:00:19Z</time>
      </trkpt>
      <trkpt lat="46.64099" lon="6.03868">
        <ele>858.11</ele>
        <time>2011-10-16T13:00:20Z</time>
      </trkpt>
      <trkpt lat="46.64103" lon="6.0387">
        <ele>858.11</ele>
        <time>2011-10-16T13:00:21Z</time>
      </trkpt>
      <trkpt lat="46.64107" lon="6.03873">
        <ele>857.15</ele>
        <time>2011-10-16T13:00:22Z</time>
      </trkpt>
      <trkpt lat="46.6411" lon="6.03874">
        <ele>857.15</ele>
        <time>2011-10-16T13:00:23Z</time>
      </trkpt>
      <trkpt lat="46.6413" lon="6.03903">
        <ele>854.27</ele>
        <time>2011-10-16T13:00:32Z</time>
      </trkpt>
      <trkpt lat="46.64138" lon="6.03907">
        <ele>852.83</ele>
        <time>2011-10-16T13:00:36Z</time>
      </trkpt>
      <trkpt lat="46.64139" lon="6.03906">
        <ele>852.35</ele>
        <time>2011-10-16T13:00:37Z</time>
      </trkpt>
      <trkpt lat="46.64142" lon="6.03903">
        <ele>847.54</ele>
        <time>2011-10-16T13:00:50Z</time>
      </trkpt>
      <trkpt lat="46.64142" lon="6.03903">
        <ele>849.94</ele>
        <time>2011-10-16T13:00:51Z</time>
      </trkpt>
      <trkpt lat="46.64142" lon="6.03903">
        <ele>850.42</ele>
        <time>2011-10-16T13:01:02Z</time>
      </trkpt>
      <trkpt lat="46.64143" lon="6.03902">
        <ele>850.9</ele>
        <time>2011-10-16T13:01:14Z</time>
      </trkpt>
      <trkpt lat="46.64143" lon="6.039">
        <ele>849.46</ele>
        <time>2011-10-16T13:01:15Z</time>
      </trkpt>
      <trkpt lat="46.64145" lon="6.03897">
        <ele>849.94</ele>
        <time>2011-10-16T13:01:16Z</time>
      </trkpt>
      <trkpt lat="46.64146" lon="6.03894">
        <ele>849.46</ele>
        <time>2011-10-16T13:01:17Z</time>
      </trkpt>
      <trkpt lat="46.64146" lon="6.03889">
        <ele>848.98</ele>
        <time>2011-10-16T13:01:18Z</time>
      </trkpt>
      <trkpt lat="46.64146" lon="6.03885">
        <ele>848.02</ele>
        <time>2011-10-16T13:01:19Z</time>
      </trkpt>
      <trkpt lat="46.64145" lon="6.0388">
        <ele>847.54</ele>
        <time>2011-10-16T13:01:20Z</time>
      </trkpt>
      <trkpt lat="46.64138" lon="6.03865">
        <ele>844.18</ele>
        <time>2011-10-16T13:01:23Z</time>
      </trkpt>
      <trkpt lat="46.64135" lon="6.03859">
        <ele>844.66</ele>
        <time>2011-10-16T13:01:24Z</time>
      </trkpt>
      <trkpt lat="46.6412" lon="6.03841">
        <ele>841.77</ele>
        <time>2011-10-16T13:01:28Z</time>
      </trkpt>
      <trkpt lat="46.6411" lon="6.03829">
        <ele>839.85</ele>
        <time>2011-10-16T13:01:30Z</time>
      </trkpt>
      <trkpt lat="46.64105" lon="6.03822">
        <ele>838.41</ele>
        <time>2011-10-16T13:01:31Z</time>
      </trkpt>
      <trkpt lat="46.64094" lon="6.03793">
        <ele>836</ele>
        <time>2011-10-16T13:01:34Z</time>
      </trkpt>
      <trkpt lat="46.6409" lon="6.03784">
        <ele>836</ele>
        <time>2011-10-16T13:01:35Z</time>
      </trkpt>
      <trkpt lat="46.64087" lon="6.03773">
        <ele>835.52</ele>
        <time>2011-10-16T13:01:36Z</time>
      </trkpt>
      <trkpt lat="46.64086" lon="6.03762">
        <ele>834.56</ele>
        <time>2011-10-16T13:01:37Z</time>
      </trkpt>
      <trkpt lat="46.64084" lon="6.03752">
        <ele>834.56</ele>
        <time>2011-10-16T13:01:38Z</time>
      </trkpt>
      <trkpt lat="46.64081" lon="6.03733">
        <ele>833.12</ele>
        <time>2011-10-16T13:01:40Z</time>
      </trkpt>
      <trkpt lat="46.64078" lon="6.03724">
        <ele>833.12</ele>
        <time>2011-10-16T13:01:41Z</time>
      </trkpt>
      <trkpt lat="46.64074" lon="6.03715">
        <ele>832.64</ele>
        <time>2011-10-16T13:01:42Z</time>
      </trkpt>
      <trkpt lat="46.64064" lon="6.03698">
        <ele>830.24</ele>
        <time>2011-10-16T13:01:44Z</time>
      </trkpt>
      <trkpt lat="46.64058" lon="6.03689">
        <ele>830.24</ele>
        <time>2011-10-16T13:01:45Z</time>
      </trkpt>
      <trkpt lat="46.64039" lon="6.03665">
        <ele>828.31</ele>
        <time>2011-10-16T13:01:48Z</time>
      </trkpt>
      <trkpt lat="46.64015" lon="6.03643">
        <ele>824.95</ele>
        <time>2011-10-16T13:01:51Z</time>
      </trkpt>
      <trkpt lat="46.64006" lon="6.03636">
        <ele>824.95</ele>
        <time>2011-10-16T13:01:52Z</time>
      </trkpt>
      <trkpt lat="46.63998" lon="6.03627">
        <ele>822.06</ele>
        <time>2011-10-16T13:01:53Z</time>
      </trkpt>
      <trkpt lat="46.63992" lon="6.03619">
        <ele>822.06</ele>
        <time>2011-10-16T13:01:54Z</time>
      </trkpt>
      <trkpt lat="46.63982" lon="6.03602">
        <ele>820.62</ele>
        <time>2011-10-16T13:01:56Z</time>
      </trkpt>
      <trkpt lat="46.63969" lon="6.03579">
        <ele>817.74</ele>
        <time>2011-10-16T13:01:59Z</time>
      </trkpt>
      <trkpt lat="46.63963" lon="6.03574">
        <ele>816.78</ele>
        <time>2011-10-16T13:02:00Z</time>
      </trkpt>
      <trkpt lat="46.63956" lon="6.03569">
        <ele>816.78</ele>
        <time>2011-10-16T13:02:01Z</time>
      </trkpt>
      <trkpt lat="46.63949" lon="6.03566">
        <ele>815.82</ele>
        <time>2011-10-16T13:02:02Z</time>
      </trkpt>
      <trkpt lat="46.6394" lon="6.03564">
        <ele>815.34</ele>
        <time>2011-10-16T13:02:03Z</time>
      </trkpt>
      <trkpt lat="46.63915" lon="6.0356">
        <ele>813.41</ele>
        <time>2011-10-16T13:02:06Z</time>
      </trkpt>
      <trkpt lat="46.63895" lon="6.03559">
        <ele>811.01</ele>
        <time>2011-10-16T13:02:09Z</time>
      </trkpt>
      <trkpt lat="46.63889" lon="6.0356">
        <ele>810.53</ele>
        <time>2011-10-16T13:02:10Z</time>
      </trkpt>
      <trkpt lat="46.63853" lon="6.03559">
        <ele>808.13</ele>
        <time>2011-10-16T13:02:16Z</time>
      </trkpt>
      <trkpt lat="46.63846" lon="6.03557">
        <ele>807.16</ele>
        <time>2011-10-16T13:02:17Z</time>
      </trkpt>
      <trkpt lat="46.63841" lon="6.03552">
        <ele>806.2</ele>
        <time>2011-10-16T13:02:18Z</time>
      </trkpt>
      <trkpt lat="46.63837" lon="6.03545">
        <ele>806.2</ele>
        <time>2011-10-16T13:02:19Z</time>
      </trkpt>
      <trkpt lat="46.63834" lon="6.03536">
        <ele>805.24</ele>
        <time>2011-10-16T13:02:20Z</time>
      </trkpt>
      <trkpt lat="46.63833" lon="6.03527">
        <ele>804.76</ele>
        <time>2011-10-16T13:02:21Z</time>
      </trkpt>
      <trkpt lat="46.63833" lon="6.0352">
        <ele>805.24</ele>
        <time>2011-10-16T13:02:22Z</time>
      </trkpt>
      <trkpt lat="46.63833" lon="6.03516">
        <ele>804.76</ele>
        <time>2011-10-16T13:02:23Z</time>
      </trkpt>
      <trkpt lat="46.63833" lon="6.03513">
        <ele>804.76</ele>
        <time>2011-10-16T13:02:33Z</time>
      </trkpt>
      <trkpt lat="46.63822" lon="6.0349">
        <ele>804.28</ele>
        <time>2011-10-16T13:03:37Z</time>
      </trkpt>
      <trkpt lat="46.63771" lon="6.03411">
        <ele>801.4</ele>
        <time>2011-10-16T13:03:49Z</time>
      </trkpt>
      <trkpt lat="46.63734" lon="6.03325">
        <ele>800.92</ele>
        <time>2011-10-16T13:04:04Z</time>
      </trkpt>
      <trkpt lat="46.63719" lon="6.03253">
        <ele>801.4</ele>
        <time>2011-10-16T13:04:14Z</time>
      </trkpt>
      <trkpt lat="46.63719" lon="6.03245">
        <ele>800.92</ele>
        <time>2011-10-16T13:04:15Z</time>
      </trkpt>
      <trkpt lat="46.63719" lon="6.03238">
        <ele>801.4</ele>
        <time>2011-10-16T13:04:16Z</time>
      </trkpt>
      <trkpt lat="46.63723" lon="6.03179">
        <ele>803.32</ele>
        <time>2011-10-16T13:04:27Z</time>
      </trkpt>
      <trkpt lat="46.63715" lon="6.03144">
        <ele>803.32</ele>
        <time>2011-10-16T13:04:34Z</time>
      </trkpt>
      <trkpt lat="46.63714" lon="6.03138">
        <ele>802.84</ele>
        <time>2011-10-16T13:04:35Z</time>
      </trkpt>
      <trkpt lat="46.63713" lon="6.03133">
        <ele>803.32</ele>
        <time>2011-10-16T13:04:36Z</time>
      </trkpt>
      <trkpt lat="46.63703" lon="6.03103">
        <ele>803.32</ele>
        <time>2011-10-16T13:04:42Z</time>
      </trkpt>
      <trkpt lat="46.637" lon="6.03098">
        <ele>803.32</ele>
        <time>2011-10-16T13:04:43Z</time>
      </trkpt>
      <trkpt lat="46.63683" lon="6.03072">
        <ele>802.84</ele>
        <time>2011-10-16T13:04:48Z</time>
      </trkpt>
      <trkpt lat="46.6368" lon="6.03066">
        <ele>802.36</ele>
        <time>2011-10-16T13:04:49Z</time>
      </trkpt>
      <trkpt lat="46.63677" lon="6.03058">
        <ele>802.36</ele>
        <time>2011-10-16T13:04:50Z</time>
      </trkpt>
      <trkpt lat="46.63677" lon="6.0305">
        <ele>801.88</ele>
        <time>2011-10-16T13:04:51Z</time>
      </trkpt>
      <trkpt lat="46.63679" lon="6.03044">
        <ele>801.4</ele>
        <time>2011-10-16T13:04:52Z</time>
      </trkpt>
      <trkpt lat="46.63681" lon="6.03039">
        <ele>802.36</ele>
        <time>2011-10-16T13:04:53Z</time>
      </trkpt>
      <trkpt lat="46.63683" lon="6.03035">
        <ele>802.36</ele>
        <time>2011-10-16T13:04:54Z</time>
      </trkpt>
      <trkpt lat="46.63684" lon="6.03031">
        <ele>801.88</ele>
        <time>2011-10-16T13:04:55Z</time>
      </trkpt>
      <trkpt lat="46.63683" lon="6.03027">
        <ele>801.88</ele>
        <time>2011-10-16T13:04:56Z</time>
      </trkpt>
      <trkpt lat="46.63682" lon="6.03024">
        <ele>801.88</ele>
        <time>2011-10-16T13:04:57Z</time>
      </trkpt>
      <trkpt lat="46.63679" lon="6.03021">
        <ele>801.4</ele>
        <time>2011-10-16T13:04:58Z</time>
      </trkpt>
      <trkpt lat="46.63676" lon="6.03019">
        <ele>802.36</ele>
        <time>2011-10-16T13:04:59Z</time>
      </trkpt>
      <trkpt lat="46.63673" lon="6.03015">
        <ele>801.88</ele>
        <time>2011-10-16T13:05:00Z</time>
      </trkpt>
      <trkpt lat="46.63672" lon="6.0301">
        <ele>802.36</ele>
        <time>2011-10-16T13:05:01Z</time>
      </trkpt>
      <trkpt lat="46.63666" lon="6.02954">
        <ele>806.2</ele>
        <time>2011-10-16T13:05:13Z</time>
      </trkpt>
    </trkseg>
  </trk>
</gpx>